<?xml version="1.0" encoding="UTF-8" standalone="no" ?>
<gpx xmlns="http://www.topografix.com/GPX/1/1" xmlns:xsi="http://www.w3.org/2001/XMLSchema-instance" xsi:schemaLocation="http://www.topografix.com/GPX/1/1 http://www.topografix.com/GPX/1/1/gpx.xsd" version="1.1" creator="VisuGPX - https://www.visugpx.com">
  <metadata>
    <name>Refuge de Campana de Cloutou 2225 m</name>
    <desc><![CDATA[Refuge au bord du lac de Campana]]></desc>
  </metadata>
  <wpt lat="42.91007" lon="0.21496">
    <ele>1582.924316</ele>
    <name><![CDATA[Cabane de Bara]]></name>
    <desc><![CDATA[Gr10c]]></desc>
    <cmt><![CDATA[Gr10c]]></cmt>
  </wpt>
  <wpt lat="42.88165" lon="0.20533">
    <ele>2220.994629</ele>
    <name><![CDATA[Refuge du Camp]]></name>
    <desc><![CDATA[Bâtiment]]></desc>
    <cmt><![CDATA[Bâtiment]]></cmt>
  </wpt>
  <wpt lat="42.89659" lon="0.19995">
    <ele>2040.989258</ele>
    <name><![CDATA[Réservoir des]]></name>
    <desc><![CDATA[Barrage]]></desc>
    <cmt><![CDATA[Barrage]]></cmt>
  </wpt>
  <wpt lat="42.91698" lon="0.20949">
    <ele>1420.943604</ele>
    <name><![CDATA[Virage du Gare]]></name>
    <desc><![CDATA[Départ de sentier]]></desc>
    <cmt><![CDATA[Départ de sentier]]></cmt>
  </wpt>
  <trk>
    <name><![CDATA[Aller-Retour]]></name>
    <trkseg>
      <trkpt lat="42.91709" lon="0.20942">
        <ele>1321.469238</ele>
        <time>2012-09-02T08:32:59Z</time>
      </trkpt>
      <trkpt lat="42.91707" lon="0.20941">
        <ele>1325.314697</ele>
        <time>2012-09-02T08:33:18Z</time>
      </trkpt>
      <trkpt lat="42.91707" lon="0.20941">
        <ele>1329.159912</ele>
        <time>2012-09-02T08:33:19Z</time>
      </trkpt>
      <trkpt lat="42.91707" lon="0.20941">
        <ele>1333.005127</ele>
        <time>2012-09-02T08:33:20Z</time>
      </trkpt>
      <trkpt lat="42.91708" lon="0.20942">
        <ele>1336.850342</ele>
        <time>2012-09-02T08:33:21Z</time>
      </trkpt>
      <trkpt lat="42.91708" lon="0.20942">
        <ele>1339.734375</ele>
        <time>2012-09-02T08:33:22Z</time>
      </trkpt>
      <trkpt lat="42.91708" lon="0.20942">
        <ele>1343.099121</ele>
        <time>2012-09-02T08:33:23Z</time>
      </trkpt>
      <trkpt lat="42.91708" lon="0.20942">
        <ele>1346.944336</ele>
        <time>2012-09-02T08:33:24Z</time>
      </trkpt>
      <trkpt lat="42.91708" lon="0.20942">
        <ele>1352.712158</ele>
        <time>2012-09-02T08:33:26Z</time>
      </trkpt>
      <trkpt lat="42.91708" lon="0.20942">
        <ele>1356.076904</ele>
        <time>2012-09-02T08:33:27Z</time>
      </trkpt>
      <trkpt lat="42.91708" lon="0.20942">
        <ele>1361.364258</ele>
        <time>2012-09-02T08:33:29Z</time>
      </trkpt>
      <trkpt lat="42.91709" lon="0.20942">
        <ele>1366.651367</ele>
        <time>2012-09-02T08:33:31Z</time>
      </trkpt>
      <trkpt lat="42.9171" lon="0.20942">
        <ele>1370.977295</ele>
        <time>2012-09-02T08:33:33Z</time>
      </trkpt>
      <trkpt lat="42.9171" lon="0.20941">
        <ele>1375.783936</ele>
        <time>2012-09-02T08:33:35Z</time>
      </trkpt>
      <trkpt lat="42.91709" lon="0.20941">
        <ele>1379.62915</ele>
        <time>2012-09-02T08:33:37Z</time>
      </trkpt>
      <trkpt lat="42.9171" lon="0.20941">
        <ele>1383.474365</ele>
        <time>2012-09-02T08:33:39Z</time>
      </trkpt>
      <trkpt lat="42.91709" lon="0.20942">
        <ele>1386.838867</ele>
        <time>2012-09-02T08:33:41Z</time>
      </trkpt>
      <trkpt lat="42.9171" lon="0.20942">
        <ele>1390.203857</ele>
        <time>2012-09-02T08:33:43Z</time>
      </trkpt>
      <trkpt lat="42.9171" lon="0.20941">
        <ele>1393.568359</ele>
        <time>2012-09-02T08:33:45Z</time>
      </trkpt>
      <trkpt lat="42.91711" lon="0.20942">
        <ele>1396.932861</ele>
        <time>2012-09-02T08:33:47Z</time>
      </trkpt>
      <trkpt lat="42.9171" lon="0.20942">
        <ele>1401.258789</ele>
        <time>2012-09-02T08:33:50Z</time>
      </trkpt>
      <trkpt lat="42.91709" lon="0.20942">
        <ele>1405.104248</ele>
        <time>2012-09-02T08:33:53Z</time>
      </trkpt>
      <trkpt lat="42.91707" lon="0.20941">
        <ele>1408.46875</ele>
        <time>2012-09-02T08:33:56Z</time>
      </trkpt>
      <trkpt lat="42.91691" lon="0.20941">
        <ele>1419.523926</ele>
        <time>2012-09-02T08:34:06Z</time>
      </trkpt>
      <trkpt lat="42.91688" lon="0.20942">
        <ele>1422.407959</ele>
        <time>2012-09-02T08:34:10Z</time>
      </trkpt>
      <trkpt lat="42.91685" lon="0.20943">
        <ele>1425.772461</ele>
        <time>2012-09-02T08:34:15Z</time>
      </trkpt>
      <trkpt lat="42.91684" lon="0.20941">
        <ele>1427.695068</ele>
        <time>2012-09-02T08:34:18Z</time>
      </trkpt>
      <trkpt lat="42.91684" lon="0.20939">
        <ele>1429.617676</ele>
        <time>2012-09-02T08:34:21Z</time>
      </trkpt>
      <trkpt lat="42.91681" lon="0.20935">
        <ele>1431.059814</ele>
        <time>2012-09-02T08:34:26Z</time>
      </trkpt>
      <trkpt lat="42.9165" lon="0.20958">
        <ele>1421.446533</ele>
        <time>2012-09-02T08:35:16Z</time>
      </trkpt>
      <trkpt lat="42.91654" lon="0.20957">
        <ele>1420.004639</ele>
        <time>2012-09-02T08:35:23Z</time>
      </trkpt>
      <trkpt lat="42.91653" lon="0.20958">
        <ele>1419.043213</ele>
        <time>2012-09-02T08:35:34Z</time>
      </trkpt>
      <trkpt lat="42.91634" lon="0.21003">
        <ele>1430.098389</ele>
        <time>2012-09-02T08:36:34Z</time>
      </trkpt>
      <trkpt lat="42.9163" lon="0.2101">
        <ele>1430.579102</ele>
        <time>2012-09-02T08:36:42Z</time>
      </trkpt>
      <trkpt lat="42.91623" lon="0.21015">
        <ele>1429.617676</ele>
        <time>2012-09-02T08:36:49Z</time>
      </trkpt>
      <trkpt lat="42.91621" lon="0.21019">
        <ele>1429.136963</ele>
        <time>2012-09-02T08:37:05Z</time>
      </trkpt>
      <trkpt lat="42.91615" lon="0.21025">
        <ele>1429.617676</ele>
        <time>2012-09-02T08:37:23Z</time>
      </trkpt>
      <trkpt lat="42.91612" lon="0.21029">
        <ele>1429.617676</ele>
        <time>2012-09-02T08:37:27Z</time>
      </trkpt>
      <trkpt lat="42.91609" lon="0.21038">
        <ele>1430.579102</ele>
        <time>2012-09-02T08:37:34Z</time>
      </trkpt>
      <trkpt lat="42.91606" lon="0.21042">
        <ele>1431.540283</ele>
        <time>2012-09-02T08:37:46Z</time>
      </trkpt>
      <trkpt lat="42.91604" lon="0.21055">
        <ele>1433.462891</ele>
        <time>2012-09-02T08:37:58Z</time>
      </trkpt>
      <trkpt lat="42.91605" lon="0.21066">
        <ele>1435.385498</ele>
        <time>2012-09-02T08:38:08Z</time>
      </trkpt>
      <trkpt lat="42.91604" lon="0.21075">
        <ele>1436.827637</ele>
        <time>2012-09-02T08:38:17Z</time>
      </trkpt>
      <trkpt lat="42.91601" lon="0.21077">
        <ele>1436.827637</ele>
        <time>2012-09-02T08:38:19Z</time>
      </trkpt>
      <trkpt lat="42.91602" lon="0.21081">
        <ele>1437.30835</ele>
        <time>2012-09-02T08:38:22Z</time>
      </trkpt>
      <trkpt lat="42.91601" lon="0.21094">
        <ele>1438.269775</ele>
        <time>2012-09-02T08:38:32Z</time>
      </trkpt>
      <trkpt lat="42.91607" lon="0.21101">
        <ele>1440.192383</ele>
        <time>2012-09-02T08:38:39Z</time>
      </trkpt>
      <trkpt lat="42.91607" lon="0.21103">
        <ele>1440.192383</ele>
        <time>2012-09-02T08:38:41Z</time>
      </trkpt>
      <trkpt lat="42.91606" lon="0.21107">
        <ele>1440.672852</ele>
        <time>2012-09-02T08:38:43Z</time>
      </trkpt>
      <trkpt lat="42.91604" lon="0.21111">
        <ele>1441.634277</ele>
        <time>2012-09-02T08:38:48Z</time>
      </trkpt>
      <trkpt lat="42.91607" lon="0.2112">
        <ele>1443.556885</ele>
        <time>2012-09-02T08:39:00Z</time>
      </trkpt>
      <trkpt lat="42.91602" lon="0.21127">
        <ele>1444.998779</ele>
        <time>2012-09-02T08:39:12Z</time>
      </trkpt>
      <trkpt lat="42.91605" lon="0.21131">
        <ele>1446.440918</ele>
        <time>2012-09-02T08:39:17Z</time>
      </trkpt>
      <trkpt lat="42.91604" lon="0.21137">
        <ele>1448.363281</ele>
        <time>2012-09-02T08:39:30Z</time>
      </trkpt>
      <trkpt lat="42.91597" lon="0.21146">
        <ele>1451.247314</ele>
        <time>2012-09-02T08:39:49Z</time>
      </trkpt>
      <trkpt lat="42.91593" lon="0.2115">
        <ele>1454.131592</ele>
        <time>2012-09-02T08:40:09Z</time>
      </trkpt>
      <trkpt lat="42.91589" lon="0.21156">
        <ele>1455.573486</ele>
        <time>2012-09-02T08:40:23Z</time>
      </trkpt>
      <trkpt lat="42.91604" lon="0.21165">
        <ele>1458.937988</ele>
        <time>2012-09-02T08:40:44Z</time>
      </trkpt>
      <trkpt lat="42.91586" lon="0.21162">
        <ele>1460.379883</ele>
        <time>2012-09-02T08:41:00Z</time>
      </trkpt>
      <trkpt lat="42.91588" lon="0.21171">
        <ele>1462.783203</ele>
        <time>2012-09-02T08:41:16Z</time>
      </trkpt>
      <trkpt lat="42.91587" lon="0.21172">
        <ele>1462.783203</ele>
        <time>2012-09-02T08:41:17Z</time>
      </trkpt>
      <trkpt lat="42.91585" lon="0.21176">
        <ele>1463.263916</ele>
        <time>2012-09-02T08:41:25Z</time>
      </trkpt>
      <trkpt lat="42.91583" lon="0.21177">
        <ele>1464.705811</ele>
        <time>2012-09-02T08:41:27Z</time>
      </trkpt>
      <trkpt lat="42.91579" lon="0.2118">
        <ele>1467.5896</ele>
        <time>2012-09-02T08:41:43Z</time>
      </trkpt>
      <trkpt lat="42.91576" lon="0.21188">
        <ele>1469.993164</ele>
        <time>2012-09-02T08:42:00Z</time>
      </trkpt>
      <trkpt lat="42.91578" lon="0.21193">
        <ele>1471.435059</ele>
        <time>2012-09-02T08:42:09Z</time>
      </trkpt>
      <trkpt lat="42.91584" lon="0.21197">
        <ele>1473.35791</ele>
        <time>2012-09-02T08:42:25Z</time>
      </trkpt>
      <trkpt lat="42.9158" lon="0.21203">
        <ele>1475.760986</ele>
        <time>2012-09-02T08:42:38Z</time>
      </trkpt>
      <trkpt lat="42.91594" lon="0.21216">
        <ele>1477.683594</ele>
        <time>2012-09-02T08:42:56Z</time>
      </trkpt>
      <trkpt lat="42.91592" lon="0.21223">
        <ele>1476.722412</ele>
        <time>2012-09-02T08:43:02Z</time>
      </trkpt>
      <trkpt lat="42.91605" lon="0.21234">
        <ele>1476.241699</ele>
        <time>2012-09-02T08:43:13Z</time>
      </trkpt>
      <trkpt lat="42.91605" lon="0.21236">
        <ele>1475.760986</ele>
        <time>2012-09-02T08:43:17Z</time>
      </trkpt>
      <trkpt lat="42.91596" lon="0.21235">
        <ele>1477.203125</ele>
        <time>2012-09-02T08:43:26Z</time>
      </trkpt>
      <trkpt lat="42.91587" lon="0.21238">
        <ele>1478.64502</ele>
        <time>2012-09-02T08:43:38Z</time>
      </trkpt>
      <trkpt lat="42.91584" lon="0.21235">
        <ele>1479.606201</ele>
        <time>2012-09-02T08:43:44Z</time>
      </trkpt>
      <trkpt lat="42.91581" lon="0.21235">
        <ele>1477.683594</ele>
        <time>2012-09-02T08:43:59Z</time>
      </trkpt>
      <trkpt lat="42.91566" lon="0.21237">
        <ele>1480.086914</ele>
        <time>2012-09-02T08:44:12Z</time>
      </trkpt>
      <trkpt lat="42.91568" lon="0.21248">
        <ele>1482.970703</ele>
        <time>2012-09-02T08:44:26Z</time>
      </trkpt>
      <trkpt lat="42.9157" lon="0.21256">
        <ele>1483.451416</ele>
        <time>2012-09-02T08:44:37Z</time>
      </trkpt>
      <trkpt lat="42.91572" lon="0.21264">
        <ele>1485.85498</ele>
        <time>2012-09-02T08:44:47Z</time>
      </trkpt>
      <trkpt lat="42.91572" lon="0.21277">
        <ele>1488.739014</ele>
        <time>2012-09-02T08:45:02Z</time>
      </trkpt>
      <trkpt lat="42.91571" lon="0.21285">
        <ele>1491.14209</ele>
        <time>2012-09-02T08:45:15Z</time>
      </trkpt>
      <trkpt lat="42.91579" lon="0.21293">
        <ele>1492.584229</ele>
        <time>2012-09-02T08:45:32Z</time>
      </trkpt>
      <trkpt lat="42.91578" lon="0.21296">
        <ele>1494.026123</ele>
        <time>2012-09-02T08:45:47Z</time>
      </trkpt>
      <trkpt lat="42.91581" lon="0.21298">
        <ele>1494.987305</ele>
        <time>2012-09-02T08:45:52Z</time>
      </trkpt>
      <trkpt lat="42.91587" lon="0.21305">
        <ele>1496.429443</ele>
        <time>2012-09-02T08:46:04Z</time>
      </trkpt>
      <trkpt lat="42.9159" lon="0.21311">
        <ele>1499.313232</ele>
        <time>2012-09-02T08:46:20Z</time>
      </trkpt>
      <trkpt lat="42.916" lon="0.2132">
        <ele>1502.197266</ele>
        <time>2012-09-02T08:46:34Z</time>
      </trkpt>
      <trkpt lat="42.916" lon="0.21327">
        <ele>1505.562012</ele>
        <time>2012-09-02T08:46:50Z</time>
      </trkpt>
      <trkpt lat="42.91607" lon="0.21333">
        <ele>1506.523193</ele>
        <time>2012-09-02T08:47:02Z</time>
      </trkpt>
      <trkpt lat="42.91612" lon="0.21342">
        <ele>1509.887695</ele>
        <time>2012-09-02T08:47:20Z</time>
      </trkpt>
      <trkpt lat="42.91627" lon="0.21354">
        <ele>1510.368408</ele>
        <time>2012-09-02T08:47:38Z</time>
      </trkpt>
      <trkpt lat="42.91614" lon="0.21359">
        <ele>1513.252441</ele>
        <time>2012-09-02T08:47:54Z</time>
      </trkpt>
      <trkpt lat="42.91609" lon="0.21357">
        <ele>1515.655762</ele>
        <time>2012-09-02T08:48:08Z</time>
      </trkpt>
      <trkpt lat="42.91619" lon="0.21369">
        <ele>1519.020508</ele>
        <time>2012-09-02T08:48:23Z</time>
      </trkpt>
      <trkpt lat="42.91623" lon="0.21375">
        <ele>1521.423584</ele>
        <time>2012-09-02T08:48:37Z</time>
      </trkpt>
      <trkpt lat="42.91623" lon="0.21383">
        <ele>1523.346436</ele>
        <time>2012-09-02T08:48:53Z</time>
      </trkpt>
      <trkpt lat="42.91621" lon="0.21391">
        <ele>1526.230225</ele>
        <time>2012-09-02T08:49:06Z</time>
      </trkpt>
      <trkpt lat="42.9162" lon="0.21392">
        <ele>1526.230225</ele>
        <time>2012-09-02T08:49:08Z</time>
      </trkpt>
      <trkpt lat="42.9162" lon="0.21395">
        <ele>1527.19165</ele>
        <time>2012-09-02T08:49:14Z</time>
      </trkpt>
      <trkpt lat="42.91619" lon="0.21397">
        <ele>1528.152832</ele>
        <time>2012-09-02T08:49:23Z</time>
      </trkpt>
      <trkpt lat="42.9161" lon="0.21397">
        <ele>1529.594727</ele>
        <time>2012-09-02T08:49:32Z</time>
      </trkpt>
      <trkpt lat="42.91622" lon="0.21409">
        <ele>1531.517334</ele>
        <time>2012-09-02T08:49:43Z</time>
      </trkpt>
      <trkpt lat="42.91618" lon="0.21412">
        <ele>1533.440186</ele>
        <time>2012-09-02T08:49:52Z</time>
      </trkpt>
      <trkpt lat="42.91618" lon="0.21412">
        <ele>1533.440186</ele>
        <time>2012-09-02T08:49:53Z</time>
      </trkpt>
      <trkpt lat="42.91613" lon="0.21413">
        <ele>1534.401611</ele>
        <time>2012-09-02T08:49:58Z</time>
      </trkpt>
      <trkpt lat="42.91603" lon="0.21418">
        <ele>1536.804688</ele>
        <time>2012-09-02T08:50:09Z</time>
      </trkpt>
      <trkpt lat="42.91608" lon="0.21425">
        <ele>1538.246826</ele>
        <time>2012-09-02T08:50:16Z</time>
      </trkpt>
      <trkpt lat="42.91621" lon="0.21434">
        <ele>1540.169434</ele>
        <time>2012-09-02T08:50:28Z</time>
      </trkpt>
      <trkpt lat="42.91615" lon="0.2145">
        <ele>1542.092041</ele>
        <time>2012-09-02T08:50:42Z</time>
      </trkpt>
      <trkpt lat="42.91611" lon="0.21466">
        <ele>1543.533936</ele>
        <time>2012-09-02T08:50:57Z</time>
      </trkpt>
      <trkpt lat="42.91604" lon="0.21469">
        <ele>1544.495117</ele>
        <time>2012-09-02T08:51:02Z</time>
      </trkpt>
      <trkpt lat="42.91605" lon="0.21465">
        <ele>1544.97583</ele>
        <time>2012-09-02T08:51:07Z</time>
      </trkpt>
      <trkpt lat="42.91597" lon="0.21481">
        <ele>1545.937256</ele>
        <time>2012-09-02T08:51:19Z</time>
      </trkpt>
      <trkpt lat="42.91595" lon="0.21495">
        <ele>1545.937256</ele>
        <time>2012-09-02T08:51:29Z</time>
      </trkpt>
      <trkpt lat="42.91582" lon="0.2149">
        <ele>1545.937256</ele>
        <time>2012-09-02T08:51:40Z</time>
      </trkpt>
      <trkpt lat="42.91579" lon="0.2149">
        <ele>1546.417969</ele>
        <time>2012-09-02T08:52:10Z</time>
      </trkpt>
      <trkpt lat="42.91577" lon="0.21499">
        <ele>1546.417969</ele>
        <time>2012-09-02T08:52:44Z</time>
      </trkpt>
      <trkpt lat="42.9157" lon="0.21505">
        <ele>1546.898438</ele>
        <time>2012-09-02T08:52:50Z</time>
      </trkpt>
      <trkpt lat="42.91568" lon="0.21511">
        <ele>1546.898438</ele>
        <time>2012-09-02T08:52:56Z</time>
      </trkpt>
      <trkpt lat="42.91564" lon="0.21519">
        <ele>1548.340576</ele>
        <time>2012-09-02T08:53:06Z</time>
      </trkpt>
      <trkpt lat="42.91567" lon="0.21535">
        <ele>1549.302002</ele>
        <time>2012-09-02T08:53:19Z</time>
      </trkpt>
      <trkpt lat="42.91566" lon="0.21541">
        <ele>1550.263428</ele>
        <time>2012-09-02T08:53:23Z</time>
      </trkpt>
      <trkpt lat="42.91566" lon="0.21549">
        <ele>1550.743896</ele>
        <time>2012-09-02T08:53:29Z</time>
      </trkpt>
      <trkpt lat="42.91564" lon="0.21552">
        <ele>1550.743896</ele>
        <time>2012-09-02T08:53:32Z</time>
      </trkpt>
      <trkpt lat="42.91565" lon="0.21559">
        <ele>1550.743896</ele>
        <time>2012-09-02T08:53:36Z</time>
      </trkpt>
      <trkpt lat="42.91559" lon="0.2158">
        <ele>1551.705322</ele>
        <time>2012-09-02T08:53:52Z</time>
      </trkpt>
      <trkpt lat="42.91555" lon="0.21591">
        <ele>1552.185791</ele>
        <time>2012-09-02T08:53:59Z</time>
      </trkpt>
      <trkpt lat="42.91553" lon="0.21596">
        <ele>1552.185791</ele>
        <time>2012-09-02T08:54:02Z</time>
      </trkpt>
      <trkpt lat="42.91538" lon="0.21624">
        <ele>1552.185791</ele>
        <time>2012-09-02T08:54:22Z</time>
      </trkpt>
      <trkpt lat="42.91519" lon="0.21635">
        <ele>1553.147217</ele>
        <time>2012-09-02T08:54:38Z</time>
      </trkpt>
      <trkpt lat="42.91497" lon="0.2165">
        <ele>1554.108643</ele>
        <time>2012-09-02T08:54:57Z</time>
      </trkpt>
      <trkpt lat="42.91487" lon="0.21667">
        <ele>1555.069824</ele>
        <time>2012-09-02T08:55:14Z</time>
      </trkpt>
      <trkpt lat="42.91477" lon="0.21675">
        <ele>1555.069824</ele>
        <time>2012-09-02T08:55:22Z</time>
      </trkpt>
      <trkpt lat="42.91473" lon="0.21678">
        <ele>1555.069824</ele>
        <time>2012-09-02T08:55:27Z</time>
      </trkpt>
      <trkpt lat="42.91462" lon="0.21678">
        <ele>1555.069824</ele>
        <time>2012-09-02T08:55:36Z</time>
      </trkpt>
      <trkpt lat="42.91441" lon="0.21678">
        <ele>1555.069824</ele>
        <time>2012-09-02T08:55:53Z</time>
      </trkpt>
      <trkpt lat="42.91432" lon="0.21677">
        <ele>1555.550537</ele>
        <time>2012-09-02T08:56:00Z</time>
      </trkpt>
      <trkpt lat="42.91428" lon="0.21677">
        <ele>1555.550537</ele>
        <time>2012-09-02T08:56:04Z</time>
      </trkpt>
      <trkpt lat="42.91423" lon="0.21674">
        <ele>1555.550537</ele>
        <time>2012-09-02T08:56:08Z</time>
      </trkpt>
      <trkpt lat="42.91421" lon="0.21675">
        <ele>1556.031006</ele>
        <time>2012-09-02T08:56:10Z</time>
      </trkpt>
      <trkpt lat="42.91406" lon="0.21672">
        <ele>1556.031006</ele>
        <time>2012-09-02T08:56:21Z</time>
      </trkpt>
      <trkpt lat="42.91402" lon="0.21672">
        <ele>1556.031006</ele>
        <time>2012-09-02T08:56:25Z</time>
      </trkpt>
      <trkpt lat="42.91379" lon="0.21659">
        <ele>1557.953857</ele>
        <time>2012-09-02T08:56:45Z</time>
      </trkpt>
      <trkpt lat="42.91366" lon="0.21652">
        <ele>1558.434326</ele>
        <time>2012-09-02T08:56:57Z</time>
      </trkpt>
      <trkpt lat="42.91363" lon="0.21651">
        <ele>1557.953857</ele>
        <time>2012-09-02T08:56:59Z</time>
      </trkpt>
      <trkpt lat="42.91362" lon="0.21649">
        <ele>1558.434326</ele>
        <time>2012-09-02T08:57:01Z</time>
      </trkpt>
      <trkpt lat="42.91345" lon="0.21637">
        <ele>1557.473145</ele>
        <time>2012-09-02T08:57:19Z</time>
      </trkpt>
      <trkpt lat="42.91341" lon="0.21635">
        <ele>1556.992432</ele>
        <time>2012-09-02T08:57:22Z</time>
      </trkpt>
      <trkpt lat="42.91315" lon="0.2162">
        <ele>1556.992432</ele>
        <time>2012-09-02T08:57:44Z</time>
      </trkpt>
      <trkpt lat="42.91304" lon="0.21618">
        <ele>1556.992432</ele>
        <time>2012-09-02T08:57:55Z</time>
      </trkpt>
      <trkpt lat="42.91301" lon="0.21617">
        <ele>1556.511719</ele>
        <time>2012-09-02T08:57:58Z</time>
      </trkpt>
      <trkpt lat="42.91276" lon="0.21598">
        <ele>1556.031006</ele>
        <time>2012-09-02T08:58:20Z</time>
      </trkpt>
      <trkpt lat="42.9125" lon="0.21589">
        <ele>1555.550537</ele>
        <time>2012-09-02T08:58:41Z</time>
      </trkpt>
      <trkpt lat="42.9122" lon="0.2157">
        <ele>1553.147217</ele>
        <time>2012-09-02T08:59:07Z</time>
      </trkpt>
      <trkpt lat="42.9121" lon="0.21563">
        <ele>1552.666504</ele>
        <time>2012-09-02T08:59:16Z</time>
      </trkpt>
      <trkpt lat="42.91202" lon="0.21553">
        <ele>1553.147217</ele>
        <time>2012-09-02T08:59:24Z</time>
      </trkpt>
      <trkpt lat="42.91186" lon="0.21536">
        <ele>1555.069824</ele>
        <time>2012-09-02T08:59:44Z</time>
      </trkpt>
      <trkpt lat="42.91181" lon="0.21532">
        <ele>1556.511719</ele>
        <time>2012-09-02T08:59:52Z</time>
      </trkpt>
      <trkpt lat="42.9118" lon="0.21523">
        <ele>1556.992432</ele>
        <time>2012-09-02T09:00:00Z</time>
      </trkpt>
      <trkpt lat="42.9117" lon="0.21511">
        <ele>1556.511719</ele>
        <time>2012-09-02T09:00:13Z</time>
      </trkpt>
      <trkpt lat="42.9115" lon="0.21491">
        <ele>1557.473145</ele>
        <time>2012-09-02T09:00:34Z</time>
      </trkpt>
      <trkpt lat="42.91146" lon="0.21485">
        <ele>1558.915039</ele>
        <time>2012-09-02T09:00:40Z</time>
      </trkpt>
      <trkpt lat="42.91135" lon="0.21476">
        <ele>1562.279541</ele>
        <time>2012-09-02T09:00:58Z</time>
      </trkpt>
      <trkpt lat="42.9113" lon="0.21472">
        <ele>1562.760254</ele>
        <time>2012-09-02T09:01:14Z</time>
      </trkpt>
      <trkpt lat="42.91129" lon="0.21473">
        <ele>1563.240967</ele>
        <time>2012-09-02T09:01:16Z</time>
      </trkpt>
      <trkpt lat="42.91126" lon="0.21478">
        <ele>1562.760254</ele>
        <time>2012-09-02T09:01:21Z</time>
      </trkpt>
      <trkpt lat="42.91108" lon="0.21493">
        <ele>1561.318359</ele>
        <time>2012-09-02T09:01:37Z</time>
      </trkpt>
      <trkpt lat="42.911" lon="0.21501">
        <ele>1560.356934</ele>
        <time>2012-09-02T09:01:47Z</time>
      </trkpt>
      <trkpt lat="42.91098" lon="0.21512">
        <ele>1557.953857</ele>
        <time>2012-09-02T09:02:00Z</time>
      </trkpt>
      <trkpt lat="42.91096" lon="0.21516">
        <ele>1557.473145</ele>
        <time>2012-09-02T09:02:04Z</time>
      </trkpt>
      <trkpt lat="42.91087" lon="0.21528">
        <ele>1553.62793</ele>
        <time>2012-09-02T09:02:17Z</time>
      </trkpt>
      <trkpt lat="42.91084" lon="0.21533">
        <ele>1553.147217</ele>
        <time>2012-09-02T09:02:21Z</time>
      </trkpt>
      <trkpt lat="42.91072" lon="0.21535">
        <ele>1554.108643</ele>
        <time>2012-09-02T09:02:36Z</time>
      </trkpt>
      <trkpt lat="42.91068" lon="0.21536">
        <ele>1554.108643</ele>
        <time>2012-09-02T09:02:50Z</time>
      </trkpt>
      <trkpt lat="42.91057" lon="0.21532">
        <ele>1556.992432</ele>
        <time>2012-09-02T09:03:06Z</time>
      </trkpt>
      <trkpt lat="42.91052" lon="0.21529">
        <ele>1559.395752</ele>
        <time>2012-09-02T09:03:19Z</time>
      </trkpt>
      <trkpt lat="42.91048" lon="0.21526">
        <ele>1559.395752</ele>
        <time>2012-09-02T09:03:23Z</time>
      </trkpt>
      <trkpt lat="42.91036" lon="0.21525">
        <ele>1559.876221</ele>
        <time>2012-09-02T09:03:35Z</time>
      </trkpt>
      <trkpt lat="42.91033" lon="0.21513">
        <ele>1561.799072</ele>
        <time>2012-09-02T09:03:45Z</time>
      </trkpt>
      <trkpt lat="42.91027" lon="0.21505">
        <ele>1563.240967</ele>
        <time>2012-09-02T09:03:53Z</time>
      </trkpt>
      <trkpt lat="42.91014" lon="0.21503">
        <ele>1565.644531</ele>
        <time>2012-09-02T09:04:04Z</time>
      </trkpt>
      <trkpt lat="42.91009" lon="0.2149">
        <ele>1566.125</ele>
        <time>2012-09-02T09:04:16Z</time>
      </trkpt>
      <trkpt lat="42.91001" lon="0.21489">
        <ele>1566.125</ele>
        <time>2012-09-02T09:04:24Z</time>
      </trkpt>
      <trkpt lat="42.90994" lon="0.21486">
        <ele>1567.086426</ele>
        <time>2012-09-02T09:04:32Z</time>
      </trkpt>
      <trkpt lat="42.90988" lon="0.21479">
        <ele>1567.086426</ele>
        <time>2012-09-02T09:04:41Z</time>
      </trkpt>
      <trkpt lat="42.90978" lon="0.21473">
        <ele>1568.52832</ele>
        <time>2012-09-02T09:04:54Z</time>
      </trkpt>
      <trkpt lat="42.90972" lon="0.21469">
        <ele>1569.489746</ele>
        <time>2012-09-02T09:05:02Z</time>
      </trkpt>
      <trkpt lat="42.90959" lon="0.21458">
        <ele>1570.931641</ele>
        <time>2012-09-02T09:05:19Z</time>
      </trkpt>
      <trkpt lat="42.90955" lon="0.21446">
        <ele>1571.412109</ele>
        <time>2012-09-02T09:05:36Z</time>
      </trkpt>
      <trkpt lat="42.90945" lon="0.21442">
        <ele>1573.81543</ele>
        <time>2012-09-02T09:05:49Z</time>
      </trkpt>
      <trkpt lat="42.90929" lon="0.21437">
        <ele>1574.776855</ele>
        <time>2012-09-02T09:06:07Z</time>
      </trkpt>
      <trkpt lat="42.90912" lon="0.21428">
        <ele>1575.257324</ele>
        <time>2012-09-02T09:06:22Z</time>
      </trkpt>
      <trkpt lat="42.9091" lon="0.21428">
        <ele>1574.776855</ele>
        <time>2012-09-02T09:06:31Z</time>
      </trkpt>
      <trkpt lat="42.90902" lon="0.21418">
        <ele>1574.776855</ele>
        <time>2012-09-02T09:06:39Z</time>
      </trkpt>
      <trkpt lat="42.909" lon="0.21413">
        <ele>1575.738037</ele>
        <time>2012-09-02T09:06:43Z</time>
      </trkpt>
      <trkpt lat="42.90898" lon="0.21406">
        <ele>1576.21875</ele>
        <time>2012-09-02T09:06:48Z</time>
      </trkpt>
      <trkpt lat="42.90895" lon="0.21403">
        <ele>1576.21875</ele>
        <time>2012-09-02T09:06:51Z</time>
      </trkpt>
      <trkpt lat="42.90885" lon="0.21387">
        <ele>1577.660645</ele>
        <time>2012-09-02T09:07:03Z</time>
      </trkpt>
      <trkpt lat="42.90881" lon="0.21384">
        <ele>1577.660645</ele>
        <time>2012-09-02T09:07:07Z</time>
      </trkpt>
      <trkpt lat="42.90876" lon="0.21378">
        <ele>1578.62207</ele>
        <time>2012-09-02T09:07:19Z</time>
      </trkpt>
      <trkpt lat="42.90866" lon="0.2136">
        <ele>1580.064209</ele>
        <time>2012-09-02T09:07:34Z</time>
      </trkpt>
      <trkpt lat="42.90858" lon="0.21354">
        <ele>1581.025635</ele>
        <time>2012-09-02T09:07:44Z</time>
      </trkpt>
      <trkpt lat="42.90842" lon="0.21334">
        <ele>1583.428711</ele>
        <time>2012-09-02T09:08:04Z</time>
      </trkpt>
      <trkpt lat="42.90829" lon="0.21318">
        <ele>1584.87085</ele>
        <time>2012-09-02T09:08:21Z</time>
      </trkpt>
      <trkpt lat="42.90825" lon="0.2131">
        <ele>1585.832031</ele>
        <time>2012-09-02T09:08:28Z</time>
      </trkpt>
      <trkpt lat="42.90817" lon="0.213">
        <ele>1586.793213</ele>
        <time>2012-09-02T09:08:42Z</time>
      </trkpt>
      <trkpt lat="42.9081" lon="0.21299">
        <ele>1586.793213</ele>
        <time>2012-09-02T09:08:49Z</time>
      </trkpt>
      <trkpt lat="42.90804" lon="0.21297">
        <ele>1585.832031</ele>
        <time>2012-09-02T09:08:54Z</time>
      </trkpt>
      <trkpt lat="42.90801" lon="0.21294">
        <ele>1584.87085</ele>
        <time>2012-09-02T09:08:57Z</time>
      </trkpt>
      <trkpt lat="42.90795" lon="0.21291">
        <ele>1584.87085</ele>
        <time>2012-09-02T09:09:15Z</time>
      </trkpt>
      <trkpt lat="42.90781" lon="0.21283">
        <ele>1585.832031</ele>
        <time>2012-09-02T09:09:30Z</time>
      </trkpt>
      <trkpt lat="42.9077" lon="0.21275">
        <ele>1586.793213</ele>
        <time>2012-09-02T09:09:43Z</time>
      </trkpt>
      <trkpt lat="42.90764" lon="0.21269">
        <ele>1587.273926</ele>
        <time>2012-09-02T09:09:51Z</time>
      </trkpt>
      <trkpt lat="42.90764" lon="0.21266">
        <ele>1587.273926</ele>
        <time>2012-09-02T09:09:53Z</time>
      </trkpt>
      <trkpt lat="42.90763" lon="0.21249">
        <ele>1587.273926</ele>
        <time>2012-09-02T09:10:06Z</time>
      </trkpt>
      <trkpt lat="42.90758" lon="0.21237">
        <ele>1586.793213</ele>
        <time>2012-09-02T09:10:17Z</time>
      </trkpt>
      <trkpt lat="42.90756" lon="0.21227">
        <ele>1587.273926</ele>
        <time>2012-09-02T09:10:24Z</time>
      </trkpt>
      <trkpt lat="42.90748" lon="0.21214">
        <ele>1589.196533</ele>
        <time>2012-09-02T09:10:36Z</time>
      </trkpt>
      <trkpt lat="42.90734" lon="0.21194">
        <ele>1589.677246</ele>
        <time>2012-09-02T09:10:54Z</time>
      </trkpt>
      <trkpt lat="42.90732" lon="0.21187">
        <ele>1590.157959</ele>
        <time>2012-09-02T09:10:59Z</time>
      </trkpt>
      <trkpt lat="42.90728" lon="0.21179">
        <ele>1590.157959</ele>
        <time>2012-09-02T09:11:08Z</time>
      </trkpt>
      <trkpt lat="42.90728" lon="0.21172">
        <ele>1590.638428</ele>
        <time>2012-09-02T09:11:23Z</time>
      </trkpt>
      <trkpt lat="42.90729" lon="0.21176">
        <ele>1590.157959</ele>
        <time>2012-09-02T09:11:43Z</time>
      </trkpt>
      <trkpt lat="42.90729" lon="0.21175">
        <ele>1589.196533</ele>
        <time>2012-09-02T09:12:07Z</time>
      </trkpt>
      <trkpt lat="42.90725" lon="0.21167">
        <ele>1588.716064</ele>
        <time>2012-09-02T09:12:12Z</time>
      </trkpt>
      <trkpt lat="42.9072" lon="0.21157">
        <ele>1588.716064</ele>
        <time>2012-09-02T09:12:21Z</time>
      </trkpt>
      <trkpt lat="42.90715" lon="0.21144">
        <ele>1590.638428</ele>
        <time>2012-09-02T09:12:35Z</time>
      </trkpt>
      <trkpt lat="42.9071" lon="0.21134">
        <ele>1592.080566</ele>
        <time>2012-09-02T09:12:46Z</time>
      </trkpt>
      <trkpt lat="42.907" lon="0.21125">
        <ele>1594.003174</ele>
        <time>2012-09-02T09:13:00Z</time>
      </trkpt>
      <trkpt lat="42.90699" lon="0.21122">
        <ele>1594.003174</ele>
        <time>2012-09-02T09:13:04Z</time>
      </trkpt>
      <trkpt lat="42.90695" lon="0.21111">
        <ele>1596.406738</ele>
        <time>2012-09-02T09:13:15Z</time>
      </trkpt>
      <trkpt lat="42.9069" lon="0.21107">
        <ele>1597.848633</ele>
        <time>2012-09-02T09:13:21Z</time>
      </trkpt>
      <trkpt lat="42.9068" lon="0.21105">
        <ele>1598.809814</ele>
        <time>2012-09-02T09:13:35Z</time>
      </trkpt>
      <trkpt lat="42.90672" lon="0.21106">
        <ele>1599.290527</ele>
        <time>2012-09-02T09:13:43Z</time>
      </trkpt>
      <trkpt lat="42.90667" lon="0.21106">
        <ele>1600.251953</ele>
        <time>2012-09-02T09:13:49Z</time>
      </trkpt>
      <trkpt lat="42.9066" lon="0.21114">
        <ele>1600.732422</ele>
        <time>2012-09-02T09:13:57Z</time>
      </trkpt>
      <trkpt lat="42.90652" lon="0.21119">
        <ele>1602.655029</ele>
        <time>2012-09-02T09:14:07Z</time>
      </trkpt>
      <trkpt lat="42.90649" lon="0.21117">
        <ele>1602.655029</ele>
        <time>2012-09-02T09:14:11Z</time>
      </trkpt>
      <trkpt lat="42.90636" lon="0.21114">
        <ele>1604.577637</ele>
        <time>2012-09-02T09:14:29Z</time>
      </trkpt>
      <trkpt lat="42.90626" lon="0.21111">
        <ele>1605.539063</ele>
        <time>2012-09-02T09:14:43Z</time>
      </trkpt>
      <trkpt lat="42.90624" lon="0.21109">
        <ele>1606.019531</ele>
        <time>2012-09-02T09:14:47Z</time>
      </trkpt>
      <trkpt lat="42.90614" lon="0.21107">
        <ele>1606.500244</ele>
        <time>2012-09-02T09:15:00Z</time>
      </trkpt>
      <trkpt lat="42.90608" lon="0.211">
        <ele>1606.980957</ele>
        <time>2012-09-02T09:15:07Z</time>
      </trkpt>
      <trkpt lat="42.90606" lon="0.21091">
        <ele>1608.422852</ele>
        <time>2012-09-02T09:15:14Z</time>
      </trkpt>
      <trkpt lat="42.90598" lon="0.21087">
        <ele>1609.864746</ele>
        <time>2012-09-02T09:15:28Z</time>
      </trkpt>
      <trkpt lat="42.9059" lon="0.21083">
        <ele>1611.787598</ele>
        <time>2012-09-02T09:15:41Z</time>
      </trkpt>
      <trkpt lat="42.90586" lon="0.21084">
        <ele>1613.710205</ele>
        <time>2012-09-02T09:15:50Z</time>
      </trkpt>
      <trkpt lat="42.90578" lon="0.21076">
        <ele>1615.633057</ele>
        <time>2012-09-02T09:16:06Z</time>
      </trkpt>
      <trkpt lat="42.90571" lon="0.21077">
        <ele>1616.594238</ele>
        <time>2012-09-02T09:16:21Z</time>
      </trkpt>
      <trkpt lat="42.90561" lon="0.21078">
        <ele>1618.036133</ele>
        <time>2012-09-02T09:16:34Z</time>
      </trkpt>
      <trkpt lat="42.9056" lon="0.21079">
        <ele>1615.152344</ele>
        <time>2012-09-02T09:20:09Z</time>
      </trkpt>
      <trkpt lat="42.90559" lon="0.21075">
        <ele>1614.671631</ele>
        <time>2012-09-02T09:20:34Z</time>
      </trkpt>
      <trkpt lat="42.90554" lon="0.21072">
        <ele>1615.152344</ele>
        <time>2012-09-02T09:20:38Z</time>
      </trkpt>
      <trkpt lat="42.9055" lon="0.21071">
        <ele>1615.633057</ele>
        <time>2012-09-02T09:20:42Z</time>
      </trkpt>
      <trkpt lat="42.9054" lon="0.21078">
        <ele>1618.036133</ele>
        <time>2012-09-02T09:20:55Z</time>
      </trkpt>
      <trkpt lat="42.90537" lon="0.21078">
        <ele>1618.036133</ele>
        <time>2012-09-02T09:20:59Z</time>
      </trkpt>
      <trkpt lat="42.90527" lon="0.2107">
        <ele>1621.400635</ele>
        <time>2012-09-02T09:21:16Z</time>
      </trkpt>
      <trkpt lat="42.90527" lon="0.21061">
        <ele>1623.803955</ele>
        <time>2012-09-02T09:21:32Z</time>
      </trkpt>
      <trkpt lat="42.90528" lon="0.21049">
        <ele>1626.207275</ele>
        <time>2012-09-02T09:21:49Z</time>
      </trkpt>
      <trkpt lat="42.90532" lon="0.21035">
        <ele>1628.130127</ele>
        <time>2012-09-02T09:22:03Z</time>
      </trkpt>
      <trkpt lat="42.90534" lon="0.21025">
        <ele>1630.052734</ele>
        <time>2012-09-02T09:22:15Z</time>
      </trkpt>
      <trkpt lat="42.90538" lon="0.2102">
        <ele>1631.01416</ele>
        <time>2012-09-02T09:22:22Z</time>
      </trkpt>
      <trkpt lat="42.90542" lon="0.2101">
        <ele>1633.417236</ele>
        <time>2012-09-02T09:22:36Z</time>
      </trkpt>
      <trkpt lat="42.90545" lon="0.20998">
        <ele>1636.30127</ele>
        <time>2012-09-02T09:22:49Z</time>
      </trkpt>
      <trkpt lat="42.90549" lon="0.20982">
        <ele>1639.185059</ele>
        <time>2012-09-02T09:23:10Z</time>
      </trkpt>
      <trkpt lat="42.9055" lon="0.20971">
        <ele>1642.549805</ele>
        <time>2012-09-02T09:23:25Z</time>
      </trkpt>
      <trkpt lat="42.90552" lon="0.20959">
        <ele>1645.433838</ele>
        <time>2012-09-02T09:23:41Z</time>
      </trkpt>
      <trkpt lat="42.90555" lon="0.20949">
        <ele>1648.317627</ele>
        <time>2012-09-02T09:23:58Z</time>
      </trkpt>
      <trkpt lat="42.90561" lon="0.20937">
        <ele>1650.720947</ele>
        <time>2012-09-02T09:24:16Z</time>
      </trkpt>
      <trkpt lat="42.90564" lon="0.2093">
        <ele>1654.085693</ele>
        <time>2012-09-02T09:24:30Z</time>
      </trkpt>
      <trkpt lat="42.90563" lon="0.20921">
        <ele>1656.969482</ele>
        <time>2012-09-02T09:24:44Z</time>
      </trkpt>
      <trkpt lat="42.9056" lon="0.20914">
        <ele>1660.334229</ele>
        <time>2012-09-02T09:24:56Z</time>
      </trkpt>
      <trkpt lat="42.90554" lon="0.2091">
        <ele>1661.776367</ele>
        <time>2012-09-02T09:25:08Z</time>
      </trkpt>
      <trkpt lat="42.90547" lon="0.20908">
        <ele>1664.179443</ele>
        <time>2012-09-02T09:25:40Z</time>
      </trkpt>
      <trkpt lat="42.90542" lon="0.20904">
        <ele>1667.063477</ele>
        <time>2012-09-02T09:25:52Z</time>
      </trkpt>
      <trkpt lat="42.90537" lon="0.20901">
        <ele>1668.986084</ele>
        <time>2012-09-02T09:26:04Z</time>
      </trkpt>
      <trkpt lat="42.90533" lon="0.20898">
        <ele>1671.38916</ele>
        <time>2012-09-02T09:26:18Z</time>
      </trkpt>
      <trkpt lat="42.90532" lon="0.20897">
        <ele>1672.831299</ele>
        <time>2012-09-02T09:26:24Z</time>
      </trkpt>
      <trkpt lat="42.90527" lon="0.20898">
        <ele>1675.234375</ele>
        <time>2012-09-02T09:26:38Z</time>
      </trkpt>
      <trkpt lat="42.90521" lon="0.20899">
        <ele>1677.157471</ele>
        <time>2012-09-02T09:26:51Z</time>
      </trkpt>
      <trkpt lat="42.90516" lon="0.20907">
        <ele>1680.521973</ele>
        <time>2012-09-02T09:27:08Z</time>
      </trkpt>
      <trkpt lat="42.90509" lon="0.20909">
        <ele>1682.925049</ele>
        <time>2012-09-02T09:27:27Z</time>
      </trkpt>
      <trkpt lat="42.90504" lon="0.20914">
        <ele>1686.289795</ele>
        <time>2012-09-02T09:28:40Z</time>
      </trkpt>
      <trkpt lat="42.90501" lon="0.20922">
        <ele>1686.770264</ele>
        <time>2012-09-02T09:28:49Z</time>
      </trkpt>
      <trkpt lat="42.905" lon="0.20936">
        <ele>1687.250977</ele>
        <time>2012-09-02T09:28:58Z</time>
      </trkpt>
      <trkpt lat="42.90492" lon="0.2095">
        <ele>1691.096191</ele>
        <time>2012-09-02T09:29:15Z</time>
      </trkpt>
      <trkpt lat="42.90481" lon="0.20956">
        <ele>1694.460938</ele>
        <time>2012-09-02T09:29:32Z</time>
      </trkpt>
      <trkpt lat="42.90476" lon="0.20955">
        <ele>1697.825684</ele>
        <time>2012-09-02T09:29:48Z</time>
      </trkpt>
      <trkpt lat="42.90471" lon="0.2095">
        <ele>1699.267578</ele>
        <time>2012-09-02T09:30:00Z</time>
      </trkpt>
      <trkpt lat="42.90469" lon="0.20942">
        <ele>1702.151367</ele>
        <time>2012-09-02T09:30:15Z</time>
      </trkpt>
      <trkpt lat="42.90464" lon="0.20937">
        <ele>1705.0354</ele>
        <time>2012-09-02T09:30:29Z</time>
      </trkpt>
      <trkpt lat="42.90456" lon="0.20941">
        <ele>1707.919434</ele>
        <time>2012-09-02T09:30:43Z</time>
      </trkpt>
      <trkpt lat="42.90454" lon="0.20949">
        <ele>1708.880859</ele>
        <time>2012-09-02T09:31:03Z</time>
      </trkpt>
      <trkpt lat="42.90452" lon="0.2096">
        <ele>1710.803467</ele>
        <time>2012-09-02T09:31:14Z</time>
      </trkpt>
      <trkpt lat="42.90446" lon="0.2097">
        <ele>1713.687256</ele>
        <time>2012-09-02T09:31:29Z</time>
      </trkpt>
      <trkpt lat="42.90444" lon="0.20961">
        <ele>1715.610107</ele>
        <time>2012-09-02T09:31:45Z</time>
      </trkpt>
      <trkpt lat="42.90442" lon="0.20952">
        <ele>1716.090576</ele>
        <time>2012-09-02T09:31:57Z</time>
      </trkpt>
      <trkpt lat="42.9044" lon="0.20945">
        <ele>1716.090576</ele>
        <time>2012-09-02T09:32:02Z</time>
      </trkpt>
      <trkpt lat="42.90432" lon="0.2094">
        <ele>1718.493896</ele>
        <time>2012-09-02T09:32:14Z</time>
      </trkpt>
      <trkpt lat="42.90431" lon="0.20938">
        <ele>1719.455322</ele>
        <time>2012-09-02T09:32:30Z</time>
      </trkpt>
      <trkpt lat="42.90425" lon="0.20934">
        <ele>1720.416504</ele>
        <time>2012-09-02T09:32:50Z</time>
      </trkpt>
      <trkpt lat="42.90423" lon="0.20936">
        <ele>1720.897217</ele>
        <time>2012-09-02T09:33:12Z</time>
      </trkpt>
      <trkpt lat="42.90414" lon="0.20935">
        <ele>1722.819824</ele>
        <time>2012-09-02T09:34:06Z</time>
      </trkpt>
      <trkpt lat="42.90409" lon="0.20932">
        <ele>1724.742676</ele>
        <time>2012-09-02T09:34:12Z</time>
      </trkpt>
      <trkpt lat="42.90398" lon="0.20928">
        <ele>1727.626465</ele>
        <time>2012-09-02T09:34:24Z</time>
      </trkpt>
      <trkpt lat="42.90396" lon="0.20927">
        <ele>1727.626465</ele>
        <time>2012-09-02T09:34:29Z</time>
      </trkpt>
      <trkpt lat="42.90393" lon="0.20924">
        <ele>1729.068359</ele>
        <time>2012-09-02T09:34:33Z</time>
      </trkpt>
      <trkpt lat="42.90386" lon="0.20919">
        <ele>1730.510498</ele>
        <time>2012-09-02T09:34:44Z</time>
      </trkpt>
      <trkpt lat="42.90378" lon="0.20909">
        <ele>1733.394287</ele>
        <time>2012-09-02T09:34:58Z</time>
      </trkpt>
      <trkpt lat="42.90372" lon="0.20909">
        <ele>1735.797607</ele>
        <time>2012-09-02T09:35:12Z</time>
      </trkpt>
      <trkpt lat="42.90361" lon="0.20898">
        <ele>1738.681641</ele>
        <time>2012-09-02T09:35:27Z</time>
      </trkpt>
      <trkpt lat="42.90355" lon="0.20894">
        <ele>1740.123779</ele>
        <time>2012-09-02T09:35:40Z</time>
      </trkpt>
      <trkpt lat="42.90347" lon="0.20891">
        <ele>1742.5271</ele>
        <time>2012-09-02T09:35:54Z</time>
      </trkpt>
      <trkpt lat="42.90345" lon="0.20888">
        <ele>1743.488281</ele>
        <time>2012-09-02T09:35:59Z</time>
      </trkpt>
      <trkpt lat="42.90337" lon="0.20881">
        <ele>1745.410889</ele>
        <time>2012-09-02T09:36:13Z</time>
      </trkpt>
      <trkpt lat="42.90331" lon="0.20876">
        <ele>1746.852783</ele>
        <time>2012-09-02T09:36:26Z</time>
      </trkpt>
      <trkpt lat="42.90322" lon="0.20873">
        <ele>1749.736816</ele>
        <time>2012-09-02T09:36:42Z</time>
      </trkpt>
      <trkpt lat="42.90314" lon="0.20867">
        <ele>1749.736816</ele>
        <time>2012-09-02T09:36:53Z</time>
      </trkpt>
      <trkpt lat="42.90306" lon="0.20859">
        <ele>1748.775391</ele>
        <time>2012-09-02T09:37:07Z</time>
      </trkpt>
      <trkpt lat="42.90305" lon="0.20859">
        <ele>1748.775391</ele>
        <time>2012-09-02T09:37:08Z</time>
      </trkpt>
      <trkpt lat="42.903" lon="0.20855">
        <ele>1747.814209</ele>
        <time>2012-09-02T09:37:13Z</time>
      </trkpt>
      <trkpt lat="42.90297" lon="0.20855">
        <ele>1748.294678</ele>
        <time>2012-09-02T09:37:16Z</time>
      </trkpt>
      <trkpt lat="42.90284" lon="0.20855">
        <ele>1749.736816</ele>
        <time>2012-09-02T09:37:30Z</time>
      </trkpt>
      <trkpt lat="42.90282" lon="0.20852">
        <ele>1751.659424</ele>
        <time>2012-09-02T09:37:44Z</time>
      </trkpt>
      <trkpt lat="42.9028" lon="0.20847">
        <ele>1753.582031</ele>
        <time>2012-09-02T09:37:57Z</time>
      </trkpt>
      <trkpt lat="42.90272" lon="0.20848">
        <ele>1757.42749</ele>
        <time>2012-09-02T09:38:12Z</time>
      </trkpt>
      <trkpt lat="42.90273" lon="0.2084">
        <ele>1759.830566</ele>
        <time>2012-09-02T09:38:27Z</time>
      </trkpt>
      <trkpt lat="42.90269" lon="0.20838">
        <ele>1761.272705</ele>
        <time>2012-09-02T09:38:39Z</time>
      </trkpt>
      <trkpt lat="42.90269" lon="0.20836">
        <ele>1763.675781</ele>
        <time>2012-09-02T09:38:55Z</time>
      </trkpt>
      <trkpt lat="42.90267" lon="0.20833">
        <ele>1765.598633</ele>
        <time>2012-09-02T09:39:03Z</time>
      </trkpt>
      <trkpt lat="42.90265" lon="0.20833">
        <ele>1766.079102</ele>
        <time>2012-09-02T09:39:26Z</time>
      </trkpt>
      <trkpt lat="42.90261" lon="0.2083">
        <ele>1769.443848</ele>
        <time>2012-09-02T09:39:51Z</time>
      </trkpt>
      <trkpt lat="42.90254" lon="0.20825">
        <ele>1772.808594</ele>
        <time>2012-09-02T09:40:08Z</time>
      </trkpt>
      <trkpt lat="42.90252" lon="0.20835">
        <ele>1774.731201</ele>
        <time>2012-09-02T09:40:24Z</time>
      </trkpt>
      <trkpt lat="42.90241" lon="0.20838">
        <ele>1776.173096</ele>
        <time>2012-09-02T09:40:38Z</time>
      </trkpt>
      <trkpt lat="42.90233" lon="0.20835">
        <ele>1778.095703</ele>
        <time>2012-09-02T09:40:51Z</time>
      </trkpt>
      <trkpt lat="42.90227" lon="0.20836">
        <ele>1780.979736</ele>
        <time>2012-09-02T09:41:05Z</time>
      </trkpt>
      <trkpt lat="42.90221" lon="0.20837">
        <ele>1783.382813</ele>
        <time>2012-09-02T09:41:21Z</time>
      </trkpt>
      <trkpt lat="42.90217" lon="0.20831">
        <ele>1785.786133</ele>
        <time>2012-09-02T09:41:34Z</time>
      </trkpt>
      <trkpt lat="42.90215" lon="0.20831">
        <ele>1787.70874</ele>
        <time>2012-09-02T09:41:37Z</time>
      </trkpt>
      <trkpt lat="42.90215" lon="0.20826">
        <ele>1788.67041</ele>
        <time>2012-09-02T09:41:47Z</time>
      </trkpt>
      <trkpt lat="42.90212" lon="0.2082">
        <ele>1790.592773</ele>
        <time>2012-09-02T09:42:01Z</time>
      </trkpt>
      <trkpt lat="42.9021" lon="0.20813">
        <ele>1792.515625</ele>
        <time>2012-09-02T09:42:16Z</time>
      </trkpt>
      <trkpt lat="42.90205" lon="0.20801">
        <ele>1795.399414</ele>
        <time>2012-09-02T09:42:37Z</time>
      </trkpt>
      <trkpt lat="42.90199" lon="0.20798">
        <ele>1798.283203</ele>
        <time>2012-09-02T09:42:51Z</time>
      </trkpt>
      <trkpt lat="42.90192" lon="0.20792">
        <ele>1800.686523</ele>
        <time>2012-09-02T09:43:08Z</time>
      </trkpt>
      <trkpt lat="42.90185" lon="0.20791">
        <ele>1802.609131</ele>
        <time>2012-09-02T09:43:23Z</time>
      </trkpt>
      <trkpt lat="42.90179" lon="0.20792">
        <ele>1804.531982</ele>
        <time>2012-09-02T09:43:38Z</time>
      </trkpt>
      <trkpt lat="42.90173" lon="0.20788">
        <ele>1806.45459</ele>
        <time>2012-09-02T09:43:53Z</time>
      </trkpt>
      <trkpt lat="42.9017" lon="0.20787">
        <ele>1807.896729</ele>
        <time>2012-09-02T09:44:02Z</time>
      </trkpt>
      <trkpt lat="42.90166" lon="0.20782">
        <ele>1809.338623</ele>
        <time>2012-09-02T09:44:15Z</time>
      </trkpt>
      <trkpt lat="42.90158" lon="0.20778">
        <ele>1812.222412</ele>
        <time>2012-09-02T09:44:28Z</time>
      </trkpt>
      <trkpt lat="42.9015" lon="0.20777">
        <ele>1813.664307</ele>
        <time>2012-09-02T09:44:42Z</time>
      </trkpt>
      <trkpt lat="42.90145" lon="0.20774">
        <ele>1815.587158</ele>
        <time>2012-09-02T09:45:04Z</time>
      </trkpt>
      <trkpt lat="42.90147" lon="0.2077">
        <ele>1816.54834</ele>
        <time>2012-09-02T09:45:19Z</time>
      </trkpt>
      <trkpt lat="42.90149" lon="0.20771">
        <ele>1817.509521</ele>
        <time>2012-09-02T09:45:24Z</time>
      </trkpt>
      <trkpt lat="42.90153" lon="0.2077">
        <ele>1817.990234</ele>
        <time>2012-09-02T09:45:29Z</time>
      </trkpt>
      <trkpt lat="42.90163" lon="0.2076">
        <ele>1819.432373</ele>
        <time>2012-09-02T09:45:45Z</time>
      </trkpt>
      <trkpt lat="42.90172" lon="0.20755">
        <ele>1822.797119</ele>
        <time>2012-09-02T09:46:01Z</time>
      </trkpt>
      <trkpt lat="42.90171" lon="0.20741">
        <ele>1826.161621</ele>
        <time>2012-09-02T09:46:20Z</time>
      </trkpt>
      <trkpt lat="42.90167" lon="0.2074">
        <ele>1828.084229</ele>
        <time>2012-09-02T09:46:29Z</time>
      </trkpt>
      <trkpt lat="42.90162" lon="0.20735">
        <ele>1829.526123</ele>
        <time>2012-09-02T09:46:41Z</time>
      </trkpt>
      <trkpt lat="42.90156" lon="0.20727">
        <ele>1831.44873</ele>
        <time>2012-09-02T09:46:59Z</time>
      </trkpt>
      <trkpt lat="42.90153" lon="0.20721">
        <ele>1833.852051</ele>
        <time>2012-09-02T09:47:13Z</time>
      </trkpt>
      <trkpt lat="42.90152" lon="0.2072">
        <ele>1833.852051</ele>
        <time>2012-09-02T09:47:15Z</time>
      </trkpt>
      <trkpt lat="42.90152" lon="0.20714">
        <ele>1835.293945</ele>
        <time>2012-09-02T09:47:22Z</time>
      </trkpt>
      <trkpt lat="42.90148" lon="0.20702">
        <ele>1837.216797</ele>
        <time>2012-09-02T09:47:38Z</time>
      </trkpt>
      <trkpt lat="42.90143" lon="0.2069">
        <ele>1838.658936</ele>
        <time>2012-09-02T09:48:22Z</time>
      </trkpt>
      <trkpt lat="42.90142" lon="0.20686">
        <ele>1839.620117</ele>
        <time>2012-09-02T09:48:27Z</time>
      </trkpt>
      <trkpt lat="42.90143" lon="0.20682">
        <ele>1840.581299</ele>
        <time>2012-09-02T09:48:47Z</time>
      </trkpt>
      <trkpt lat="42.9014" lon="0.20678">
        <ele>1841.542725</ele>
        <time>2012-09-02T09:49:04Z</time>
      </trkpt>
      <trkpt lat="42.90136" lon="0.20664">
        <ele>1844.907227</ele>
        <time>2012-09-02T09:49:21Z</time>
      </trkpt>
      <trkpt lat="42.90135" lon="0.20661">
        <ele>1845.868652</ele>
        <time>2012-09-02T09:49:24Z</time>
      </trkpt>
      <trkpt lat="42.90128" lon="0.20651">
        <ele>1848.271729</ele>
        <time>2012-09-02T09:49:37Z</time>
      </trkpt>
      <trkpt lat="42.90128" lon="0.2065">
        <ele>1848.271729</ele>
        <time>2012-09-02T09:49:38Z</time>
      </trkpt>
      <trkpt lat="42.90124" lon="0.20637">
        <ele>1851.155762</ele>
        <time>2012-09-02T09:49:52Z</time>
      </trkpt>
      <trkpt lat="42.90121" lon="0.20627">
        <ele>1851.636475</ele>
        <time>2012-09-02T09:50:07Z</time>
      </trkpt>
      <trkpt lat="42.90119" lon="0.20623">
        <ele>1853.559326</ele>
        <time>2012-09-02T09:50:12Z</time>
      </trkpt>
      <trkpt lat="42.90115" lon="0.20612">
        <ele>1855.962402</ele>
        <time>2012-09-02T09:50:25Z</time>
      </trkpt>
      <trkpt lat="42.90114" lon="0.20604">
        <ele>1857.404541</ele>
        <time>2012-09-02T09:50:33Z</time>
      </trkpt>
      <trkpt lat="42.90108" lon="0.20593">
        <ele>1859.807617</ele>
        <time>2012-09-02T09:50:47Z</time>
      </trkpt>
      <trkpt lat="42.90105" lon="0.20585">
        <ele>1861.249756</ele>
        <time>2012-09-02T09:51:07Z</time>
      </trkpt>
      <trkpt lat="42.90102" lon="0.20581">
        <ele>1863.172363</ele>
        <time>2012-09-02T09:51:13Z</time>
      </trkpt>
      <trkpt lat="42.90098" lon="0.20571">
        <ele>1866.056152</ele>
        <time>2012-09-02T09:51:26Z</time>
      </trkpt>
      <trkpt lat="42.9009" lon="0.2056">
        <ele>1868.459717</ele>
        <time>2012-09-02T09:51:42Z</time>
      </trkpt>
      <trkpt lat="42.90091" lon="0.20553">
        <ele>1869.901611</ele>
        <time>2012-09-02T09:51:48Z</time>
      </trkpt>
      <trkpt lat="42.90087" lon="0.20544">
        <ele>1873.266357</ele>
        <time>2012-09-02T09:52:01Z</time>
      </trkpt>
      <trkpt lat="42.90087" lon="0.20543">
        <ele>1873.266357</ele>
        <time>2012-09-02T09:52:02Z</time>
      </trkpt>
      <trkpt lat="42.90085" lon="0.20538">
        <ele>1874.708252</ele>
        <time>2012-09-02T09:52:11Z</time>
      </trkpt>
      <trkpt lat="42.9008" lon="0.20533">
        <ele>1876.630859</ele>
        <time>2012-09-02T09:52:25Z</time>
      </trkpt>
      <trkpt lat="42.90081" lon="0.20525">
        <ele>1879.033936</ele>
        <time>2012-09-02T09:52:36Z</time>
      </trkpt>
      <trkpt lat="42.9008" lon="0.20524">
        <ele>1880.476074</ele>
        <time>2012-09-02T09:52:39Z</time>
      </trkpt>
      <trkpt lat="42.90075" lon="0.20514">
        <ele>1882.87915</ele>
        <time>2012-09-02T09:52:55Z</time>
      </trkpt>
      <trkpt lat="42.90068" lon="0.20506">
        <ele>1885.763428</ele>
        <time>2012-09-02T09:53:08Z</time>
      </trkpt>
      <trkpt lat="42.90062" lon="0.20496">
        <ele>1888.647461</ele>
        <time>2012-09-02T09:53:20Z</time>
      </trkpt>
      <trkpt lat="42.90062" lon="0.20488">
        <ele>1890.569824</ele>
        <time>2012-09-02T09:53:33Z</time>
      </trkpt>
      <trkpt lat="42.90062" lon="0.20485">
        <ele>1890.569824</ele>
        <time>2012-09-02T09:54:57Z</time>
      </trkpt>
      <trkpt lat="42.90057" lon="0.2048">
        <ele>1892.492676</ele>
        <time>2012-09-02T09:55:09Z</time>
      </trkpt>
      <trkpt lat="42.90048" lon="0.20464">
        <ele>1895.376465</ele>
        <time>2012-09-02T09:55:26Z</time>
      </trkpt>
      <trkpt lat="42.90042" lon="0.20457">
        <ele>1897.299072</ele>
        <time>2012-09-02T09:55:35Z</time>
      </trkpt>
      <trkpt lat="42.90039" lon="0.20454">
        <ele>1897.299072</ele>
        <time>2012-09-02T09:55:39Z</time>
      </trkpt>
      <trkpt lat="42.90038" lon="0.20451">
        <ele>1898.260254</ele>
        <time>2012-09-02T09:55:41Z</time>
      </trkpt>
      <trkpt lat="42.90035" lon="0.20439">
        <ele>1901.625244</ele>
        <time>2012-09-02T09:55:55Z</time>
      </trkpt>
      <trkpt lat="42.90024" lon="0.20429">
        <ele>1903.547852</ele>
        <time>2012-09-02T09:56:15Z</time>
      </trkpt>
      <trkpt lat="42.90023" lon="0.20429">
        <ele>1903.547852</ele>
        <time>2012-09-02T09:56:16Z</time>
      </trkpt>
      <trkpt lat="42.90016" lon="0.20428">
        <ele>1905.950928</ele>
        <time>2012-09-02T09:56:28Z</time>
      </trkpt>
      <trkpt lat="42.9001" lon="0.20429">
        <ele>1908.354248</ele>
        <time>2012-09-02T09:56:39Z</time>
      </trkpt>
      <trkpt lat="42.90009" lon="0.20429">
        <ele>1908.354248</ele>
        <time>2012-09-02T09:56:40Z</time>
      </trkpt>
      <trkpt lat="42.90001" lon="0.20431">
        <ele>1911.238281</ele>
        <time>2012-09-02T09:56:54Z</time>
      </trkpt>
      <trkpt lat="42.89991" lon="0.20422">
        <ele>1914.602783</ele>
        <time>2012-09-02T09:57:13Z</time>
      </trkpt>
      <trkpt lat="42.89978" lon="0.20413">
        <ele>1917.486816</ele>
        <time>2012-09-02T09:57:33Z</time>
      </trkpt>
      <trkpt lat="42.89973" lon="0.20408">
        <ele>1917.967529</ele>
        <time>2012-09-02T09:57:41Z</time>
      </trkpt>
      <trkpt lat="42.89972" lon="0.20403">
        <ele>1919.890137</ele>
        <time>2012-09-02T09:57:51Z</time>
      </trkpt>
      <trkpt lat="42.89972" lon="0.20397">
        <ele>1920.37085</ele>
        <time>2012-09-02T09:57:56Z</time>
      </trkpt>
      <trkpt lat="42.89967" lon="0.20392">
        <ele>1921.812744</ele>
        <time>2012-09-02T09:58:04Z</time>
      </trkpt>
      <trkpt lat="42.89967" lon="0.20388">
        <ele>1923.254883</ele>
        <time>2012-09-02T09:58:07Z</time>
      </trkpt>
      <trkpt lat="42.89966" lon="0.20381">
        <ele>1923.254883</ele>
        <time>2012-09-02T09:58:13Z</time>
      </trkpt>
      <trkpt lat="42.89962" lon="0.20364">
        <ele>1926.138672</ele>
        <time>2012-09-02T09:58:29Z</time>
      </trkpt>
      <trkpt lat="42.89961" lon="0.20363">
        <ele>1925.657959</ele>
        <time>2012-09-02T09:58:30Z</time>
      </trkpt>
      <trkpt lat="42.89954" lon="0.20347">
        <ele>1929.022461</ele>
        <time>2012-09-02T09:58:44Z</time>
      </trkpt>
      <trkpt lat="42.89949" lon="0.20332">
        <ele>1931.425781</ele>
        <time>2012-09-02T09:59:00Z</time>
      </trkpt>
      <trkpt lat="42.89951" lon="0.20319">
        <ele>1933.348633</ele>
        <time>2012-09-02T09:59:13Z</time>
      </trkpt>
      <trkpt lat="42.89948" lon="0.20302">
        <ele>1935.27124</ele>
        <time>2012-09-02T09:59:27Z</time>
      </trkpt>
      <trkpt lat="42.89947" lon="0.20292">
        <ele>1936.713135</ele>
        <time>2012-09-02T09:59:39Z</time>
      </trkpt>
      <trkpt lat="42.89942" lon="0.20282">
        <ele>1938.635986</ele>
        <time>2012-09-02T09:59:48Z</time>
      </trkpt>
      <trkpt lat="42.89939" lon="0.20275">
        <ele>1939.116455</ele>
        <time>2012-09-02T09:59:53Z</time>
      </trkpt>
      <trkpt lat="42.89931" lon="0.20269">
        <ele>1939.116455</ele>
        <time>2012-09-02T10:00:03Z</time>
      </trkpt>
      <trkpt lat="42.89929" lon="0.20267">
        <ele>1939.116455</ele>
        <time>2012-09-02T10:00:06Z</time>
      </trkpt>
      <trkpt lat="42.89921" lon="0.2026">
        <ele>1938.635986</ele>
        <time>2012-09-02T10:00:14Z</time>
      </trkpt>
      <trkpt lat="42.8991" lon="0.20244">
        <ele>1941.519775</ele>
        <time>2012-09-02T10:00:29Z</time>
      </trkpt>
      <trkpt lat="42.89908" lon="0.20238">
        <ele>1941.519775</ele>
        <time>2012-09-02T10:00:33Z</time>
      </trkpt>
      <trkpt lat="42.89901" lon="0.20231">
        <ele>1941.519775</ele>
        <time>2012-09-02T10:00:42Z</time>
      </trkpt>
      <trkpt lat="42.89896" lon="0.20226">
        <ele>1942.96167</ele>
        <time>2012-09-02T10:00:55Z</time>
      </trkpt>
      <trkpt lat="42.89892" lon="0.20217">
        <ele>1942.481201</ele>
        <time>2012-09-02T10:01:12Z</time>
      </trkpt>
      <trkpt lat="42.89888" lon="0.20208">
        <ele>1943.923096</ele>
        <time>2012-09-02T10:01:20Z</time>
      </trkpt>
      <trkpt lat="42.89875" lon="0.20197">
        <ele>1945.36499</ele>
        <time>2012-09-02T10:01:33Z</time>
      </trkpt>
      <trkpt lat="42.89873" lon="0.20194">
        <ele>1945.845703</ele>
        <time>2012-09-02T10:01:37Z</time>
      </trkpt>
      <trkpt lat="42.89868" lon="0.20185">
        <ele>1946.806885</ele>
        <time>2012-09-02T10:01:45Z</time>
      </trkpt>
      <trkpt lat="42.89861" lon="0.20169">
        <ele>1946.806885</ele>
        <time>2012-09-02T10:02:02Z</time>
      </trkpt>
      <trkpt lat="42.8986" lon="0.20153">
        <ele>1948.249023</ele>
        <time>2012-09-02T10:02:19Z</time>
      </trkpt>
      <trkpt lat="42.89861" lon="0.20149">
        <ele>1949.210449</ele>
        <time>2012-09-02T10:02:22Z</time>
      </trkpt>
      <trkpt lat="42.89863" lon="0.20141">
        <ele>1950.652344</ele>
        <time>2012-09-02T10:02:28Z</time>
      </trkpt>
      <trkpt lat="42.89864" lon="0.20137">
        <ele>1951.61377</ele>
        <time>2012-09-02T10:02:32Z</time>
      </trkpt>
      <trkpt lat="42.89864" lon="0.20132">
        <ele>1952.574951</ele>
        <time>2012-09-02T10:02:36Z</time>
      </trkpt>
      <trkpt lat="42.89871" lon="0.20127">
        <ele>1955.939453</ele>
        <time>2012-09-02T10:02:49Z</time>
      </trkpt>
      <trkpt lat="42.89873" lon="0.20123">
        <ele>1956.420166</ele>
        <time>2012-09-02T10:03:09Z</time>
      </trkpt>
      <trkpt lat="42.89877" lon="0.2011">
        <ele>1959.784668</ele>
        <time>2012-09-02T10:03:38Z</time>
      </trkpt>
      <trkpt lat="42.89879" lon="0.20096">
        <ele>1963.149414</ele>
        <time>2012-09-02T10:03:52Z</time>
      </trkpt>
      <trkpt lat="42.8988" lon="0.20085">
        <ele>1966.033447</ele>
        <time>2012-09-02T10:04:06Z</time>
      </trkpt>
      <trkpt lat="42.89882" lon="0.20079">
        <ele>1967.475342</ele>
        <time>2012-09-02T10:04:20Z</time>
      </trkpt>
      <trkpt lat="42.89882" lon="0.20067">
        <ele>1970.840088</ele>
        <time>2012-09-02T10:04:49Z</time>
      </trkpt>
      <trkpt lat="42.89876" lon="0.20062">
        <ele>1973.723877</ele>
        <time>2012-09-02T10:05:02Z</time>
      </trkpt>
      <trkpt lat="42.89874" lon="0.20057">
        <ele>1975.646484</ele>
        <time>2012-09-02T10:05:18Z</time>
      </trkpt>
      <trkpt lat="42.89869" lon="0.2006">
        <ele>1977.569092</ele>
        <time>2012-09-02T10:05:33Z</time>
      </trkpt>
      <trkpt lat="42.89866" lon="0.20061">
        <ele>1976.127197</ele>
        <time>2012-09-02T10:05:49Z</time>
      </trkpt>
      <trkpt lat="42.89866" lon="0.2006">
        <ele>1978.049805</ele>
        <time>2012-09-02T10:06:00Z</time>
      </trkpt>
      <trkpt lat="42.89858" lon="0.20062">
        <ele>1977.569092</ele>
        <time>2012-09-02T10:06:13Z</time>
      </trkpt>
      <trkpt lat="42.8985" lon="0.2006">
        <ele>1979.010986</ele>
        <time>2012-09-02T10:06:30Z</time>
      </trkpt>
      <trkpt lat="42.89838" lon="0.20055">
        <ele>1982.375977</ele>
        <time>2012-09-02T10:06:47Z</time>
      </trkpt>
      <trkpt lat="42.89834" lon="0.20052">
        <ele>1984.298584</ele>
        <time>2012-09-02T10:06:56Z</time>
      </trkpt>
      <trkpt lat="42.89828" lon="0.20049">
        <ele>1986.221191</ele>
        <time>2012-09-02T10:07:08Z</time>
      </trkpt>
      <trkpt lat="42.8982" lon="0.20048">
        <ele>1988.624512</ele>
        <time>2012-09-02T10:07:22Z</time>
      </trkpt>
      <trkpt lat="42.89808" lon="0.20042">
        <ele>1991.027588</ele>
        <time>2012-09-02T10:07:41Z</time>
      </trkpt>
      <trkpt lat="42.89794" lon="0.20038">
        <ele>1992.950195</ele>
        <time>2012-09-02T10:07:57Z</time>
      </trkpt>
      <trkpt lat="42.89784" lon="0.20033">
        <ele>1995.834229</ele>
        <time>2012-09-02T10:08:14Z</time>
      </trkpt>
      <trkpt lat="42.89775" lon="0.20027">
        <ele>1998.237549</ele>
        <time>2012-09-02T10:08:33Z</time>
      </trkpt>
      <trkpt lat="42.89769" lon="0.20023">
        <ele>2001.121582</ele>
        <time>2012-09-02T10:08:47Z</time>
      </trkpt>
      <trkpt lat="42.89763" lon="0.20017">
        <ele>2003.044189</ele>
        <time>2012-09-02T10:09:03Z</time>
      </trkpt>
      <trkpt lat="42.89757" lon="0.20011">
        <ele>2005.44751</ele>
        <time>2012-09-02T10:09:18Z</time>
      </trkpt>
      <trkpt lat="42.89756" lon="0.20011">
        <ele>2007.370117</ele>
        <time>2012-09-02T10:09:24Z</time>
      </trkpt>
      <trkpt lat="42.89754" lon="0.20008">
        <ele>2008.812012</ele>
        <time>2012-09-02T10:10:01Z</time>
      </trkpt>
      <trkpt lat="42.8974" lon="0.20005">
        <ele>2010.253906</ele>
        <time>2012-09-02T10:10:17Z</time>
      </trkpt>
      <trkpt lat="42.89725" lon="0.20015">
        <ele>2010.253906</ele>
        <time>2012-09-02T10:10:33Z</time>
      </trkpt>
      <trkpt lat="42.8972" lon="0.20016">
        <ele>2010.734619</ele>
        <time>2012-09-02T10:10:37Z</time>
      </trkpt>
      <trkpt lat="42.89708" lon="0.20019">
        <ele>2011.696045</ele>
        <time>2012-09-02T10:10:48Z</time>
      </trkpt>
      <trkpt lat="42.89704" lon="0.20019">
        <ele>2012.176758</ele>
        <time>2012-09-02T10:10:52Z</time>
      </trkpt>
      <trkpt lat="42.89685" lon="0.20028">
        <ele>2014.580078</ele>
        <time>2012-09-02T10:11:11Z</time>
      </trkpt>
      <trkpt lat="42.89672" lon="0.20039">
        <ele>2016.021973</ele>
        <time>2012-09-02T10:11:28Z</time>
      </trkpt>
      <trkpt lat="42.89671" lon="0.20043">
        <ele>2015.541504</ele>
        <time>2012-09-02T10:11:32Z</time>
      </trkpt>
      <trkpt lat="42.89667" lon="0.20039">
        <ele>2016.983398</ele>
        <time>2012-09-02T10:11:43Z</time>
      </trkpt>
      <trkpt lat="42.89663" lon="0.20031">
        <ele>2019.867188</ele>
        <time>2012-09-02T10:11:54Z</time>
      </trkpt>
      <trkpt lat="42.8966" lon="0.20019">
        <ele>2021.309082</ele>
        <time>2012-09-02T10:12:06Z</time>
      </trkpt>
      <trkpt lat="42.89657" lon="0.20008">
        <ele>2023.231934</ele>
        <time>2012-09-02T10:12:21Z</time>
      </trkpt>
      <trkpt lat="42.8966" lon="0.19999">
        <ele>2026.596436</ele>
        <time>2012-09-02T10:12:37Z</time>
      </trkpt>
      <trkpt lat="42.89658" lon="0.19993">
        <ele>2028.519287</ele>
        <time>2012-09-02T10:12:50Z</time>
      </trkpt>
      <trkpt lat="42.89659" lon="0.19992">
        <ele>2028.999756</ele>
        <time>2012-09-02T10:13:22Z</time>
      </trkpt>
      <trkpt lat="42.89658" lon="0.19996">
        <ele>2028.999756</ele>
        <time>2012-09-02T10:14:29Z</time>
      </trkpt>
      <trkpt lat="42.89653" lon="0.20004">
        <ele>2029.961182</ele>
        <time>2012-09-02T10:14:51Z</time>
      </trkpt>
      <trkpt lat="42.89655" lon="0.20002">
        <ele>2029.961182</ele>
        <time>2012-09-02T10:14:57Z</time>
      </trkpt>
      <trkpt lat="42.89658" lon="0.19998">
        <ele>2029.961182</ele>
        <time>2012-09-02T10:15:01Z</time>
      </trkpt>
      <trkpt lat="42.89658" lon="0.19995">
        <ele>2029.961182</ele>
        <time>2012-09-02T10:15:03Z</time>
      </trkpt>
      <trkpt lat="42.89645" lon="0.19973">
        <ele>2029.961182</ele>
        <time>2012-09-02T10:15:19Z</time>
      </trkpt>
      <trkpt lat="42.89645" lon="0.19972">
        <ele>2029.961182</ele>
        <time>2012-09-02T10:15:20Z</time>
      </trkpt>
      <trkpt lat="42.89644" lon="0.19968">
        <ele>2029.961182</ele>
        <time>2012-09-02T10:15:22Z</time>
      </trkpt>
      <trkpt lat="42.89645" lon="0.1996">
        <ele>2029.961182</ele>
        <time>2012-09-02T10:15:27Z</time>
      </trkpt>
      <trkpt lat="42.89644" lon="0.19957">
        <ele>2030.441895</ele>
        <time>2012-09-02T10:15:29Z</time>
      </trkpt>
      <trkpt lat="42.89644" lon="0.19945">
        <ele>2031.403076</ele>
        <time>2012-09-02T10:15:36Z</time>
      </trkpt>
      <trkpt lat="42.89638" lon="0.19931">
        <ele>2030.922607</ele>
        <time>2012-09-02T10:15:51Z</time>
      </trkpt>
      <trkpt lat="42.89631" lon="0.19917">
        <ele>2030.441895</ele>
        <time>2012-09-02T10:16:03Z</time>
      </trkpt>
      <trkpt lat="42.8963" lon="0.19913">
        <ele>2030.922607</ele>
        <time>2012-09-02T10:16:07Z</time>
      </trkpt>
      <trkpt lat="42.8963" lon="0.19911">
        <ele>2030.922607</ele>
        <time>2012-09-02T10:16:09Z</time>
      </trkpt>
      <trkpt lat="42.8963" lon="0.19909">
        <ele>2030.922607</ele>
        <time>2012-09-02T10:16:11Z</time>
      </trkpt>
      <trkpt lat="42.89629" lon="0.19904">
        <ele>2030.441895</ele>
        <time>2012-09-02T10:16:14Z</time>
      </trkpt>
      <trkpt lat="42.89629" lon="0.19896">
        <ele>2029.961182</ele>
        <time>2012-09-02T10:16:19Z</time>
      </trkpt>
      <trkpt lat="42.8963" lon="0.19886">
        <ele>2030.922607</ele>
        <time>2012-09-02T10:16:35Z</time>
      </trkpt>
      <trkpt lat="42.89631" lon="0.19883">
        <ele>2030.922607</ele>
        <time>2012-09-02T10:16:37Z</time>
      </trkpt>
      <trkpt lat="42.89629" lon="0.19878">
        <ele>2029.961182</ele>
        <time>2012-09-02T10:16:43Z</time>
      </trkpt>
      <trkpt lat="42.89628" lon="0.19877">
        <ele>2029.961182</ele>
        <time>2012-09-02T10:16:44Z</time>
      </trkpt>
      <trkpt lat="42.8962" lon="0.19866">
        <ele>2029.480469</ele>
        <time>2012-09-02T10:16:57Z</time>
      </trkpt>
      <trkpt lat="42.8961" lon="0.19858">
        <ele>2029.480469</ele>
        <time>2012-09-02T10:17:07Z</time>
      </trkpt>
      <trkpt lat="42.896" lon="0.19851">
        <ele>2029.961182</ele>
        <time>2012-09-02T10:17:21Z</time>
      </trkpt>
      <trkpt lat="42.89583" lon="0.19848">
        <ele>2030.441895</ele>
        <time>2012-09-02T10:17:36Z</time>
      </trkpt>
      <trkpt lat="42.89574" lon="0.19849">
        <ele>2030.922607</ele>
        <time>2012-09-02T10:18:01Z</time>
      </trkpt>
      <trkpt lat="42.89557" lon="0.19843">
        <ele>2029.961182</ele>
        <time>2012-09-02T10:18:17Z</time>
      </trkpt>
      <trkpt lat="42.89547" lon="0.19839">
        <ele>2030.441895</ele>
        <time>2012-09-02T10:18:30Z</time>
      </trkpt>
      <trkpt lat="42.89538" lon="0.19833">
        <ele>2029.480469</ele>
        <time>2012-09-02T10:18:43Z</time>
      </trkpt>
      <trkpt lat="42.89531" lon="0.19832">
        <ele>2028.038574</ele>
        <time>2012-09-02T10:18:55Z</time>
      </trkpt>
      <trkpt lat="42.89524" lon="0.19821">
        <ele>2030.922607</ele>
        <time>2012-09-02T10:19:09Z</time>
      </trkpt>
      <trkpt lat="42.89522" lon="0.19827">
        <ele>2030.922607</ele>
        <time>2012-09-02T10:19:35Z</time>
      </trkpt>
      <trkpt lat="42.89516" lon="0.19826">
        <ele>2029.480469</ele>
        <time>2012-09-02T10:20:03Z</time>
      </trkpt>
      <trkpt lat="42.89504" lon="0.19819">
        <ele>2029.961182</ele>
        <time>2012-09-02T10:21:06Z</time>
      </trkpt>
      <trkpt lat="42.89503" lon="0.19819">
        <ele>2030.441895</ele>
        <time>2012-09-02T10:21:19Z</time>
      </trkpt>
      <trkpt lat="42.89499" lon="0.1982">
        <ele>2029.480469</ele>
        <time>2012-09-02T10:21:46Z</time>
      </trkpt>
      <trkpt lat="42.89496" lon="0.1982">
        <ele>2030.441895</ele>
        <time>2012-09-02T10:22:07Z</time>
      </trkpt>
      <trkpt lat="42.8949" lon="0.19816">
        <ele>2029.961182</ele>
        <time>2012-09-02T10:23:49Z</time>
      </trkpt>
      <trkpt lat="42.89488" lon="0.19815">
        <ele>2029.961182</ele>
        <time>2012-09-02T10:23:50Z</time>
      </trkpt>
      <trkpt lat="42.89485" lon="0.19805">
        <ele>2029.480469</ele>
        <time>2012-09-02T10:23:56Z</time>
      </trkpt>
      <trkpt lat="42.89472" lon="0.19788">
        <ele>2029.480469</ele>
        <time>2012-09-02T10:24:14Z</time>
      </trkpt>
      <trkpt lat="42.89472" lon="0.19785">
        <ele>2028.519287</ele>
        <time>2012-09-02T10:24:17Z</time>
      </trkpt>
      <trkpt lat="42.89456" lon="0.19774">
        <ele>2028.519287</ele>
        <time>2012-09-02T10:24:36Z</time>
      </trkpt>
      <trkpt lat="42.89446" lon="0.19764">
        <ele>2029.480469</ele>
        <time>2012-09-02T10:24:52Z</time>
      </trkpt>
      <trkpt lat="42.89445" lon="0.19762">
        <ele>2030.922607</ele>
        <time>2012-09-02T10:24:54Z</time>
      </trkpt>
      <trkpt lat="42.89441" lon="0.19749">
        <ele>2031.883789</ele>
        <time>2012-09-02T10:25:08Z</time>
      </trkpt>
      <trkpt lat="42.89438" lon="0.19731">
        <ele>2034.287109</ele>
        <time>2012-09-02T10:25:29Z</time>
      </trkpt>
      <trkpt lat="42.89438" lon="0.19726">
        <ele>2035.248291</ele>
        <time>2012-09-02T10:25:34Z</time>
      </trkpt>
      <trkpt lat="42.89433" lon="0.19724">
        <ele>2034.287109</ele>
        <time>2012-09-02T10:25:39Z</time>
      </trkpt>
      <trkpt lat="42.89418" lon="0.19715">
        <ele>2037.170898</ele>
        <time>2012-09-02T10:25:56Z</time>
      </trkpt>
      <trkpt lat="42.89408" lon="0.1971">
        <ele>2039.093506</ele>
        <time>2012-09-02T10:26:12Z</time>
      </trkpt>
      <trkpt lat="42.89404" lon="0.19709">
        <ele>2039.574219</ele>
        <time>2012-09-02T10:26:29Z</time>
      </trkpt>
      <trkpt lat="42.89401" lon="0.19713">
        <ele>2040.054932</ele>
        <time>2012-09-02T10:26:42Z</time>
      </trkpt>
      <trkpt lat="42.89397" lon="0.19718">
        <ele>2040.5354</ele>
        <time>2012-09-02T10:26:56Z</time>
      </trkpt>
      <trkpt lat="42.89388" lon="0.19718">
        <ele>2042.938721</ele>
        <time>2012-09-02T10:27:10Z</time>
      </trkpt>
      <trkpt lat="42.89378" lon="0.19723">
        <ele>2044.380859</ele>
        <time>2012-09-02T10:27:24Z</time>
      </trkpt>
      <trkpt lat="42.8937" lon="0.19728">
        <ele>2044.380859</ele>
        <time>2012-09-02T10:27:34Z</time>
      </trkpt>
      <trkpt lat="42.89362" lon="0.19733">
        <ele>2043.900146</ele>
        <time>2012-09-02T10:27:48Z</time>
      </trkpt>
      <trkpt lat="42.89361" lon="0.19734">
        <ele>2043.900146</ele>
        <time>2012-09-02T10:27:49Z</time>
      </trkpt>
      <trkpt lat="42.89358" lon="0.19738">
        <ele>2043.900146</ele>
        <time>2012-09-02T10:27:53Z</time>
      </trkpt>
      <trkpt lat="42.89354" lon="0.19738">
        <ele>2043.419434</ele>
        <time>2012-09-02T10:27:57Z</time>
      </trkpt>
      <trkpt lat="42.89353" lon="0.19738">
        <ele>2044.380859</ele>
        <time>2012-09-02T10:28:12Z</time>
      </trkpt>
      <trkpt lat="42.89353" lon="0.19737">
        <ele>2043.900146</ele>
        <time>2012-09-02T10:28:15Z</time>
      </trkpt>
      <trkpt lat="42.89348" lon="0.19737">
        <ele>2043.900146</ele>
        <time>2012-09-02T10:28:20Z</time>
      </trkpt>
      <trkpt lat="42.8933" lon="0.19738">
        <ele>2047.745605</ele>
        <time>2012-09-02T10:28:38Z</time>
      </trkpt>
      <trkpt lat="42.89331" lon="0.19743">
        <ele>2048.226074</ele>
        <time>2012-09-02T10:28:41Z</time>
      </trkpt>
      <trkpt lat="42.89332" lon="0.19749">
        <ele>2049.668213</ele>
        <time>2012-09-02T10:28:49Z</time>
      </trkpt>
      <trkpt lat="42.89327" lon="0.19752">
        <ele>2051.110107</ele>
        <time>2012-09-02T10:28:55Z</time>
      </trkpt>
      <trkpt lat="42.89323" lon="0.19746">
        <ele>2052.071289</ele>
        <time>2012-09-02T10:29:10Z</time>
      </trkpt>
      <trkpt lat="42.89316" lon="0.19742">
        <ele>2054.474609</ele>
        <time>2012-09-02T10:29:22Z</time>
      </trkpt>
      <trkpt lat="42.89308" lon="0.19731">
        <ele>2056.87793</ele>
        <time>2012-09-02T10:29:38Z</time>
      </trkpt>
      <trkpt lat="42.89306" lon="0.19731">
        <ele>2057.839355</ele>
        <time>2012-09-02T10:29:41Z</time>
      </trkpt>
      <trkpt lat="42.89297" lon="0.19737">
        <ele>2059.28125</ele>
        <time>2012-09-02T10:29:54Z</time>
      </trkpt>
      <trkpt lat="42.89292" lon="0.19746">
        <ele>2061.204102</ele>
        <time>2012-09-02T10:30:01Z</time>
      </trkpt>
      <trkpt lat="42.89287" lon="0.19753">
        <ele>2063.126709</ele>
        <time>2012-09-02T10:30:15Z</time>
      </trkpt>
      <trkpt lat="42.89283" lon="0.19753">
        <ele>2062.645996</ele>
        <time>2012-09-02T10:30:36Z</time>
      </trkpt>
      <trkpt lat="42.89279" lon="0.19764">
        <ele>2063.126709</ele>
        <time>2012-09-02T10:30:51Z</time>
      </trkpt>
      <trkpt lat="42.89278" lon="0.19767">
        <ele>2063.126709</ele>
        <time>2012-09-02T10:31:10Z</time>
      </trkpt>
      <trkpt lat="42.89278" lon="0.19767">
        <ele>2063.126709</ele>
        <time>2012-09-02T10:31:34Z</time>
      </trkpt>
      <trkpt lat="42.89281" lon="0.19771">
        <ele>2062.165283</ele>
        <time>2012-09-02T10:31:39Z</time>
      </trkpt>
      <trkpt lat="42.89277" lon="0.19778">
        <ele>2063.126709</ele>
        <time>2012-09-02T10:31:43Z</time>
      </trkpt>
      <trkpt lat="42.89266" lon="0.19784">
        <ele>2063.607178</ele>
        <time>2012-09-02T10:31:56Z</time>
      </trkpt>
      <trkpt lat="42.89255" lon="0.19793">
        <ele>2064.568604</ele>
        <time>2012-09-02T10:32:11Z</time>
      </trkpt>
      <trkpt lat="42.89251" lon="0.19802">
        <ele>2066.010498</ele>
        <time>2012-09-02T10:32:22Z</time>
      </trkpt>
      <trkpt lat="42.89248" lon="0.19809">
        <ele>2065.530029</ele>
        <time>2012-09-02T10:32:27Z</time>
      </trkpt>
      <trkpt lat="42.89243" lon="0.19824">
        <ele>2066.010498</ele>
        <time>2012-09-02T10:32:37Z</time>
      </trkpt>
      <trkpt lat="42.89237" lon="0.19834">
        <ele>2066.491211</ele>
        <time>2012-09-02T10:32:48Z</time>
      </trkpt>
      <trkpt lat="42.89237" lon="0.19842">
        <ele>2067.452393</ele>
        <time>2012-09-02T10:32:56Z</time>
      </trkpt>
      <trkpt lat="42.8924" lon="0.19848">
        <ele>2069.375244</ele>
        <time>2012-09-02T10:33:03Z</time>
      </trkpt>
      <trkpt lat="42.89237" lon="0.19854">
        <ele>2069.855713</ele>
        <time>2012-09-02T10:33:07Z</time>
      </trkpt>
      <trkpt lat="42.89245" lon="0.19855">
        <ele>2070.336426</ele>
        <time>2012-09-02T10:33:13Z</time>
      </trkpt>
      <trkpt lat="42.89244" lon="0.19866">
        <ele>2070.336426</ele>
        <time>2012-09-02T10:33:20Z</time>
      </trkpt>
      <trkpt lat="42.89243" lon="0.19882">
        <ele>2072.259033</ele>
        <time>2012-09-02T10:33:31Z</time>
      </trkpt>
      <trkpt lat="42.89248" lon="0.19893">
        <ele>2075.623535</ele>
        <time>2012-09-02T10:33:46Z</time>
      </trkpt>
      <trkpt lat="42.8925" lon="0.19892">
        <ele>2075.142822</ele>
        <time>2012-09-02T10:33:53Z</time>
      </trkpt>
      <trkpt lat="42.89263" lon="0.19901">
        <ele>2075.142822</ele>
        <time>2012-09-02T10:34:05Z</time>
      </trkpt>
      <trkpt lat="42.89267" lon="0.19909">
        <ele>2074.662354</ele>
        <time>2012-09-02T10:34:11Z</time>
      </trkpt>
      <trkpt lat="42.8927" lon="0.19914">
        <ele>2075.142822</ele>
        <time>2012-09-02T10:34:15Z</time>
      </trkpt>
      <trkpt lat="42.89274" lon="0.19917">
        <ele>2075.142822</ele>
        <time>2012-09-02T10:34:18Z</time>
      </trkpt>
      <trkpt lat="42.89278" lon="0.19924">
        <ele>2076.104492</ele>
        <time>2012-09-02T10:34:27Z</time>
      </trkpt>
      <trkpt lat="42.89282" lon="0.19934">
        <ele>2078.507813</ele>
        <time>2012-09-02T10:34:39Z</time>
      </trkpt>
      <trkpt lat="42.89277" lon="0.1994">
        <ele>2079.949707</ele>
        <time>2012-09-02T10:34:51Z</time>
      </trkpt>
      <trkpt lat="42.89276" lon="0.19948">
        <ele>2082.353027</ele>
        <time>2012-09-02T10:35:04Z</time>
      </trkpt>
      <trkpt lat="42.89281" lon="0.19951">
        <ele>2084.756348</ele>
        <time>2012-09-02T10:35:15Z</time>
      </trkpt>
      <trkpt lat="42.89286" lon="0.19954">
        <ele>2086.198242</ele>
        <time>2012-09-02T10:35:21Z</time>
      </trkpt>
      <trkpt lat="42.89293" lon="0.19962">
        <ele>2086.198242</ele>
        <time>2012-09-02T10:35:35Z</time>
      </trkpt>
      <trkpt lat="42.89293" lon="0.19967">
        <ele>2086.198242</ele>
        <time>2012-09-02T10:35:38Z</time>
      </trkpt>
      <trkpt lat="42.89294" lon="0.19972">
        <ele>2086.678711</ele>
        <time>2012-09-02T10:35:41Z</time>
      </trkpt>
      <trkpt lat="42.89295" lon="0.19976">
        <ele>2086.198242</ele>
        <time>2012-09-02T10:35:44Z</time>
      </trkpt>
      <trkpt lat="42.89296" lon="0.19978">
        <ele>2087.159424</ele>
        <time>2012-09-02T10:35:47Z</time>
      </trkpt>
      <trkpt lat="42.89298" lon="0.19981">
        <ele>2086.678711</ele>
        <time>2012-09-02T10:35:50Z</time>
      </trkpt>
      <trkpt lat="42.893" lon="0.19984">
        <ele>2087.640137</ele>
        <time>2012-09-02T10:35:54Z</time>
      </trkpt>
      <trkpt lat="42.893" lon="0.19988">
        <ele>2087.640137</ele>
        <time>2012-09-02T10:35:56Z</time>
      </trkpt>
      <trkpt lat="42.893" lon="0.19995">
        <ele>2089.082031</ele>
        <time>2012-09-02T10:36:03Z</time>
      </trkpt>
      <trkpt lat="42.89295" lon="0.19997">
        <ele>2091.485352</ele>
        <time>2012-09-02T10:36:18Z</time>
      </trkpt>
      <trkpt lat="42.89292" lon="0.19997">
        <ele>2092.92749</ele>
        <time>2012-09-02T10:36:25Z</time>
      </trkpt>
      <trkpt lat="42.89286" lon="0.20003">
        <ele>2095.330811</ele>
        <time>2012-09-02T10:36:42Z</time>
      </trkpt>
      <trkpt lat="42.89284" lon="0.20006">
        <ele>2097.253418</ele>
        <time>2012-09-02T10:37:01Z</time>
      </trkpt>
      <trkpt lat="42.89285" lon="0.20011">
        <ele>2099.176025</ele>
        <time>2012-09-02T10:37:13Z</time>
      </trkpt>
      <trkpt lat="42.89287" lon="0.20014">
        <ele>2099.656738</ele>
        <time>2012-09-02T10:37:18Z</time>
      </trkpt>
      <trkpt lat="42.89287" lon="0.20025">
        <ele>2101.098633</ele>
        <time>2012-09-02T10:37:35Z</time>
      </trkpt>
      <trkpt lat="42.89283" lon="0.20024">
        <ele>2103.501953</ele>
        <time>2012-09-02T10:38:08Z</time>
      </trkpt>
      <trkpt lat="42.89278" lon="0.20022">
        <ele>2104.943848</ele>
        <time>2012-09-02T10:38:21Z</time>
      </trkpt>
      <trkpt lat="42.89277" lon="0.20026">
        <ele>2106.385742</ele>
        <time>2012-09-02T10:38:30Z</time>
      </trkpt>
      <trkpt lat="42.89282" lon="0.20031">
        <ele>2107.827881</ele>
        <time>2012-09-02T10:38:42Z</time>
      </trkpt>
      <trkpt lat="42.8928" lon="0.20034">
        <ele>2107.827881</ele>
        <time>2012-09-02T10:38:58Z</time>
      </trkpt>
      <trkpt lat="42.89281" lon="0.20044">
        <ele>2109.27002</ele>
        <time>2012-09-02T10:39:11Z</time>
      </trkpt>
      <trkpt lat="42.89281" lon="0.20043">
        <ele>2109.27002</ele>
        <time>2012-09-02T10:40:01Z</time>
      </trkpt>
      <trkpt lat="42.89278" lon="0.20045">
        <ele>2109.27002</ele>
        <time>2012-09-02T10:41:14Z</time>
      </trkpt>
      <trkpt lat="42.8928" lon="0.20046">
        <ele>2108.308594</ele>
        <time>2012-09-02T10:41:28Z</time>
      </trkpt>
      <trkpt lat="42.89279" lon="0.20053">
        <ele>2110.231201</ele>
        <time>2012-09-02T10:41:52Z</time>
      </trkpt>
      <trkpt lat="42.89279" lon="0.20054">
        <ele>2109.750488</ele>
        <time>2012-09-02T10:43:19Z</time>
      </trkpt>
      <trkpt lat="42.89274" lon="0.20068">
        <ele>2112.634521</ele>
        <time>2012-09-02T10:43:36Z</time>
      </trkpt>
      <trkpt lat="42.8927" lon="0.20071">
        <ele>2114.076416</ele>
        <time>2012-09-02T10:43:47Z</time>
      </trkpt>
      <trkpt lat="42.8926" lon="0.20078">
        <ele>2113.115234</ele>
        <time>2012-09-02T10:44:03Z</time>
      </trkpt>
      <trkpt lat="42.89256" lon="0.2008">
        <ele>2112.634521</ele>
        <time>2012-09-02T10:44:11Z</time>
      </trkpt>
      <trkpt lat="42.89249" lon="0.20082">
        <ele>2113.115234</ele>
        <time>2012-09-02T10:44:28Z</time>
      </trkpt>
      <trkpt lat="42.8925" lon="0.2008">
        <ele>2113.115234</ele>
        <time>2012-09-02T10:44:50Z</time>
      </trkpt>
      <trkpt lat="42.89245" lon="0.2008">
        <ele>2113.115234</ele>
        <time>2012-09-02T10:44:55Z</time>
      </trkpt>
      <trkpt lat="42.89234" lon="0.20082">
        <ele>2113.595703</ele>
        <time>2012-09-02T10:45:10Z</time>
      </trkpt>
      <trkpt lat="42.89233" lon="0.2008">
        <ele>2113.595703</ele>
        <time>2012-09-02T10:45:11Z</time>
      </trkpt>
      <trkpt lat="42.8923" lon="0.2008">
        <ele>2114.076416</ele>
        <time>2012-09-02T10:45:15Z</time>
      </trkpt>
      <trkpt lat="42.89221" lon="0.20082">
        <ele>2113.115234</ele>
        <time>2012-09-02T10:45:26Z</time>
      </trkpt>
      <trkpt lat="42.89214" lon="0.20088">
        <ele>2112.634521</ele>
        <time>2012-09-02T10:45:36Z</time>
      </trkpt>
      <trkpt lat="42.89206" lon="0.20095">
        <ele>2112.153809</ele>
        <time>2012-09-02T10:45:45Z</time>
      </trkpt>
      <trkpt lat="42.89198" lon="0.20096">
        <ele>2112.153809</ele>
        <time>2012-09-02T10:45:54Z</time>
      </trkpt>
      <trkpt lat="42.8919" lon="0.20095">
        <ele>2112.153809</ele>
        <time>2012-09-02T10:46:01Z</time>
      </trkpt>
      <trkpt lat="42.89177" lon="0.20093">
        <ele>2115.037842</ele>
        <time>2012-09-02T10:46:18Z</time>
      </trkpt>
      <trkpt lat="42.89169" lon="0.20091">
        <ele>2117.921631</ele>
        <time>2012-09-02T10:46:34Z</time>
      </trkpt>
      <trkpt lat="42.89166" lon="0.20087">
        <ele>2120.324951</ele>
        <time>2012-09-02T10:46:43Z</time>
      </trkpt>
      <trkpt lat="42.89158" lon="0.20082">
        <ele>2122.247559</ele>
        <time>2012-09-02T10:46:56Z</time>
      </trkpt>
      <trkpt lat="42.89151" lon="0.20083">
        <ele>2125.131592</ele>
        <time>2012-09-02T10:47:09Z</time>
      </trkpt>
      <trkpt lat="42.89145" lon="0.20081">
        <ele>2128.496338</ele>
        <time>2012-09-02T10:47:24Z</time>
      </trkpt>
      <trkpt lat="42.89143" lon="0.20081">
        <ele>2129.938232</ele>
        <time>2012-09-02T10:49:19Z</time>
      </trkpt>
      <trkpt lat="42.89143" lon="0.20078">
        <ele>2130.899658</ele>
        <time>2012-09-02T10:50:20Z</time>
      </trkpt>
      <trkpt lat="42.89143" lon="0.20078">
        <ele>2129.938232</ele>
        <time>2012-09-02T10:50:28Z</time>
      </trkpt>
      <trkpt lat="42.89144" lon="0.20085">
        <ele>2131.86084</ele>
        <time>2012-09-02T10:50:58Z</time>
      </trkpt>
      <trkpt lat="42.89137" lon="0.20096">
        <ele>2133.783447</ele>
        <time>2012-09-02T10:51:14Z</time>
      </trkpt>
      <trkpt lat="42.89136" lon="0.20098">
        <ele>2135.225342</ele>
        <time>2012-09-02T10:51:34Z</time>
      </trkpt>
      <trkpt lat="42.89129" lon="0.20099">
        <ele>2137.628662</ele>
        <time>2012-09-02T10:52:16Z</time>
      </trkpt>
      <trkpt lat="42.89122" lon="0.20103">
        <ele>2140.512695</ele>
        <time>2012-09-02T10:52:27Z</time>
      </trkpt>
      <trkpt lat="42.89121" lon="0.20119">
        <ele>2142.435547</ele>
        <time>2012-09-02T10:52:42Z</time>
      </trkpt>
      <trkpt lat="42.89116" lon="0.20122">
        <ele>2143.877441</ele>
        <time>2012-09-02T10:52:53Z</time>
      </trkpt>
      <trkpt lat="42.8911" lon="0.20127">
        <ele>2144.838623</ele>
        <time>2012-09-02T10:53:01Z</time>
      </trkpt>
      <trkpt lat="42.89107" lon="0.20134">
        <ele>2146.280762</ele>
        <time>2012-09-02T10:53:15Z</time>
      </trkpt>
      <trkpt lat="42.891" lon="0.20145">
        <ele>2146.76123</ele>
        <time>2012-09-02T10:53:33Z</time>
      </trkpt>
      <trkpt lat="42.8909" lon="0.20155">
        <ele>2145.800049</ele>
        <time>2012-09-02T10:53:48Z</time>
      </trkpt>
      <trkpt lat="42.89081" lon="0.20159">
        <ele>2143.877441</ele>
        <time>2012-09-02T10:54:02Z</time>
      </trkpt>
      <trkpt lat="42.89078" lon="0.20166">
        <ele>2141.954834</ele>
        <time>2012-09-02T10:54:09Z</time>
      </trkpt>
      <trkpt lat="42.89077" lon="0.20177">
        <ele>2140.993408</ele>
        <time>2012-09-02T10:54:21Z</time>
      </trkpt>
      <trkpt lat="42.89074" lon="0.20179">
        <ele>2139.55127</ele>
        <time>2012-09-02T10:54:30Z</time>
      </trkpt>
      <trkpt lat="42.89071" lon="0.20189">
        <ele>2139.070557</ele>
        <time>2012-09-02T10:54:38Z</time>
      </trkpt>
      <trkpt lat="42.8907" lon="0.20194">
        <ele>2141.474121</ele>
        <time>2012-09-02T10:54:49Z</time>
      </trkpt>
      <trkpt lat="42.89062" lon="0.20204">
        <ele>2143.877441</ele>
        <time>2012-09-02T10:55:03Z</time>
      </trkpt>
      <trkpt lat="42.89054" lon="0.20211">
        <ele>2143.396729</ele>
        <time>2012-09-02T10:55:17Z</time>
      </trkpt>
      <trkpt lat="42.89053" lon="0.20212">
        <ele>2144.35791</ele>
        <time>2012-09-02T10:55:35Z</time>
      </trkpt>
      <trkpt lat="42.89052" lon="0.2021">
        <ele>2143.877441</ele>
        <time>2012-09-02T10:55:51Z</time>
      </trkpt>
      <trkpt lat="42.89052" lon="0.20216">
        <ele>2143.877441</ele>
        <time>2012-09-02T10:56:17Z</time>
      </trkpt>
      <trkpt lat="42.89048" lon="0.20223">
        <ele>2142.435547</ele>
        <time>2012-09-02T10:56:24Z</time>
      </trkpt>
      <trkpt lat="42.89046" lon="0.20235">
        <ele>2140.512695</ele>
        <time>2012-09-02T10:56:37Z</time>
      </trkpt>
      <trkpt lat="42.89039" lon="0.20248">
        <ele>2137.147949</ele>
        <time>2012-09-02T10:56:51Z</time>
      </trkpt>
      <trkpt lat="42.89038" lon="0.20251">
        <ele>2136.667236</ele>
        <time>2012-09-02T10:56:54Z</time>
      </trkpt>
      <trkpt lat="42.8903" lon="0.20254">
        <ele>2135.706055</ele>
        <time>2012-09-02T10:57:03Z</time>
      </trkpt>
      <trkpt lat="42.89024" lon="0.20259">
        <ele>2132.822021</ele>
        <time>2012-09-02T10:57:15Z</time>
      </trkpt>
      <trkpt lat="42.89017" lon="0.20265">
        <ele>2130.899658</ele>
        <time>2012-09-02T10:57:27Z</time>
      </trkpt>
      <trkpt lat="42.89013" lon="0.2027">
        <ele>2129.45752</ele>
        <time>2012-09-02T10:57:32Z</time>
      </trkpt>
      <trkpt lat="42.89005" lon="0.20278">
        <ele>2128.976807</ele>
        <time>2012-09-02T10:57:42Z</time>
      </trkpt>
      <trkpt lat="42.89002" lon="0.20285">
        <ele>2127.534912</ele>
        <time>2012-09-02T10:57:56Z</time>
      </trkpt>
      <trkpt lat="42.88994" lon="0.20299">
        <ele>2128.496338</ele>
        <time>2012-09-02T10:58:16Z</time>
      </trkpt>
      <trkpt lat="42.88988" lon="0.20303">
        <ele>2128.015625</ele>
        <time>2012-09-02T10:58:30Z</time>
      </trkpt>
      <trkpt lat="42.88986" lon="0.20311">
        <ele>2126.57373</ele>
        <time>2012-09-02T10:58:45Z</time>
      </trkpt>
      <trkpt lat="42.88984" lon="0.20319">
        <ele>2124.651123</ele>
        <time>2012-09-02T10:58:59Z</time>
      </trkpt>
      <trkpt lat="42.88982" lon="0.20322">
        <ele>2123.208984</ele>
        <time>2012-09-02T10:59:13Z</time>
      </trkpt>
      <trkpt lat="42.8898" lon="0.20325">
        <ele>2121.766846</ele>
        <time>2012-09-02T10:59:15Z</time>
      </trkpt>
      <trkpt lat="42.88977" lon="0.20332">
        <ele>2119.844238</ele>
        <time>2012-09-02T10:59:27Z</time>
      </trkpt>
      <trkpt lat="42.88976" lon="0.20334">
        <ele>2118.883057</ele>
        <time>2012-09-02T10:59:31Z</time>
      </trkpt>
      <trkpt lat="42.88973" lon="0.20348">
        <ele>2116.479736</ele>
        <time>2012-09-02T10:59:45Z</time>
      </trkpt>
      <trkpt lat="42.88973" lon="0.20348">
        <ele>2117.921631</ele>
        <time>2012-09-02T10:59:53Z</time>
      </trkpt>
      <trkpt lat="42.88969" lon="0.20352">
        <ele>2115.999023</ele>
        <time>2012-09-02T11:00:07Z</time>
      </trkpt>
      <trkpt lat="42.88961" lon="0.20364">
        <ele>2113.595703</ele>
        <time>2012-09-02T11:00:22Z</time>
      </trkpt>
      <trkpt lat="42.88955" lon="0.20366">
        <ele>2111.67334</ele>
        <time>2012-09-02T11:00:42Z</time>
      </trkpt>
      <trkpt lat="42.88951" lon="0.20371">
        <ele>2111.192627</ele>
        <time>2012-09-02T11:00:59Z</time>
      </trkpt>
      <trkpt lat="42.88944" lon="0.20382">
        <ele>2108.789307</ele>
        <time>2012-09-02T11:01:17Z</time>
      </trkpt>
      <trkpt lat="42.88945" lon="0.20386">
        <ele>2108.308594</ele>
        <time>2012-09-02T11:01:33Z</time>
      </trkpt>
      <trkpt lat="42.88939" lon="0.20385">
        <ele>2105.424561</ele>
        <time>2012-09-02T11:01:47Z</time>
      </trkpt>
      <trkpt lat="42.88933" lon="0.20381">
        <ele>2103.501953</ele>
        <time>2012-09-02T11:02:00Z</time>
      </trkpt>
      <trkpt lat="42.88933" lon="0.20381">
        <ele>2102.540527</ele>
        <time>2012-09-02T11:02:02Z</time>
      </trkpt>
      <trkpt lat="42.88932" lon="0.20384">
        <ele>2102.540527</ele>
        <time>2012-09-02T11:02:20Z</time>
      </trkpt>
      <trkpt lat="42.88924" lon="0.20399">
        <ele>2102.059814</ele>
        <time>2012-09-02T11:02:35Z</time>
      </trkpt>
      <trkpt lat="42.88916" lon="0.20416">
        <ele>2103.501953</ele>
        <time>2012-09-02T11:02:50Z</time>
      </trkpt>
      <trkpt lat="42.88908" lon="0.20422">
        <ele>2104.943848</ele>
        <time>2012-09-02T11:03:01Z</time>
      </trkpt>
      <trkpt lat="42.88904" lon="0.20431">
        <ele>2104.943848</ele>
        <time>2012-09-02T11:03:08Z</time>
      </trkpt>
      <trkpt lat="42.88906" lon="0.20446">
        <ele>2104.463135</ele>
        <time>2012-09-02T11:03:21Z</time>
      </trkpt>
      <trkpt lat="42.88906" lon="0.20458">
        <ele>2104.943848</ele>
        <time>2012-09-02T11:03:33Z</time>
      </trkpt>
      <trkpt lat="42.88906" lon="0.2046">
        <ele>2104.943848</ele>
        <time>2012-09-02T11:03:35Z</time>
      </trkpt>
      <trkpt lat="42.88902" lon="0.20466">
        <ele>2103.982666</ele>
        <time>2012-09-02T11:03:41Z</time>
      </trkpt>
      <trkpt lat="42.88901" lon="0.20472">
        <ele>2103.982666</ele>
        <time>2012-09-02T11:03:46Z</time>
      </trkpt>
      <trkpt lat="42.88901" lon="0.20487">
        <ele>2106.385742</ele>
        <time>2012-09-02T11:04:04Z</time>
      </trkpt>
      <trkpt lat="42.88899" lon="0.20496">
        <ele>2108.308594</ele>
        <time>2012-09-02T11:04:16Z</time>
      </trkpt>
      <trkpt lat="42.8889" lon="0.2051">
        <ele>2110.231201</ele>
        <time>2012-09-02T11:04:32Z</time>
      </trkpt>
      <trkpt lat="42.88882" lon="0.20509">
        <ele>2110.711914</ele>
        <time>2012-09-02T11:04:48Z</time>
      </trkpt>
      <trkpt lat="42.88878" lon="0.20507">
        <ele>2110.711914</ele>
        <time>2012-09-02T11:04:54Z</time>
      </trkpt>
      <trkpt lat="42.88876" lon="0.20505">
        <ele>2110.711914</ele>
        <time>2012-09-02T11:04:57Z</time>
      </trkpt>
      <trkpt lat="42.88866" lon="0.20505">
        <ele>2110.711914</ele>
        <time>2012-09-02T11:05:10Z</time>
      </trkpt>
      <trkpt lat="42.88857" lon="0.2051">
        <ele>2111.192627</ele>
        <time>2012-09-02T11:05:23Z</time>
      </trkpt>
      <trkpt lat="42.88854" lon="0.20509">
        <ele>2111.192627</ele>
        <time>2012-09-02T11:05:27Z</time>
      </trkpt>
      <trkpt lat="42.88849" lon="0.2051">
        <ele>2109.27002</ele>
        <time>2012-09-02T11:05:32Z</time>
      </trkpt>
      <trkpt lat="42.88838" lon="0.20515">
        <ele>2109.750488</ele>
        <time>2012-09-02T11:05:48Z</time>
      </trkpt>
      <trkpt lat="42.88836" lon="0.20516">
        <ele>2109.27002</ele>
        <time>2012-09-02T11:05:51Z</time>
      </trkpt>
      <trkpt lat="42.88833" lon="0.20514">
        <ele>2108.789307</ele>
        <time>2012-09-02T11:05:55Z</time>
      </trkpt>
      <trkpt lat="42.88815" lon="0.2052">
        <ele>2108.789307</ele>
        <time>2012-09-02T11:06:14Z</time>
      </trkpt>
      <trkpt lat="42.8881" lon="0.2052">
        <ele>2108.308594</ele>
        <time>2012-09-02T11:06:20Z</time>
      </trkpt>
      <trkpt lat="42.88796" lon="0.20517">
        <ele>2107.347168</ele>
        <time>2012-09-02T11:06:32Z</time>
      </trkpt>
      <trkpt lat="42.8879" lon="0.20517">
        <ele>2107.827881</ele>
        <time>2012-09-02T11:06:45Z</time>
      </trkpt>
      <trkpt lat="42.8879" lon="0.20517">
        <ele>2106.866455</ele>
        <time>2012-09-02T11:07:09Z</time>
      </trkpt>
      <trkpt lat="42.88787" lon="0.20514">
        <ele>2106.866455</ele>
        <time>2012-09-02T11:07:12Z</time>
      </trkpt>
      <trkpt lat="42.8878" lon="0.20521">
        <ele>2109.750488</ele>
        <time>2012-09-02T11:07:25Z</time>
      </trkpt>
      <trkpt lat="42.88772" lon="0.20516">
        <ele>2110.231201</ele>
        <time>2012-09-02T11:07:46Z</time>
      </trkpt>
      <trkpt lat="42.88765" lon="0.20523">
        <ele>2111.192627</ele>
        <time>2012-09-02T11:08:01Z</time>
      </trkpt>
      <trkpt lat="42.88762" lon="0.20533">
        <ele>2112.634521</ele>
        <time>2012-09-02T11:08:19Z</time>
      </trkpt>
      <trkpt lat="42.88762" lon="0.20533">
        <ele>2112.634521</ele>
        <time>2012-09-02T11:08:20Z</time>
      </trkpt>
      <trkpt lat="42.88757" lon="0.20535">
        <ele>2110.711914</ele>
        <time>2012-09-02T11:08:35Z</time>
      </trkpt>
      <trkpt lat="42.88754" lon="0.20535">
        <ele>2109.27002</ele>
        <time>2012-09-02T11:08:55Z</time>
      </trkpt>
      <trkpt lat="42.88743" lon="0.20536">
        <ele>2107.827881</ele>
        <time>2012-09-02T11:09:13Z</time>
      </trkpt>
      <trkpt lat="42.88734" lon="0.20535">
        <ele>2104.943848</ele>
        <time>2012-09-02T11:09:26Z</time>
      </trkpt>
      <trkpt lat="42.88726" lon="0.2054">
        <ele>2103.02124</ele>
        <time>2012-09-02T11:09:41Z</time>
      </trkpt>
      <trkpt lat="42.88726" lon="0.20539">
        <ele>2102.059814</ele>
        <time>2012-09-02T11:10:03Z</time>
      </trkpt>
      <trkpt lat="42.88726" lon="0.20538">
        <ele>2103.02124</ele>
        <time>2012-09-02T11:10:06Z</time>
      </trkpt>
      <trkpt lat="42.88725" lon="0.20538">
        <ele>2102.059814</ele>
        <time>2012-09-02T11:10:08Z</time>
      </trkpt>
      <trkpt lat="42.88716" lon="0.2054">
        <ele>2100.61792</ele>
        <time>2012-09-02T11:10:38Z</time>
      </trkpt>
      <trkpt lat="42.88713" lon="0.20541">
        <ele>2101.098633</ele>
        <time>2012-09-02T11:10:44Z</time>
      </trkpt>
      <trkpt lat="42.88705" lon="0.20538">
        <ele>2101.579346</ele>
        <time>2012-09-02T11:10:59Z</time>
      </trkpt>
      <trkpt lat="42.88703" lon="0.20538">
        <ele>2100.137451</ele>
        <time>2012-09-02T11:11:04Z</time>
      </trkpt>
      <trkpt lat="42.8869" lon="0.20543">
        <ele>2099.176025</ele>
        <time>2012-09-02T11:11:18Z</time>
      </trkpt>
      <trkpt lat="42.88688" lon="0.20546">
        <ele>2099.656738</ele>
        <time>2012-09-02T11:11:34Z</time>
      </trkpt>
      <trkpt lat="42.88686" lon="0.20546">
        <ele>2099.656738</ele>
        <time>2012-09-02T11:11:51Z</time>
      </trkpt>
      <trkpt lat="42.88681" lon="0.20545">
        <ele>2098.695313</ele>
        <time>2012-09-02T11:12:26Z</time>
      </trkpt>
      <trkpt lat="42.88677" lon="0.20544">
        <ele>2098.2146</ele>
        <time>2012-09-02T11:12:38Z</time>
      </trkpt>
      <trkpt lat="42.88672" lon="0.20544">
        <ele>2097.253418</ele>
        <time>2012-09-02T11:12:47Z</time>
      </trkpt>
      <trkpt lat="42.8866" lon="0.20557">
        <ele>2098.695313</ele>
        <time>2012-09-02T11:13:07Z</time>
      </trkpt>
      <trkpt lat="42.88652" lon="0.20567">
        <ele>2099.656738</ele>
        <time>2012-09-02T11:13:21Z</time>
      </trkpt>
      <trkpt lat="42.88646" lon="0.20575">
        <ele>2100.61792</ele>
        <time>2012-09-02T11:13:37Z</time>
      </trkpt>
      <trkpt lat="42.88642" lon="0.20585">
        <ele>2099.656738</ele>
        <time>2012-09-02T11:13:46Z</time>
      </trkpt>
      <trkpt lat="42.88638" lon="0.20589">
        <ele>2100.137451</ele>
        <time>2012-09-02T11:13:50Z</time>
      </trkpt>
      <trkpt lat="42.8863" lon="0.20603">
        <ele>2102.059814</ele>
        <time>2012-09-02T11:14:05Z</time>
      </trkpt>
      <trkpt lat="42.88628" lon="0.20609">
        <ele>2103.982666</ele>
        <time>2012-09-02T11:14:23Z</time>
      </trkpt>
      <trkpt lat="42.88624" lon="0.20616">
        <ele>2103.982666</ele>
        <time>2012-09-02T11:14:32Z</time>
      </trkpt>
      <trkpt lat="42.88616" lon="0.20629">
        <ele>2103.982666</ele>
        <time>2012-09-02T11:14:48Z</time>
      </trkpt>
      <trkpt lat="42.88614" lon="0.20629">
        <ele>2103.02124</ele>
        <time>2012-09-02T11:14:52Z</time>
      </trkpt>
      <trkpt lat="42.88602" lon="0.20634">
        <ele>2101.098633</ele>
        <time>2012-09-02T11:15:10Z</time>
      </trkpt>
      <trkpt lat="42.88601" lon="0.20633">
        <ele>2100.137451</ele>
        <time>2012-09-02T11:15:12Z</time>
      </trkpt>
      <trkpt lat="42.88603" lon="0.20634">
        <ele>2100.137451</ele>
        <time>2012-09-02T11:15:33Z</time>
      </trkpt>
      <trkpt lat="42.88596" lon="0.20633">
        <ele>2099.176025</ele>
        <time>2012-09-02T11:15:45Z</time>
      </trkpt>
      <trkpt lat="42.88584" lon="0.20635">
        <ele>2098.695313</ele>
        <time>2012-09-02T11:16:00Z</time>
      </trkpt>
      <trkpt lat="42.8858" lon="0.20637">
        <ele>2098.2146</ele>
        <time>2012-09-02T11:16:17Z</time>
      </trkpt>
      <trkpt lat="42.8858" lon="0.20637">
        <ele>2098.695313</ele>
        <time>2012-09-02T11:17:06Z</time>
      </trkpt>
      <trkpt lat="42.88579" lon="0.20637">
        <ele>2099.656738</ele>
        <time>2012-09-02T11:17:37Z</time>
      </trkpt>
      <trkpt lat="42.8857" lon="0.20651">
        <ele>2102.059814</ele>
        <time>2012-09-02T11:17:54Z</time>
      </trkpt>
      <trkpt lat="42.8856" lon="0.20655">
        <ele>2102.059814</ele>
        <time>2012-09-02T11:18:07Z</time>
      </trkpt>
      <trkpt lat="42.8854" lon="0.20654">
        <ele>2103.501953</ele>
        <time>2012-09-02T11:18:28Z</time>
      </trkpt>
      <trkpt lat="42.88536" lon="0.20653">
        <ele>2103.02124</ele>
        <time>2012-09-02T11:18:32Z</time>
      </trkpt>
      <trkpt lat="42.88529" lon="0.2065">
        <ele>2103.982666</ele>
        <time>2012-09-02T11:18:41Z</time>
      </trkpt>
      <trkpt lat="42.8853" lon="0.20649">
        <ele>2103.982666</ele>
        <time>2012-09-02T11:18:51Z</time>
      </trkpt>
      <trkpt lat="42.88527" lon="0.20644">
        <ele>2103.501953</ele>
        <time>2012-09-02T11:19:08Z</time>
      </trkpt>
      <trkpt lat="42.88527" lon="0.20642">
        <ele>2103.982666</ele>
        <time>2012-09-02T11:19:23Z</time>
      </trkpt>
      <trkpt lat="42.88527" lon="0.20638">
        <ele>2103.501953</ele>
        <time>2012-09-02T11:19:36Z</time>
      </trkpt>
      <trkpt lat="42.88528" lon="0.20635">
        <ele>2103.982666</ele>
        <time>2012-09-02T11:19:46Z</time>
      </trkpt>
      <trkpt lat="42.8853" lon="0.20633">
        <ele>2103.501953</ele>
        <time>2012-09-02T11:20:04Z</time>
      </trkpt>
      <trkpt lat="42.88531" lon="0.2063">
        <ele>2103.501953</ele>
        <time>2012-09-02T11:20:22Z</time>
      </trkpt>
      <trkpt lat="42.88531" lon="0.20631">
        <ele>2103.501953</ele>
        <time>2012-09-02T11:20:34Z</time>
      </trkpt>
      <trkpt lat="42.88532" lon="0.20629">
        <ele>2104.463135</ele>
        <time>2012-09-02T11:20:45Z</time>
      </trkpt>
      <trkpt lat="42.88534" lon="0.20629">
        <ele>2103.982666</ele>
        <time>2012-09-02T11:20:48Z</time>
      </trkpt>
      <trkpt lat="42.88532" lon="0.20624">
        <ele>2103.982666</ele>
        <time>2012-09-02T11:21:00Z</time>
      </trkpt>
      <trkpt lat="42.88531" lon="0.20622">
        <ele>2104.463135</ele>
        <time>2012-09-02T11:21:02Z</time>
      </trkpt>
      <trkpt lat="42.88525" lon="0.20608">
        <ele>2106.385742</ele>
        <time>2012-09-02T11:21:16Z</time>
      </trkpt>
      <trkpt lat="42.88526" lon="0.20605">
        <ele>2106.866455</ele>
        <time>2012-09-02T11:21:36Z</time>
      </trkpt>
      <trkpt lat="42.88524" lon="0.20586">
        <ele>2107.827881</ele>
        <time>2012-09-02T11:21:56Z</time>
      </trkpt>
      <trkpt lat="42.88523" lon="0.20569">
        <ele>2110.711914</ele>
        <time>2012-09-02T11:22:12Z</time>
      </trkpt>
      <trkpt lat="42.88518" lon="0.20557">
        <ele>2112.153809</ele>
        <time>2012-09-02T11:22:25Z</time>
      </trkpt>
      <trkpt lat="42.88517" lon="0.20553">
        <ele>2112.153809</ele>
        <time>2012-09-02T11:22:29Z</time>
      </trkpt>
      <trkpt lat="42.88508" lon="0.20552">
        <ele>2112.153809</ele>
        <time>2012-09-02T11:22:41Z</time>
      </trkpt>
      <trkpt lat="42.88506" lon="0.20553">
        <ele>2111.67334</ele>
        <time>2012-09-02T11:22:45Z</time>
      </trkpt>
      <trkpt lat="42.88503" lon="0.20554">
        <ele>2111.192627</ele>
        <time>2012-09-02T11:22:48Z</time>
      </trkpt>
      <trkpt lat="42.88501" lon="0.20551">
        <ele>2111.67334</ele>
        <time>2012-09-02T11:22:50Z</time>
      </trkpt>
      <trkpt lat="42.88498" lon="0.2054">
        <ele>2111.67334</ele>
        <time>2012-09-02T11:23:03Z</time>
      </trkpt>
      <trkpt lat="42.885" lon="0.20529">
        <ele>2112.153809</ele>
        <time>2012-09-02T11:23:16Z</time>
      </trkpt>
      <trkpt lat="42.88502" lon="0.20521">
        <ele>2110.231201</ele>
        <time>2012-09-02T11:23:30Z</time>
      </trkpt>
      <trkpt lat="42.88498" lon="0.20523">
        <ele>2110.231201</ele>
        <time>2012-09-02T11:23:54Z</time>
      </trkpt>
      <trkpt lat="42.88495" lon="0.20521">
        <ele>2110.711914</ele>
        <time>2012-09-02T11:24:08Z</time>
      </trkpt>
      <trkpt lat="42.88485" lon="0.20519">
        <ele>2112.153809</ele>
        <time>2012-09-02T11:24:25Z</time>
      </trkpt>
      <trkpt lat="42.88481" lon="0.2052">
        <ele>2114.076416</ele>
        <time>2012-09-02T11:24:32Z</time>
      </trkpt>
      <trkpt lat="42.88478" lon="0.20519">
        <ele>2115.037842</ele>
        <time>2012-09-02T11:24:48Z</time>
      </trkpt>
      <trkpt lat="42.88475" lon="0.20518">
        <ele>2116.960449</ele>
        <time>2012-09-02T11:24:58Z</time>
      </trkpt>
      <trkpt lat="42.88472" lon="0.20515">
        <ele>2118.883057</ele>
        <time>2012-09-02T11:25:05Z</time>
      </trkpt>
      <trkpt lat="42.88471" lon="0.20517">
        <ele>2119.844238</ele>
        <time>2012-09-02T11:25:36Z</time>
      </trkpt>
      <trkpt lat="42.8847" lon="0.20513">
        <ele>2120.324951</ele>
        <time>2012-09-02T11:26:12Z</time>
      </trkpt>
      <trkpt lat="42.88467" lon="0.20511">
        <ele>2121.766846</ele>
        <time>2012-09-02T11:26:19Z</time>
      </trkpt>
      <trkpt lat="42.88468" lon="0.20506">
        <ele>2124.17041</ele>
        <time>2012-09-02T11:26:31Z</time>
      </trkpt>
      <trkpt lat="42.88473" lon="0.20492">
        <ele>2125.612305</ele>
        <time>2012-09-02T11:26:45Z</time>
      </trkpt>
      <trkpt lat="42.88476" lon="0.20481">
        <ele>2127.054443</ele>
        <time>2012-09-02T11:26:59Z</time>
      </trkpt>
      <trkpt lat="42.8847" lon="0.20482">
        <ele>2128.976807</ele>
        <time>2012-09-02T11:27:14Z</time>
      </trkpt>
      <trkpt lat="42.88467" lon="0.2048">
        <ele>2130.418945</ele>
        <time>2012-09-02T11:27:17Z</time>
      </trkpt>
      <trkpt lat="42.88458" lon="0.20481">
        <ele>2133.302734</ele>
        <time>2012-09-02T11:27:32Z</time>
      </trkpt>
      <trkpt lat="42.88455" lon="0.20476">
        <ele>2133.783447</ele>
        <time>2012-09-02T11:27:48Z</time>
      </trkpt>
      <trkpt lat="42.88454" lon="0.20473">
        <ele>2135.225342</ele>
        <time>2012-09-02T11:28:35Z</time>
      </trkpt>
      <trkpt lat="42.88445" lon="0.20468">
        <ele>2138.590088</ele>
        <time>2012-09-02T11:28:52Z</time>
      </trkpt>
      <trkpt lat="42.88439" lon="0.20461">
        <ele>2141.954834</ele>
        <time>2012-09-02T11:29:06Z</time>
      </trkpt>
      <trkpt lat="42.88441" lon="0.20454">
        <ele>2143.877441</ele>
        <time>2012-09-02T11:29:20Z</time>
      </trkpt>
      <trkpt lat="42.88447" lon="0.20445">
        <ele>2145.800049</ele>
        <time>2012-09-02T11:29:35Z</time>
      </trkpt>
      <trkpt lat="42.88449" lon="0.20443">
        <ele>2147.241943</ele>
        <time>2012-09-02T11:29:38Z</time>
      </trkpt>
      <trkpt lat="42.88452" lon="0.2044">
        <ele>2149.164551</ele>
        <time>2012-09-02T11:29:45Z</time>
      </trkpt>
      <trkpt lat="42.88451" lon="0.20439">
        <ele>2150.125977</ele>
        <time>2012-09-02T11:29:50Z</time>
      </trkpt>
      <trkpt lat="42.88438" lon="0.20438">
        <ele>2151.567871</ele>
        <time>2012-09-02T11:30:04Z</time>
      </trkpt>
      <trkpt lat="42.8843" lon="0.20434">
        <ele>2154.45166</ele>
        <time>2012-09-02T11:30:16Z</time>
      </trkpt>
      <trkpt lat="42.88423" lon="0.20432">
        <ele>2156.374512</ele>
        <time>2012-09-02T11:30:29Z</time>
      </trkpt>
      <trkpt lat="42.88416" lon="0.20427">
        <ele>2160.219727</ele>
        <time>2012-09-02T11:30:48Z</time>
      </trkpt>
      <trkpt lat="42.88416" lon="0.2042">
        <ele>2163.584229</ele>
        <time>2012-09-02T11:31:04Z</time>
      </trkpt>
      <trkpt lat="42.88408" lon="0.20425">
        <ele>2165.987549</ele>
        <time>2012-09-02T11:31:20Z</time>
      </trkpt>
      <trkpt lat="42.88403" lon="0.20436">
        <ele>2164.064941</ele>
        <time>2012-09-02T11:31:34Z</time>
      </trkpt>
      <trkpt lat="42.88402" lon="0.20438">
        <ele>2163.584229</ele>
        <time>2012-09-02T11:31:36Z</time>
      </trkpt>
      <trkpt lat="42.88398" lon="0.20444">
        <ele>2163.10376</ele>
        <time>2012-09-02T11:31:54Z</time>
      </trkpt>
      <trkpt lat="42.88398" lon="0.20448">
        <ele>2164.064941</ele>
        <time>2012-09-02T11:32:19Z</time>
      </trkpt>
      <trkpt lat="42.88394" lon="0.20452">
        <ele>2165.026367</ele>
        <time>2012-09-02T11:33:59Z</time>
      </trkpt>
      <trkpt lat="42.88394" lon="0.20452">
        <ele>2165.50708</ele>
        <time>2012-09-02T11:34:04Z</time>
      </trkpt>
      <trkpt lat="42.88392" lon="0.20455">
        <ele>2166.468262</ele>
        <time>2012-09-02T11:34:29Z</time>
      </trkpt>
      <trkpt lat="42.88391" lon="0.20456">
        <ele>2166.468262</ele>
        <time>2012-09-02T11:34:39Z</time>
      </trkpt>
      <trkpt lat="42.88385" lon="0.20465">
        <ele>2166.948975</ele>
        <time>2012-09-02T11:34:48Z</time>
      </trkpt>
      <trkpt lat="42.88383" lon="0.20469">
        <ele>2165.50708</ele>
        <time>2012-09-02T11:34:51Z</time>
      </trkpt>
      <trkpt lat="42.88384" lon="0.20485">
        <ele>2165.50708</ele>
        <time>2012-09-02T11:35:02Z</time>
      </trkpt>
      <trkpt lat="42.88383" lon="0.20488">
        <ele>2165.50708</ele>
        <time>2012-09-02T11:35:05Z</time>
      </trkpt>
      <trkpt lat="42.88383" lon="0.20492">
        <ele>2165.987549</ele>
        <time>2012-09-02T11:35:08Z</time>
      </trkpt>
      <trkpt lat="42.88381" lon="0.20494">
        <ele>2165.987549</ele>
        <time>2012-09-02T11:35:10Z</time>
      </trkpt>
      <trkpt lat="42.88373" lon="0.20502">
        <ele>2167.429443</ele>
        <time>2012-09-02T11:35:27Z</time>
      </trkpt>
      <trkpt lat="42.88367" lon="0.20506">
        <ele>2170.794189</ele>
        <time>2012-09-02T11:35:36Z</time>
      </trkpt>
      <trkpt lat="42.88366" lon="0.20508">
        <ele>2170.794189</ele>
        <time>2012-09-02T11:35:37Z</time>
      </trkpt>
      <trkpt lat="42.88359" lon="0.20509">
        <ele>2172.236328</ele>
        <time>2012-09-02T11:35:50Z</time>
      </trkpt>
      <trkpt lat="42.88354" lon="0.20508">
        <ele>2174.158936</ele>
        <time>2012-09-02T11:36:02Z</time>
      </trkpt>
      <trkpt lat="42.88351" lon="0.20507">
        <ele>2176.081543</ele>
        <time>2012-09-02T11:36:07Z</time>
      </trkpt>
      <trkpt lat="42.88342" lon="0.20509">
        <ele>2179.446045</ele>
        <time>2012-09-02T11:36:22Z</time>
      </trkpt>
      <trkpt lat="42.88339" lon="0.20513">
        <ele>2179.446045</ele>
        <time>2012-09-02T11:36:27Z</time>
      </trkpt>
      <trkpt lat="42.88338" lon="0.20508">
        <ele>2181.368652</ele>
        <time>2012-09-02T11:36:41Z</time>
      </trkpt>
      <trkpt lat="42.88331" lon="0.20513">
        <ele>2182.810547</ele>
        <time>2012-09-02T11:36:54Z</time>
      </trkpt>
      <trkpt lat="42.88325" lon="0.20513">
        <ele>2184.733398</ele>
        <time>2012-09-02T11:37:03Z</time>
      </trkpt>
      <trkpt lat="42.88313" lon="0.20514">
        <ele>2184.733398</ele>
        <time>2012-09-02T11:37:17Z</time>
      </trkpt>
      <trkpt lat="42.8831" lon="0.20514">
        <ele>2186.655762</ele>
        <time>2012-09-02T11:37:33Z</time>
      </trkpt>
      <trkpt lat="42.88299" lon="0.20511">
        <ele>2186.655762</ele>
        <time>2012-09-02T11:37:58Z</time>
      </trkpt>
      <trkpt lat="42.88284" lon="0.20516">
        <ele>2188.578857</ele>
        <time>2012-09-02T11:38:15Z</time>
      </trkpt>
      <trkpt lat="42.8828" lon="0.20516">
        <ele>2188.098145</ele>
        <time>2012-09-02T11:38:21Z</time>
      </trkpt>
      <trkpt lat="42.88268" lon="0.20519">
        <ele>2189.059326</ele>
        <time>2012-09-02T11:38:34Z</time>
      </trkpt>
      <trkpt lat="42.88265" lon="0.20523">
        <ele>2189.059326</ele>
        <time>2012-09-02T11:38:37Z</time>
      </trkpt>
      <trkpt lat="42.88261" lon="0.20525">
        <ele>2189.540039</ele>
        <time>2012-09-02T11:38:41Z</time>
      </trkpt>
      <trkpt lat="42.88249" lon="0.20534">
        <ele>2189.540039</ele>
        <time>2012-09-02T11:38:56Z</time>
      </trkpt>
      <trkpt lat="42.88246" lon="0.20536">
        <ele>2190.020752</ele>
        <time>2012-09-02T11:38:59Z</time>
      </trkpt>
      <trkpt lat="42.88238" lon="0.20529">
        <ele>2192.904541</ele>
        <time>2012-09-02T11:39:13Z</time>
      </trkpt>
      <trkpt lat="42.88229" lon="0.20522">
        <ele>2195.307861</ele>
        <time>2012-09-02T11:39:27Z</time>
      </trkpt>
      <trkpt lat="42.8822" lon="0.2052">
        <ele>2197.711182</ele>
        <time>2012-09-02T11:39:40Z</time>
      </trkpt>
      <trkpt lat="42.88213" lon="0.20521">
        <ele>2198.672363</ele>
        <time>2012-09-02T11:39:49Z</time>
      </trkpt>
      <trkpt lat="42.88211" lon="0.20523">
        <ele>2199.153076</ele>
        <time>2012-09-02T11:39:52Z</time>
      </trkpt>
      <trkpt lat="42.88208" lon="0.20526">
        <ele>2199.633789</ele>
        <time>2012-09-02T11:39:55Z</time>
      </trkpt>
      <trkpt lat="42.88208" lon="0.20545">
        <ele>2201.075684</ele>
        <time>2012-09-02T11:40:12Z</time>
      </trkpt>
      <trkpt lat="42.88203" lon="0.2055">
        <ele>2202.517578</ele>
        <time>2012-09-02T11:40:28Z</time>
      </trkpt>
      <trkpt lat="42.88203" lon="0.2055">
        <ele>2202.517578</ele>
        <time>2012-09-02T11:41:13Z</time>
      </trkpt>
      <trkpt lat="42.88194" lon="0.20561">
        <ele>2202.998291</ele>
        <time>2012-09-02T11:41:28Z</time>
      </trkpt>
      <trkpt lat="42.88184" lon="0.20571">
        <ele>2203.959717</ele>
        <time>2012-09-02T11:41:44Z</time>
      </trkpt>
      <trkpt lat="42.8818" lon="0.20572">
        <ele>2203.959717</ele>
        <time>2012-09-02T11:41:49Z</time>
      </trkpt>
      <trkpt lat="42.88167" lon="0.20575">
        <ele>2204.44043</ele>
        <time>2012-09-02T11:42:06Z</time>
      </trkpt>
      <trkpt lat="42.8816" lon="0.20571">
        <ele>2206.363037</ele>
        <time>2012-09-02T11:42:18Z</time>
      </trkpt>
      <trkpt lat="42.88151" lon="0.20562">
        <ele>2208.285645</ele>
        <time>2012-09-02T11:42:32Z</time>
      </trkpt>
      <trkpt lat="42.88151" lon="0.20557">
        <ele>2208.766357</ele>
        <time>2012-09-02T11:42:38Z</time>
      </trkpt>
      <trkpt lat="42.88155" lon="0.20547">
        <ele>2211.169678</ele>
        <time>2012-09-02T11:42:50Z</time>
      </trkpt>
      <trkpt lat="42.88158" lon="0.20537">
        <ele>2212.130859</ele>
        <time>2012-09-02T11:43:09Z</time>
      </trkpt>
      <trkpt lat="42.8816" lon="0.20537">
        <ele>2213.092285</ele>
        <time>2012-09-02T11:43:25Z</time>
      </trkpt>
      <trkpt lat="42.8816" lon="0.20535">
        <ele>2212.611572</ele>
        <time>2012-09-02T11:43:44Z</time>
      </trkpt>
      <trkpt lat="42.88159" lon="0.20539">
        <ele>2213.092285</ele>
        <time>2012-09-02T11:44:03Z</time>
      </trkpt>
      <trkpt lat="42.88159" lon="0.20539">
        <ele>2213.092285</ele>
        <time>2012-09-02T11:44:35Z</time>
      </trkpt>
      <trkpt lat="42.88172" lon="0.20527">
        <ele>2206.84375</ele>
        <time>2012-09-02T12:43:41Z</time>
      </trkpt>
      <trkpt lat="42.88161" lon="0.20524">
        <ele>2208.766357</ele>
        <time>2012-09-02T12:44:06Z</time>
      </trkpt>
      <trkpt lat="42.88162" lon="0.20524">
        <ele>2206.363037</ele>
        <time>2012-09-02T12:44:08Z</time>
      </trkpt>
      <trkpt lat="42.88163" lon="0.20524">
        <ele>2207.324463</ele>
        <time>2012-09-02T12:44:34Z</time>
      </trkpt>
      <trkpt lat="42.88163" lon="0.20524">
        <ele>2210.688965</ele>
        <time>2012-09-02T12:45:04Z</time>
      </trkpt>
      <trkpt lat="42.88163" lon="0.20524">
        <ele>2214.053467</ele>
        <time>2012-09-02T12:45:19Z</time>
      </trkpt>
      <trkpt lat="42.88162" lon="0.20529">
        <ele>2215.976074</ele>
        <time>2012-09-02T12:45:49Z</time>
      </trkpt>
      <trkpt lat="42.88166" lon="0.20524">
        <ele>2215.976074</ele>
        <time>2012-09-02T12:46:02Z</time>
      </trkpt>
      <trkpt lat="42.88169" lon="0.20521">
        <ele>2215.976074</ele>
        <time>2012-09-02T12:46:45Z</time>
      </trkpt>
      <trkpt lat="42.88158" lon="0.20528">
        <ele>2217.417969</ele>
        <time>2012-09-02T12:49:44Z</time>
      </trkpt>
      <trkpt lat="42.88157" lon="0.20542">
        <ele>2216.456787</ele>
        <time>2012-09-02T12:49:58Z</time>
      </trkpt>
      <trkpt lat="42.88157" lon="0.20543">
        <ele>2216.456787</ele>
        <time>2012-09-02T12:49:59Z</time>
      </trkpt>
      <trkpt lat="42.88159" lon="0.2056">
        <ele>2213.572754</ele>
        <time>2012-09-02T12:50:15Z</time>
      </trkpt>
      <trkpt lat="42.8816" lon="0.20564">
        <ele>2213.092285</ele>
        <time>2012-09-02T12:50:20Z</time>
      </trkpt>
      <trkpt lat="42.88171" lon="0.20574">
        <ele>2210.688965</ele>
        <time>2012-09-02T12:50:37Z</time>
      </trkpt>
      <trkpt lat="42.88177" lon="0.20575">
        <ele>2209.24707</ele>
        <time>2012-09-02T12:50:53Z</time>
      </trkpt>
      <trkpt lat="42.88191" lon="0.20569">
        <ele>2209.727539</ele>
        <time>2012-09-02T12:51:40Z</time>
      </trkpt>
      <trkpt lat="42.88194" lon="0.20562">
        <ele>2209.727539</ele>
        <time>2012-09-02T12:51:58Z</time>
      </trkpt>
      <trkpt lat="42.88196" lon="0.20559">
        <ele>2209.727539</ele>
        <time>2012-09-02T12:52:06Z</time>
      </trkpt>
      <trkpt lat="42.88203" lon="0.20553">
        <ele>2207.805176</ele>
        <time>2012-09-02T12:52:17Z</time>
      </trkpt>
      <trkpt lat="42.88207" lon="0.20551">
        <ele>2208.285645</ele>
        <time>2012-09-02T12:52:30Z</time>
      </trkpt>
      <trkpt lat="42.88213" lon="0.20548">
        <ele>2207.324463</ele>
        <time>2012-09-02T12:52:40Z</time>
      </trkpt>
      <trkpt lat="42.88216" lon="0.2054">
        <ele>2206.363037</ele>
        <time>2012-09-02T12:52:55Z</time>
      </trkpt>
      <trkpt lat="42.88215" lon="0.20532">
        <ele>2204.44043</ele>
        <time>2012-09-02T12:53:06Z</time>
      </trkpt>
      <trkpt lat="42.88215" lon="0.20531">
        <ele>2204.921143</ele>
        <time>2012-09-02T12:53:07Z</time>
      </trkpt>
      <trkpt lat="42.88221" lon="0.20523">
        <ele>2204.44043</ele>
        <time>2012-09-02T12:53:20Z</time>
      </trkpt>
      <trkpt lat="42.88232" lon="0.20523">
        <ele>2202.036865</ele>
        <time>2012-09-02T12:53:35Z</time>
      </trkpt>
      <trkpt lat="42.88238" lon="0.20525">
        <ele>2200.594971</ele>
        <time>2012-09-02T12:53:49Z</time>
      </trkpt>
      <trkpt lat="42.88243" lon="0.20529">
        <ele>2199.633789</ele>
        <time>2012-09-02T12:54:11Z</time>
      </trkpt>
      <trkpt lat="42.8825" lon="0.20536">
        <ele>2197.230469</ele>
        <time>2012-09-02T12:54:28Z</time>
      </trkpt>
      <trkpt lat="42.88254" lon="0.20536">
        <ele>2195.788574</ele>
        <time>2012-09-02T12:54:35Z</time>
      </trkpt>
      <trkpt lat="42.8826" lon="0.20532">
        <ele>2194.346436</ele>
        <time>2012-09-02T12:54:52Z</time>
      </trkpt>
      <trkpt lat="42.88272" lon="0.20523">
        <ele>2194.827148</ele>
        <time>2012-09-02T12:55:11Z</time>
      </trkpt>
      <trkpt lat="42.88274" lon="0.2052">
        <ele>2194.346436</ele>
        <time>2012-09-02T12:55:15Z</time>
      </trkpt>
      <trkpt lat="42.88278" lon="0.20518">
        <ele>2194.346436</ele>
        <time>2012-09-02T12:55:20Z</time>
      </trkpt>
      <trkpt lat="42.88282" lon="0.20519">
        <ele>2194.346436</ele>
        <time>2012-09-02T12:55:24Z</time>
      </trkpt>
      <trkpt lat="42.8829" lon="0.20522">
        <ele>2193.385254</ele>
        <time>2012-09-02T12:55:36Z</time>
      </trkpt>
      <trkpt lat="42.88298" lon="0.20517">
        <ele>2193.385254</ele>
        <time>2012-09-02T12:55:53Z</time>
      </trkpt>
      <trkpt lat="42.88315" lon="0.20515">
        <ele>2191.943359</ele>
        <time>2012-09-02T12:56:14Z</time>
      </trkpt>
      <trkpt lat="42.88335" lon="0.20512">
        <ele>2190.501221</ele>
        <time>2012-09-02T12:56:38Z</time>
      </trkpt>
      <trkpt lat="42.88343" lon="0.2051">
        <ele>2188.578857</ele>
        <time>2012-09-02T12:56:54Z</time>
      </trkpt>
      <trkpt lat="42.88342" lon="0.2051">
        <ele>2188.098145</ele>
        <time>2012-09-02T12:57:44Z</time>
      </trkpt>
      <trkpt lat="42.8835" lon="0.2051">
        <ele>2185.69458</ele>
        <time>2012-09-02T12:58:07Z</time>
      </trkpt>
      <trkpt lat="42.88357" lon="0.20508">
        <ele>2184.252686</ele>
        <time>2012-09-02T12:58:18Z</time>
      </trkpt>
      <trkpt lat="42.88364" lon="0.20504">
        <ele>2181.368652</ele>
        <time>2012-09-02T12:58:31Z</time>
      </trkpt>
      <trkpt lat="42.88364" lon="0.20508">
        <ele>2179.926758</ele>
        <time>2012-09-02T12:58:42Z</time>
      </trkpt>
      <trkpt lat="42.88371" lon="0.20507">
        <ele>2178.965332</ele>
        <time>2012-09-02T12:59:13Z</time>
      </trkpt>
      <trkpt lat="42.88375" lon="0.20501">
        <ele>2177.523438</ele>
        <time>2012-09-02T12:59:19Z</time>
      </trkpt>
      <trkpt lat="42.8838" lon="0.205">
        <ele>2176.081543</ele>
        <time>2012-09-02T12:59:28Z</time>
      </trkpt>
      <trkpt lat="42.88383" lon="0.20502">
        <ele>2175.120117</ele>
        <time>2012-09-02T12:59:33Z</time>
      </trkpt>
      <trkpt lat="42.88387" lon="0.20499">
        <ele>2174.158936</ele>
        <time>2012-09-02T12:59:37Z</time>
      </trkpt>
      <trkpt lat="42.88391" lon="0.2049">
        <ele>2173.678223</ele>
        <time>2012-09-02T12:59:47Z</time>
      </trkpt>
      <trkpt lat="42.88392" lon="0.20482">
        <ele>2173.197754</ele>
        <time>2012-09-02T12:59:53Z</time>
      </trkpt>
      <trkpt lat="42.88396" lon="0.20459">
        <ele>2174.158936</ele>
        <time>2012-09-02T13:00:12Z</time>
      </trkpt>
      <trkpt lat="42.88401" lon="0.20449">
        <ele>2173.197754</ele>
        <time>2012-09-02T13:00:31Z</time>
      </trkpt>
      <trkpt lat="42.88402" lon="0.20449">
        <ele>2172.236328</ele>
        <time>2012-09-02T13:01:10Z</time>
      </trkpt>
      <trkpt lat="42.88404" lon="0.20438">
        <ele>2171.755371</ele>
        <time>2012-09-02T13:01:38Z</time>
      </trkpt>
      <trkpt lat="42.88407" lon="0.2043">
        <ele>2174.639648</ele>
        <time>2012-09-02T13:01:50Z</time>
      </trkpt>
      <trkpt lat="42.88417" lon="0.20421">
        <ele>2173.197754</ele>
        <time>2012-09-02T13:02:05Z</time>
      </trkpt>
      <trkpt lat="42.8842" lon="0.20424">
        <ele>2170.794189</ele>
        <time>2012-09-02T13:02:20Z</time>
      </trkpt>
      <trkpt lat="42.88421" lon="0.20433">
        <ele>2167.910156</ele>
        <time>2012-09-02T13:02:37Z</time>
      </trkpt>
      <trkpt lat="42.88427" lon="0.20436">
        <ele>2165.987549</ele>
        <time>2012-09-02T13:02:50Z</time>
      </trkpt>
      <trkpt lat="42.88435" lon="0.20439">
        <ele>2164.064941</ele>
        <time>2012-09-02T13:03:03Z</time>
      </trkpt>
      <trkpt lat="42.88446" lon="0.20443">
        <ele>2161.181152</ele>
        <time>2012-09-02T13:03:18Z</time>
      </trkpt>
      <trkpt lat="42.88454" lon="0.20444">
        <ele>2157.81665</ele>
        <time>2012-09-02T13:03:37Z</time>
      </trkpt>
      <trkpt lat="42.88451" lon="0.20451">
        <ele>2154.45166</ele>
        <time>2012-09-02T13:03:50Z</time>
      </trkpt>
      <trkpt lat="42.88446" lon="0.20455">
        <ele>2153.971191</ele>
        <time>2012-09-02T13:03:58Z</time>
      </trkpt>
      <trkpt lat="42.8844" lon="0.20463">
        <ele>2152.529053</ele>
        <time>2012-09-02T13:04:10Z</time>
      </trkpt>
      <trkpt lat="42.88441" lon="0.20465">
        <ele>2151.567871</ele>
        <time>2012-09-02T13:04:12Z</time>
      </trkpt>
      <trkpt lat="42.88442" lon="0.20467">
        <ele>2151.567871</ele>
        <time>2012-09-02T13:04:14Z</time>
      </trkpt>
      <trkpt lat="42.8845" lon="0.20472">
        <ele>2148.203125</ele>
        <time>2012-09-02T13:04:30Z</time>
      </trkpt>
      <trkpt lat="42.88455" lon="0.20475">
        <ele>2146.76123</ele>
        <time>2012-09-02T13:04:45Z</time>
      </trkpt>
      <trkpt lat="42.88456" lon="0.20477">
        <ele>2145.319336</ele>
        <time>2012-09-02T13:04:50Z</time>
      </trkpt>
      <trkpt lat="42.88461" lon="0.20482">
        <ele>2143.396729</ele>
        <time>2012-09-02T13:05:04Z</time>
      </trkpt>
      <trkpt lat="42.88466" lon="0.20493">
        <ele>2140.032227</ele>
        <time>2012-09-02T13:05:19Z</time>
      </trkpt>
      <trkpt lat="42.88466" lon="0.20502">
        <ele>2137.147949</ele>
        <time>2012-09-02T13:05:32Z</time>
      </trkpt>
      <trkpt lat="42.88469" lon="0.2051">
        <ele>2135.225342</ele>
        <time>2012-09-02T13:05:40Z</time>
      </trkpt>
      <trkpt lat="42.88471" lon="0.20513">
        <ele>2133.302734</ele>
        <time>2012-09-02T13:05:52Z</time>
      </trkpt>
      <trkpt lat="42.88476" lon="0.20518">
        <ele>2129.938232</ele>
        <time>2012-09-02T13:06:02Z</time>
      </trkpt>
      <trkpt lat="42.88478" lon="0.20522">
        <ele>2128.015625</ele>
        <time>2012-09-02T13:06:15Z</time>
      </trkpt>
      <trkpt lat="42.88481" lon="0.20525">
        <ele>2125.612305</ele>
        <time>2012-09-02T13:06:28Z</time>
      </trkpt>
      <trkpt lat="42.88482" lon="0.20529">
        <ele>2125.131592</ele>
        <time>2012-09-02T13:06:57Z</time>
      </trkpt>
      <trkpt lat="42.88487" lon="0.20529">
        <ele>2122.728271</ele>
        <time>2012-09-02T13:07:24Z</time>
      </trkpt>
      <trkpt lat="42.88486" lon="0.2053">
        <ele>2123.208984</ele>
        <time>2012-09-02T13:07:52Z</time>
      </trkpt>
      <trkpt lat="42.88493" lon="0.20532">
        <ele>2122.247559</ele>
        <time>2012-09-02T13:08:07Z</time>
      </trkpt>
      <trkpt lat="42.88496" lon="0.20536">
        <ele>2121.766846</ele>
        <time>2012-09-02T13:08:26Z</time>
      </trkpt>
      <trkpt lat="42.88499" lon="0.20539">
        <ele>2122.728271</ele>
        <time>2012-09-02T13:08:45Z</time>
      </trkpt>
      <trkpt lat="42.88501" lon="0.20542">
        <ele>2122.728271</ele>
        <time>2012-09-02T13:09:09Z</time>
      </trkpt>
      <trkpt lat="42.88499" lon="0.20543">
        <ele>2122.728271</ele>
        <time>2012-09-02T13:09:46Z</time>
      </trkpt>
      <trkpt lat="42.88505" lon="0.20551">
        <ele>2123.208984</ele>
        <time>2012-09-02T13:11:55Z</time>
      </trkpt>
      <trkpt lat="42.88508" lon="0.20553">
        <ele>2123.689453</ele>
        <time>2012-09-02T13:12:11Z</time>
      </trkpt>
      <trkpt lat="42.88518" lon="0.20555">
        <ele>2124.651123</ele>
        <time>2012-09-02T13:12:26Z</time>
      </trkpt>
      <trkpt lat="42.88524" lon="0.20567">
        <ele>2123.208984</ele>
        <time>2012-09-02T13:12:45Z</time>
      </trkpt>
      <trkpt lat="42.88523" lon="0.20572">
        <ele>2122.247559</ele>
        <time>2012-09-02T13:12:50Z</time>
      </trkpt>
      <trkpt lat="42.88525" lon="0.20586">
        <ele>2120.805664</ele>
        <time>2012-09-02T13:13:05Z</time>
      </trkpt>
      <trkpt lat="42.8853" lon="0.20605">
        <ele>2119.844238</ele>
        <time>2012-09-02T13:13:25Z</time>
      </trkpt>
      <trkpt lat="42.88534" lon="0.20616">
        <ele>2117.921631</ele>
        <time>2012-09-02T13:13:39Z</time>
      </trkpt>
      <trkpt lat="42.88538" lon="0.20627">
        <ele>2116.960449</ele>
        <time>2012-09-02T13:13:54Z</time>
      </trkpt>
      <trkpt lat="42.88534" lon="0.20631">
        <ele>2116.960449</ele>
        <time>2012-09-02T13:14:12Z</time>
      </trkpt>
      <trkpt lat="42.88533" lon="0.20633">
        <ele>2116.960449</ele>
        <time>2012-09-02T13:14:24Z</time>
      </trkpt>
      <trkpt lat="42.88532" lon="0.2064">
        <ele>2117.440918</ele>
        <time>2012-09-02T13:14:45Z</time>
      </trkpt>
      <trkpt lat="42.88535" lon="0.20646">
        <ele>2117.921631</ele>
        <time>2012-09-02T13:15:06Z</time>
      </trkpt>
      <trkpt lat="42.8854" lon="0.2065">
        <ele>2118.402344</ele>
        <time>2012-09-02T13:15:15Z</time>
      </trkpt>
      <trkpt lat="42.88547" lon="0.20653">
        <ele>2117.921631</ele>
        <time>2012-09-02T13:15:22Z</time>
      </trkpt>
      <trkpt lat="42.8856" lon="0.20653">
        <ele>2117.440918</ele>
        <time>2012-09-02T13:15:39Z</time>
      </trkpt>
      <trkpt lat="42.88565" lon="0.20653">
        <ele>2117.440918</ele>
        <time>2012-09-02T13:15:44Z</time>
      </trkpt>
      <trkpt lat="42.88575" lon="0.2065">
        <ele>2115.999023</ele>
        <time>2012-09-02T13:16:00Z</time>
      </trkpt>
      <trkpt lat="42.88578" lon="0.20642">
        <ele>2115.518555</ele>
        <time>2012-09-02T13:16:12Z</time>
      </trkpt>
      <trkpt lat="42.88587" lon="0.20633">
        <ele>2114.557129</ele>
        <time>2012-09-02T13:16:27Z</time>
      </trkpt>
      <trkpt lat="42.88588" lon="0.20634">
        <ele>2114.557129</ele>
        <time>2012-09-02T13:16:30Z</time>
      </trkpt>
      <trkpt lat="42.88598" lon="0.20637">
        <ele>2115.037842</ele>
        <time>2012-09-02T13:16:42Z</time>
      </trkpt>
      <trkpt lat="42.88601" lon="0.2063">
        <ele>2115.999023</ele>
        <time>2012-09-02T13:17:05Z</time>
      </trkpt>
      <trkpt lat="42.88603" lon="0.20631">
        <ele>2117.440918</ele>
        <time>2012-09-02T13:17:10Z</time>
      </trkpt>
      <trkpt lat="42.88608" lon="0.2063">
        <ele>2118.883057</ele>
        <time>2012-09-02T13:17:28Z</time>
      </trkpt>
      <trkpt lat="42.88612" lon="0.20624">
        <ele>2119.844238</ele>
        <time>2012-09-02T13:17:44Z</time>
      </trkpt>
      <trkpt lat="42.88616" lon="0.20622">
        <ele>2121.286133</ele>
        <time>2012-09-02T13:17:52Z</time>
      </trkpt>
      <trkpt lat="42.88622" lon="0.20617">
        <ele>2122.247559</ele>
        <time>2012-09-02T13:18:02Z</time>
      </trkpt>
      <trkpt lat="42.8863" lon="0.20603">
        <ele>2121.286133</ele>
        <time>2012-09-02T13:18:17Z</time>
      </trkpt>
      <trkpt lat="42.88635" lon="0.206">
        <ele>2119.36377</ele>
        <time>2012-09-02T13:18:34Z</time>
      </trkpt>
      <trkpt lat="42.88642" lon="0.20584">
        <ele>2118.402344</ele>
        <time>2012-09-02T13:19:47Z</time>
      </trkpt>
      <trkpt lat="42.88652" lon="0.2057">
        <ele>2119.36377</ele>
        <time>2012-09-02T13:20:05Z</time>
      </trkpt>
      <trkpt lat="42.88655" lon="0.20565">
        <ele>2117.921631</ele>
        <time>2012-09-02T13:20:14Z</time>
      </trkpt>
      <trkpt lat="42.88664" lon="0.20557">
        <ele>2116.960449</ele>
        <time>2012-09-02T13:20:30Z</time>
      </trkpt>
      <trkpt lat="42.88671" lon="0.20541">
        <ele>2115.999023</ele>
        <time>2012-09-02T13:20:47Z</time>
      </trkpt>
      <trkpt lat="42.88682" lon="0.20536">
        <ele>2117.921631</ele>
        <time>2012-09-02T13:21:03Z</time>
      </trkpt>
      <trkpt lat="42.88691" lon="0.20524">
        <ele>2119.36377</ele>
        <time>2012-09-02T13:21:21Z</time>
      </trkpt>
      <trkpt lat="42.88701" lon="0.20516">
        <ele>2121.286133</ele>
        <time>2012-09-02T13:21:39Z</time>
      </trkpt>
      <trkpt lat="42.88707" lon="0.2052">
        <ele>2120.805664</ele>
        <time>2012-09-02T13:21:55Z</time>
      </trkpt>
      <trkpt lat="42.88718" lon="0.20523">
        <ele>2123.689453</ele>
        <time>2012-09-02T13:22:11Z</time>
      </trkpt>
      <trkpt lat="42.88721" lon="0.20527">
        <ele>2126.57373</ele>
        <time>2012-09-02T13:22:33Z</time>
      </trkpt>
      <trkpt lat="42.88733" lon="0.20536">
        <ele>2128.976807</ele>
        <time>2012-09-02T13:23:18Z</time>
      </trkpt>
      <trkpt lat="42.88734" lon="0.20536">
        <ele>2128.976807</ele>
        <time>2012-09-02T13:23:19Z</time>
      </trkpt>
      <trkpt lat="42.88739" lon="0.20534">
        <ele>2130.899658</ele>
        <time>2012-09-02T13:23:35Z</time>
      </trkpt>
      <trkpt lat="42.88746" lon="0.20523">
        <ele>2131.380127</ele>
        <time>2012-09-02T13:23:50Z</time>
      </trkpt>
      <trkpt lat="42.88748" lon="0.20513">
        <ele>2130.899658</ele>
        <time>2012-09-02T13:24:19Z</time>
      </trkpt>
      <trkpt lat="42.88755" lon="0.20515">
        <ele>2132.822021</ele>
        <time>2012-09-02T13:24:48Z</time>
      </trkpt>
      <trkpt lat="42.88766" lon="0.20518">
        <ele>2130.899658</ele>
        <time>2012-09-02T13:25:08Z</time>
      </trkpt>
      <trkpt lat="42.88768" lon="0.20511">
        <ele>2129.938232</ele>
        <time>2012-09-02T13:25:23Z</time>
      </trkpt>
      <trkpt lat="42.88775" lon="0.20511">
        <ele>2128.015625</ele>
        <time>2012-09-02T13:25:38Z</time>
      </trkpt>
      <trkpt lat="42.88791" lon="0.20514">
        <ele>2128.496338</ele>
        <time>2012-09-02T13:25:59Z</time>
      </trkpt>
      <trkpt lat="42.88803" lon="0.20512">
        <ele>2128.976807</ele>
        <time>2012-09-02T13:26:18Z</time>
      </trkpt>
      <trkpt lat="42.88813" lon="0.20513">
        <ele>2128.015625</ele>
        <time>2012-09-02T13:26:32Z</time>
      </trkpt>
      <trkpt lat="42.88828" lon="0.20514">
        <ele>2130.418945</ele>
        <time>2012-09-02T13:26:56Z</time>
      </trkpt>
      <trkpt lat="42.88837" lon="0.20506">
        <ele>2129.938232</ele>
        <time>2012-09-02T13:27:09Z</time>
      </trkpt>
      <trkpt lat="42.88844" lon="0.20516">
        <ele>2131.380127</ele>
        <time>2012-09-02T13:27:22Z</time>
      </trkpt>
      <trkpt lat="42.88851" lon="0.20511">
        <ele>2130.899658</ele>
        <time>2012-09-02T13:27:29Z</time>
      </trkpt>
      <trkpt lat="42.88865" lon="0.2051">
        <ele>2130.418945</ele>
        <time>2012-09-02T13:27:44Z</time>
      </trkpt>
      <trkpt lat="42.88872" lon="0.20514">
        <ele>2130.418945</ele>
        <time>2012-09-02T13:27:58Z</time>
      </trkpt>
      <trkpt lat="42.88863" lon="0.20518">
        <ele>2129.938232</ele>
        <time>2012-09-02T13:28:13Z</time>
      </trkpt>
      <trkpt lat="42.88867" lon="0.2052">
        <ele>2129.45752</ele>
        <time>2012-09-02T13:29:50Z</time>
      </trkpt>
      <trkpt lat="42.88869" lon="0.2052">
        <ele>2130.418945</ele>
        <time>2012-09-02T13:30:17Z</time>
      </trkpt>
      <trkpt lat="42.88875" lon="0.20515">
        <ele>2129.938232</ele>
        <time>2012-09-02T13:31:19Z</time>
      </trkpt>
      <trkpt lat="42.88882" lon="0.20507">
        <ele>2129.938232</ele>
        <time>2012-09-02T13:31:44Z</time>
      </trkpt>
      <trkpt lat="42.88891" lon="0.20494">
        <ele>2127.534912</ele>
        <time>2012-09-02T13:31:59Z</time>
      </trkpt>
      <trkpt lat="42.88898" lon="0.20485">
        <ele>2125.612305</ele>
        <time>2012-09-02T13:32:13Z</time>
      </trkpt>
      <trkpt lat="42.88894" lon="0.20477">
        <ele>2124.17041</ele>
        <time>2012-09-02T13:32:27Z</time>
      </trkpt>
      <trkpt lat="42.88898" lon="0.2047">
        <ele>2123.689453</ele>
        <time>2012-09-02T13:32:48Z</time>
      </trkpt>
      <trkpt lat="42.88902" lon="0.20452">
        <ele>2124.651123</ele>
        <time>2012-09-02T13:33:06Z</time>
      </trkpt>
      <trkpt lat="42.88901" lon="0.20441">
        <ele>2124.651123</ele>
        <time>2012-09-02T13:33:33Z</time>
      </trkpt>
      <trkpt lat="42.88903" lon="0.20431">
        <ele>2124.651123</ele>
        <time>2012-09-02T13:33:52Z</time>
      </trkpt>
      <trkpt lat="42.88914" lon="0.20421">
        <ele>2123.689453</ele>
        <time>2012-09-02T13:34:07Z</time>
      </trkpt>
      <trkpt lat="42.8892" lon="0.20408">
        <ele>2122.247559</ele>
        <time>2012-09-02T13:34:20Z</time>
      </trkpt>
      <trkpt lat="42.88929" lon="0.20395">
        <ele>2122.728271</ele>
        <time>2012-09-02T13:34:34Z</time>
      </trkpt>
      <trkpt lat="42.88935" lon="0.20384">
        <ele>2123.208984</ele>
        <time>2012-09-02T13:34:46Z</time>
      </trkpt>
      <trkpt lat="42.88936" lon="0.20383">
        <ele>2123.208984</ele>
        <time>2012-09-02T13:34:47Z</time>
      </trkpt>
      <trkpt lat="42.88937" lon="0.2038">
        <ele>2124.651123</ele>
        <time>2012-09-02T13:35:02Z</time>
      </trkpt>
      <trkpt lat="42.88937" lon="0.20389">
        <ele>2126.57373</ele>
        <time>2012-09-02T13:35:21Z</time>
      </trkpt>
      <trkpt lat="42.88941" lon="0.20381">
        <ele>2128.976807</ele>
        <time>2012-09-02T13:35:35Z</time>
      </trkpt>
      <trkpt lat="42.88941" lon="0.20378">
        <ele>2129.45752</ele>
        <time>2012-09-02T13:35:51Z</time>
      </trkpt>
      <trkpt lat="42.88946" lon="0.20376">
        <ele>2131.380127</ele>
        <time>2012-09-02T13:36:19Z</time>
      </trkpt>
      <trkpt lat="42.88956" lon="0.20369">
        <ele>2134.744873</ele>
        <time>2012-09-02T13:36:39Z</time>
      </trkpt>
      <trkpt lat="42.88964" lon="0.20359">
        <ele>2136.186768</ele>
        <time>2012-09-02T13:36:57Z</time>
      </trkpt>
      <trkpt lat="42.88967" lon="0.20352">
        <ele>2137.147949</ele>
        <time>2012-09-02T13:37:07Z</time>
      </trkpt>
      <trkpt lat="42.88971" lon="0.20344">
        <ele>2138.590088</ele>
        <time>2012-09-02T13:37:19Z</time>
      </trkpt>
      <trkpt lat="42.88975" lon="0.20338">
        <ele>2139.55127</ele>
        <time>2012-09-02T13:37:29Z</time>
      </trkpt>
      <trkpt lat="42.88977" lon="0.2033">
        <ele>2141.954834</ele>
        <time>2012-09-02T13:37:45Z</time>
      </trkpt>
      <trkpt lat="42.88979" lon="0.20324">
        <ele>2143.396729</ele>
        <time>2012-09-02T13:37:52Z</time>
      </trkpt>
      <trkpt lat="42.88982" lon="0.20321">
        <ele>2144.838623</ele>
        <time>2012-09-02T13:38:05Z</time>
      </trkpt>
      <trkpt lat="42.88979" lon="0.2031">
        <ele>2146.76123</ele>
        <time>2012-09-02T13:38:19Z</time>
      </trkpt>
      <trkpt lat="42.88979" lon="0.20311">
        <ele>2146.280762</ele>
        <time>2012-09-02T13:39:19Z</time>
      </trkpt>
      <trkpt lat="42.88983" lon="0.20303">
        <ele>2147.722656</ele>
        <time>2012-09-02T13:41:22Z</time>
      </trkpt>
      <trkpt lat="42.88992" lon="0.20293">
        <ele>2147.241943</ele>
        <time>2012-09-02T13:41:37Z</time>
      </trkpt>
      <trkpt lat="42.88998" lon="0.20285">
        <ele>2148.203125</ele>
        <time>2012-09-02T13:41:48Z</time>
      </trkpt>
      <trkpt lat="42.89003" lon="0.20275">
        <ele>2149.164551</ele>
        <time>2012-09-02T13:42:00Z</time>
      </trkpt>
      <trkpt lat="42.89008" lon="0.2027">
        <ele>2149.164551</ele>
        <time>2012-09-02T13:42:19Z</time>
      </trkpt>
      <trkpt lat="42.89007" lon="0.20268">
        <ele>2150.606445</ele>
        <time>2012-09-02T13:42:47Z</time>
      </trkpt>
      <trkpt lat="42.89014" lon="0.2026">
        <ele>2153.009766</ele>
        <time>2012-09-02T13:43:00Z</time>
      </trkpt>
      <trkpt lat="42.8902" lon="0.20252">
        <ele>2154.45166</ele>
        <time>2012-09-02T13:43:13Z</time>
      </trkpt>
      <trkpt lat="42.89027" lon="0.20245">
        <ele>2156.855225</ele>
        <time>2012-09-02T13:43:28Z</time>
      </trkpt>
      <trkpt lat="42.8903" lon="0.20242">
        <ele>2157.81665</ele>
        <time>2012-09-02T13:43:34Z</time>
      </trkpt>
      <trkpt lat="42.89033" lon="0.20241">
        <ele>2157.81665</ele>
        <time>2012-09-02T13:43:37Z</time>
      </trkpt>
      <trkpt lat="42.89039" lon="0.20234">
        <ele>2160.219727</ele>
        <time>2012-09-02T13:43:49Z</time>
      </trkpt>
      <trkpt lat="42.89039" lon="0.20223">
        <ele>2161.661865</ele>
        <time>2012-09-02T13:44:02Z</time>
      </trkpt>
      <trkpt lat="42.89047" lon="0.20218">
        <ele>2162.623047</ele>
        <time>2012-09-02T13:44:17Z</time>
      </trkpt>
      <trkpt lat="42.89054" lon="0.20211">
        <ele>2162.623047</ele>
        <time>2012-09-02T13:44:27Z</time>
      </trkpt>
      <trkpt lat="42.89062" lon="0.20206">
        <ele>2161.181152</ele>
        <time>2012-09-02T13:44:59Z</time>
      </trkpt>
      <trkpt lat="42.89066" lon="0.20197">
        <ele>2159.258545</ele>
        <time>2012-09-02T13:45:09Z</time>
      </trkpt>
      <trkpt lat="42.89067" lon="0.20195">
        <ele>2158.297119</ele>
        <time>2012-09-02T13:45:11Z</time>
      </trkpt>
      <trkpt lat="42.89072" lon="0.20184">
        <ele>2157.81665</ele>
        <time>2012-09-02T13:45:20Z</time>
      </trkpt>
      <trkpt lat="42.89074" lon="0.20171">
        <ele>2159.739014</ele>
        <time>2012-09-02T13:45:33Z</time>
      </trkpt>
      <trkpt lat="42.8908" lon="0.20158">
        <ele>2161.661865</ele>
        <time>2012-09-02T13:45:48Z</time>
      </trkpt>
      <trkpt lat="42.89087" lon="0.20159">
        <ele>2163.584229</ele>
        <time>2012-09-02T13:46:03Z</time>
      </trkpt>
      <trkpt lat="42.89094" lon="0.20153">
        <ele>2164.545654</ele>
        <time>2012-09-02T13:46:14Z</time>
      </trkpt>
      <trkpt lat="42.891" lon="0.20144">
        <ele>2164.545654</ele>
        <time>2012-09-02T13:46:25Z</time>
      </trkpt>
      <trkpt lat="42.89103" lon="0.2014">
        <ele>2164.064941</ele>
        <time>2012-09-02T13:46:29Z</time>
      </trkpt>
      <trkpt lat="42.89102" lon="0.20137">
        <ele>2164.064941</ele>
        <time>2012-09-02T13:46:31Z</time>
      </trkpt>
      <trkpt lat="42.89106" lon="0.2013">
        <ele>2163.584229</ele>
        <time>2012-09-02T13:46:39Z</time>
      </trkpt>
      <trkpt lat="42.89116" lon="0.20128">
        <ele>2162.142334</ele>
        <time>2012-09-02T13:46:53Z</time>
      </trkpt>
      <trkpt lat="42.89116" lon="0.20119">
        <ele>2159.739014</ele>
        <time>2012-09-02T13:47:05Z</time>
      </trkpt>
      <trkpt lat="42.89116" lon="0.20114">
        <ele>2158.777832</ele>
        <time>2012-09-02T13:47:22Z</time>
      </trkpt>
      <trkpt lat="42.8912" lon="0.20111">
        <ele>2157.81665</ele>
        <time>2012-09-02T13:47:39Z</time>
      </trkpt>
      <trkpt lat="42.8912" lon="0.2011">
        <ele>2156.855225</ele>
        <time>2012-09-02T13:48:14Z</time>
      </trkpt>
      <trkpt lat="42.89125" lon="0.20105">
        <ele>2154.45166</ele>
        <time>2012-09-02T13:48:31Z</time>
      </trkpt>
      <trkpt lat="42.89126" lon="0.20102">
        <ele>2154.932373</ele>
        <time>2012-09-02T13:48:56Z</time>
      </trkpt>
      <trkpt lat="42.89131" lon="0.20101">
        <ele>2153.490479</ele>
        <time>2012-09-02T13:49:14Z</time>
      </trkpt>
      <trkpt lat="42.89131" lon="0.20102">
        <ele>2153.490479</ele>
        <time>2012-09-02T13:49:16Z</time>
      </trkpt>
      <trkpt lat="42.89135" lon="0.20099">
        <ele>2151.567871</ele>
        <time>2012-09-02T13:49:34Z</time>
      </trkpt>
      <trkpt lat="42.89136" lon="0.20098">
        <ele>2151.567871</ele>
        <time>2012-09-02T13:50:06Z</time>
      </trkpt>
      <trkpt lat="42.89131" lon="0.20093">
        <ele>2150.125977</ele>
        <time>2012-09-02T13:50:21Z</time>
      </trkpt>
      <trkpt lat="42.89131" lon="0.20085">
        <ele>2148.683838</ele>
        <time>2012-09-02T13:50:35Z</time>
      </trkpt>
      <trkpt lat="42.89132" lon="0.20085">
        <ele>2148.683838</ele>
        <time>2012-09-02T13:51:09Z</time>
      </trkpt>
      <trkpt lat="42.89138" lon="0.20086">
        <ele>2147.722656</ele>
        <time>2012-09-02T13:51:49Z</time>
      </trkpt>
      <trkpt lat="42.89141" lon="0.20085">
        <ele>2145.800049</ele>
        <time>2012-09-02T13:51:59Z</time>
      </trkpt>
      <trkpt lat="42.89151" lon="0.20084">
        <ele>2143.396729</ele>
        <time>2012-09-02T13:52:14Z</time>
      </trkpt>
      <trkpt lat="42.89156" lon="0.20088">
        <ele>2142.435547</ele>
        <time>2012-09-02T13:52:25Z</time>
      </trkpt>
      <trkpt lat="42.8916" lon="0.20091">
        <ele>2140.512695</ele>
        <time>2012-09-02T13:52:36Z</time>
      </trkpt>
      <trkpt lat="42.89161" lon="0.20092">
        <ele>2139.070557</ele>
        <time>2012-09-02T13:52:40Z</time>
      </trkpt>
      <trkpt lat="42.89165" lon="0.20095">
        <ele>2137.147949</ele>
        <time>2012-09-02T13:52:47Z</time>
      </trkpt>
      <trkpt lat="42.89172" lon="0.20097">
        <ele>2134.744873</ele>
        <time>2012-09-02T13:53:01Z</time>
      </trkpt>
      <trkpt lat="42.89181" lon="0.20099">
        <ele>2132.822021</ele>
        <time>2012-09-02T13:53:14Z</time>
      </trkpt>
      <trkpt lat="42.89183" lon="0.201">
        <ele>2132.341553</ele>
        <time>2012-09-02T13:53:16Z</time>
      </trkpt>
      <trkpt lat="42.89198" lon="0.20102">
        <ele>2131.86084</ele>
        <time>2012-09-02T13:53:30Z</time>
      </trkpt>
      <trkpt lat="42.89199" lon="0.20099">
        <ele>2131.380127</ele>
        <time>2012-09-02T13:53:31Z</time>
      </trkpt>
      <trkpt lat="42.89212" lon="0.20095">
        <ele>2132.341553</ele>
        <time>2012-09-02T13:53:45Z</time>
      </trkpt>
      <trkpt lat="42.89218" lon="0.20091">
        <ele>2132.822021</ele>
        <time>2012-09-02T13:53:51Z</time>
      </trkpt>
      <trkpt lat="42.89221" lon="0.20089">
        <ele>2133.302734</ele>
        <time>2012-09-02T13:53:55Z</time>
      </trkpt>
      <trkpt lat="42.89232" lon="0.20087">
        <ele>2133.783447</ele>
        <time>2012-09-02T13:54:11Z</time>
      </trkpt>
      <trkpt lat="42.89236" lon="0.2009">
        <ele>2133.783447</ele>
        <time>2012-09-02T13:54:16Z</time>
      </trkpt>
      <trkpt lat="42.89239" lon="0.20092">
        <ele>2133.783447</ele>
        <time>2012-09-02T13:54:20Z</time>
      </trkpt>
      <trkpt lat="42.89251" lon="0.20091">
        <ele>2132.822021</ele>
        <time>2012-09-02T13:54:34Z</time>
      </trkpt>
      <trkpt lat="42.89254" lon="0.20092">
        <ele>2133.302734</ele>
        <time>2012-09-02T13:54:38Z</time>
      </trkpt>
      <trkpt lat="42.89256" lon="0.20092">
        <ele>2133.302734</ele>
        <time>2012-09-02T13:54:40Z</time>
      </trkpt>
      <trkpt lat="42.89259" lon="0.2009">
        <ele>2133.302734</ele>
        <time>2012-09-02T13:54:43Z</time>
      </trkpt>
      <trkpt lat="42.89266" lon="0.20078">
        <ele>2133.302734</ele>
        <time>2012-09-02T13:54:55Z</time>
      </trkpt>
      <trkpt lat="42.89271" lon="0.20077">
        <ele>2133.783447</ele>
        <time>2012-09-02T13:55:00Z</time>
      </trkpt>
      <trkpt lat="42.89274" lon="0.20074">
        <ele>2132.341553</ele>
        <time>2012-09-02T13:55:07Z</time>
      </trkpt>
      <trkpt lat="42.89273" lon="0.20071">
        <ele>2132.822021</ele>
        <time>2012-09-02T13:55:09Z</time>
      </trkpt>
      <trkpt lat="42.89272" lon="0.20067">
        <ele>2131.86084</ele>
        <time>2012-09-02T13:55:12Z</time>
      </trkpt>
      <trkpt lat="42.89277" lon="0.2005">
        <ele>2128.496338</ele>
        <time>2012-09-02T13:55:29Z</time>
      </trkpt>
      <trkpt lat="42.89272" lon="0.20038">
        <ele>2127.534912</ele>
        <time>2012-09-02T13:55:42Z</time>
      </trkpt>
      <trkpt lat="42.89274" lon="0.20033">
        <ele>2124.651123</ele>
        <time>2012-09-02T13:55:56Z</time>
      </trkpt>
      <trkpt lat="42.89271" lon="0.20027">
        <ele>2123.689453</ele>
        <time>2012-09-02T13:56:23Z</time>
      </trkpt>
      <trkpt lat="42.89277" lon="0.20025">
        <ele>2122.247559</ele>
        <time>2012-09-02T13:56:47Z</time>
      </trkpt>
      <trkpt lat="42.89283" lon="0.20026">
        <ele>2120.324951</ele>
        <time>2012-09-02T13:56:54Z</time>
      </trkpt>
      <trkpt lat="42.89282" lon="0.20017">
        <ele>2117.440918</ele>
        <time>2012-09-02T13:57:06Z</time>
      </trkpt>
      <trkpt lat="42.89278" lon="0.20013">
        <ele>2115.999023</ele>
        <time>2012-09-02T13:57:17Z</time>
      </trkpt>
      <trkpt lat="42.89283" lon="0.20008">
        <ele>2113.595703</ele>
        <time>2012-09-02T13:57:28Z</time>
      </trkpt>
      <trkpt lat="42.89289" lon="0.20003">
        <ele>2110.231201</ele>
        <time>2012-09-02T13:57:43Z</time>
      </trkpt>
      <trkpt lat="42.89291" lon="0.20005">
        <ele>2109.27002</ele>
        <time>2012-09-02T13:57:52Z</time>
      </trkpt>
      <trkpt lat="42.89294" lon="0.20003">
        <ele>2108.789307</ele>
        <time>2012-09-02T13:58:35Z</time>
      </trkpt>
      <trkpt lat="42.89298" lon="0.2">
        <ele>2107.827881</ele>
        <time>2012-09-02T13:58:42Z</time>
      </trkpt>
      <trkpt lat="42.89298" lon="0.19997">
        <ele>2106.385742</ele>
        <time>2012-09-02T13:58:44Z</time>
      </trkpt>
      <trkpt lat="42.89299" lon="0.19992">
        <ele>2106.385742</ele>
        <time>2012-09-02T13:58:49Z</time>
      </trkpt>
      <trkpt lat="42.89291" lon="0.19973">
        <ele>2103.501953</ele>
        <time>2012-09-02T13:59:04Z</time>
      </trkpt>
      <trkpt lat="42.8929" lon="0.19967">
        <ele>2103.982666</ele>
        <time>2012-09-02T13:59:08Z</time>
      </trkpt>
      <trkpt lat="42.89285" lon="0.19958">
        <ele>2103.982666</ele>
        <time>2012-09-02T13:59:17Z</time>
      </trkpt>
      <trkpt lat="42.8928" lon="0.19955">
        <ele>2103.501953</ele>
        <time>2012-09-02T13:59:22Z</time>
      </trkpt>
      <trkpt lat="42.89275" lon="0.19951">
        <ele>2101.579346</ele>
        <time>2012-09-02T13:59:39Z</time>
      </trkpt>
      <trkpt lat="42.89271" lon="0.19946">
        <ele>2100.137451</ele>
        <time>2012-09-02T14:00:48Z</time>
      </trkpt>
      <trkpt lat="42.89274" lon="0.19939">
        <ele>2098.2146</ele>
        <time>2012-09-02T14:01:31Z</time>
      </trkpt>
      <trkpt lat="42.89276" lon="0.19925">
        <ele>2095.330811</ele>
        <time>2012-09-02T14:01:49Z</time>
      </trkpt>
      <trkpt lat="42.89277" lon="0.19914">
        <ele>2093.408203</ele>
        <time>2012-09-02T14:02:03Z</time>
      </trkpt>
      <trkpt lat="42.89277" lon="0.19914">
        <ele>2092.92749</ele>
        <time>2012-09-02T14:02:57Z</time>
      </trkpt>
      <trkpt lat="42.89271" lon="0.19898">
        <ele>2092.92749</ele>
        <time>2012-09-02T14:03:15Z</time>
      </trkpt>
      <trkpt lat="42.89264" lon="0.19886">
        <ele>2093.408203</ele>
        <time>2012-09-02T14:03:37Z</time>
      </trkpt>
      <trkpt lat="42.89254" lon="0.19875">
        <ele>2091.485352</ele>
        <time>2012-09-02T14:03:53Z</time>
      </trkpt>
      <trkpt lat="42.89245" lon="0.19864">
        <ele>2088.601563</ele>
        <time>2012-09-02T14:04:04Z</time>
      </trkpt>
      <trkpt lat="42.89237" lon="0.19847">
        <ele>2087.640137</ele>
        <time>2012-09-02T14:04:17Z</time>
      </trkpt>
      <trkpt lat="42.89235" lon="0.19842">
        <ele>2086.198242</ele>
        <time>2012-09-02T14:04:30Z</time>
      </trkpt>
      <trkpt lat="42.89234" lon="0.19833">
        <ele>2084.756348</ele>
        <time>2012-09-02T14:05:03Z</time>
      </trkpt>
      <trkpt lat="42.89239" lon="0.19828">
        <ele>2083.794922</ele>
        <time>2012-09-02T14:05:08Z</time>
      </trkpt>
      <trkpt lat="42.89243" lon="0.19819">
        <ele>2083.314209</ele>
        <time>2012-09-02T14:05:15Z</time>
      </trkpt>
      <trkpt lat="42.89247" lon="0.19804">
        <ele>2083.314209</ele>
        <time>2012-09-02T14:05:26Z</time>
      </trkpt>
      <trkpt lat="42.89249" lon="0.19802">
        <ele>2083.314209</ele>
        <time>2012-09-02T14:05:29Z</time>
      </trkpt>
      <trkpt lat="42.89262" lon="0.19789">
        <ele>2080.911133</ele>
        <time>2012-09-02T14:05:46Z</time>
      </trkpt>
      <trkpt lat="42.89268" lon="0.19785">
        <ele>2081.391602</ele>
        <time>2012-09-02T14:05:55Z</time>
      </trkpt>
      <trkpt lat="42.89274" lon="0.1978">
        <ele>2080.43042</ele>
        <time>2012-09-02T14:06:02Z</time>
      </trkpt>
      <trkpt lat="42.89276" lon="0.19775">
        <ele>2080.43042</ele>
        <time>2012-09-02T14:06:06Z</time>
      </trkpt>
      <trkpt lat="42.89275" lon="0.19772">
        <ele>2080.43042</ele>
        <time>2012-09-02T14:06:08Z</time>
      </trkpt>
      <trkpt lat="42.89282" lon="0.19756">
        <ele>2080.43042</ele>
        <time>2012-09-02T14:06:22Z</time>
      </trkpt>
      <trkpt lat="42.89284" lon="0.19755">
        <ele>2079.949707</ele>
        <time>2012-09-02T14:06:24Z</time>
      </trkpt>
      <trkpt lat="42.89288" lon="0.19751">
        <ele>2080.911133</ele>
        <time>2012-09-02T14:06:30Z</time>
      </trkpt>
      <trkpt lat="42.89292" lon="0.19746">
        <ele>2079.468994</ele>
        <time>2012-09-02T14:06:36Z</time>
      </trkpt>
      <trkpt lat="42.89303" lon="0.1974">
        <ele>2077.065918</ele>
        <time>2012-09-02T14:06:50Z</time>
      </trkpt>
      <trkpt lat="42.89309" lon="0.19741">
        <ele>2074.181641</ele>
        <time>2012-09-02T14:07:04Z</time>
      </trkpt>
      <trkpt lat="42.89312" lon="0.19746">
        <ele>2073.220459</ele>
        <time>2012-09-02T14:07:16Z</time>
      </trkpt>
      <trkpt lat="42.89315" lon="0.19751">
        <ele>2072.259033</ele>
        <time>2012-09-02T14:07:21Z</time>
      </trkpt>
      <trkpt lat="42.89323" lon="0.1975">
        <ele>2069.375244</ele>
        <time>2012-09-02T14:07:37Z</time>
      </trkpt>
      <trkpt lat="42.89328" lon="0.19755">
        <ele>2067.933105</ele>
        <time>2012-09-02T14:07:47Z</time>
      </trkpt>
      <trkpt lat="42.89329" lon="0.19753">
        <ele>2066.971924</ele>
        <time>2012-09-02T14:07:49Z</time>
      </trkpt>
      <trkpt lat="42.8933" lon="0.1975">
        <ele>2066.491211</ele>
        <time>2012-09-02T14:07:51Z</time>
      </trkpt>
      <trkpt lat="42.89333" lon="0.19742">
        <ele>2064.087891</ele>
        <time>2012-09-02T14:08:04Z</time>
      </trkpt>
      <trkpt lat="42.89335" lon="0.19743">
        <ele>2063.126709</ele>
        <time>2012-09-02T14:08:06Z</time>
      </trkpt>
      <trkpt lat="42.8934" lon="0.19741">
        <ele>2062.645996</ele>
        <time>2012-09-02T14:08:10Z</time>
      </trkpt>
      <trkpt lat="42.89348" lon="0.19742">
        <ele>2060.723389</ele>
        <time>2012-09-02T14:08:17Z</time>
      </trkpt>
      <trkpt lat="42.89354" lon="0.19742">
        <ele>2060.723389</ele>
        <time>2012-09-02T14:08:24Z</time>
      </trkpt>
      <trkpt lat="42.89355" lon="0.19741">
        <ele>2060.723389</ele>
        <time>2012-09-02T14:08:27Z</time>
      </trkpt>
      <trkpt lat="42.89366" lon="0.19732">
        <ele>2061.684814</ele>
        <time>2012-09-02T14:08:41Z</time>
      </trkpt>
      <trkpt lat="42.89374" lon="0.19728">
        <ele>2062.645996</ele>
        <time>2012-09-02T14:08:56Z</time>
      </trkpt>
      <trkpt lat="42.8938" lon="0.19728">
        <ele>2061.684814</ele>
        <time>2012-09-02T14:09:13Z</time>
      </trkpt>
      <trkpt lat="42.89387" lon="0.19727">
        <ele>2059.761719</ele>
        <time>2012-09-02T14:09:25Z</time>
      </trkpt>
      <trkpt lat="42.89389" lon="0.19726">
        <ele>2058.800537</ele>
        <time>2012-09-02T14:09:29Z</time>
      </trkpt>
      <trkpt lat="42.89393" lon="0.19722">
        <ele>2057.839355</ele>
        <time>2012-09-02T14:09:36Z</time>
      </trkpt>
      <trkpt lat="42.89399" lon="0.19715">
        <ele>2057.839355</ele>
        <time>2012-09-02T14:09:45Z</time>
      </trkpt>
      <trkpt lat="42.89403" lon="0.1971">
        <ele>2057.839355</ele>
        <time>2012-09-02T14:10:01Z</time>
      </trkpt>
      <trkpt lat="42.89406" lon="0.19714">
        <ele>2057.358643</ele>
        <time>2012-09-02T14:10:16Z</time>
      </trkpt>
      <trkpt lat="42.89407" lon="0.19717">
        <ele>2057.358643</ele>
        <time>2012-09-02T14:10:19Z</time>
      </trkpt>
      <trkpt lat="42.89413" lon="0.19721">
        <ele>2055.916504</ele>
        <time>2012-09-02T14:10:29Z</time>
      </trkpt>
      <trkpt lat="42.89418" lon="0.19731">
        <ele>2053.513428</ele>
        <time>2012-09-02T14:10:38Z</time>
      </trkpt>
      <trkpt lat="42.8942" lon="0.19733">
        <ele>2053.032715</ele>
        <time>2012-09-02T14:10:41Z</time>
      </trkpt>
      <trkpt lat="42.89423" lon="0.19731">
        <ele>2052.552002</ele>
        <time>2012-09-02T14:10:57Z</time>
      </trkpt>
      <trkpt lat="42.89428" lon="0.19731">
        <ele>2053.032715</ele>
        <time>2012-09-02T14:11:06Z</time>
      </trkpt>
      <trkpt lat="42.89431" lon="0.19733">
        <ele>2053.032715</ele>
        <time>2012-09-02T14:11:12Z</time>
      </trkpt>
      <trkpt lat="42.89436" lon="0.19745">
        <ele>2051.59082</ele>
        <time>2012-09-02T14:11:30Z</time>
      </trkpt>
      <trkpt lat="42.89445" lon="0.19757">
        <ele>2050.148926</ele>
        <time>2012-09-02T14:11:46Z</time>
      </trkpt>
      <trkpt lat="42.89447" lon="0.19765">
        <ele>2049.1875</ele>
        <time>2012-09-02T14:11:59Z</time>
      </trkpt>
      <trkpt lat="42.8945" lon="0.1977">
        <ele>2047.745605</ele>
        <time>2012-09-02T14:12:05Z</time>
      </trkpt>
      <trkpt lat="42.89462" lon="0.19777">
        <ele>2046.78418</ele>
        <time>2012-09-02T14:12:22Z</time>
      </trkpt>
      <trkpt lat="42.89467" lon="0.19784">
        <ele>2047.264893</ele>
        <time>2012-09-02T14:12:29Z</time>
      </trkpt>
      <trkpt lat="42.89474" lon="0.1979">
        <ele>2047.745605</ele>
        <time>2012-09-02T14:12:44Z</time>
      </trkpt>
      <trkpt lat="42.89479" lon="0.19804">
        <ele>2046.303711</ele>
        <time>2012-09-02T14:12:59Z</time>
      </trkpt>
      <trkpt lat="42.89491" lon="0.19813">
        <ele>2048.706787</ele>
        <time>2012-09-02T14:13:14Z</time>
      </trkpt>
      <trkpt lat="42.89496" lon="0.19819">
        <ele>2047.264893</ele>
        <time>2012-09-02T14:13:33Z</time>
      </trkpt>
      <trkpt lat="42.89512" lon="0.19823">
        <ele>2046.78418</ele>
        <time>2012-09-02T14:13:48Z</time>
      </trkpt>
      <trkpt lat="42.89521" lon="0.19831">
        <ele>2046.78418</ele>
        <time>2012-09-02T14:14:02Z</time>
      </trkpt>
      <trkpt lat="42.89526" lon="0.19833">
        <ele>2045.342285</ele>
        <time>2012-09-02T14:14:21Z</time>
      </trkpt>
      <trkpt lat="42.89533" lon="0.19835">
        <ele>2045.342285</ele>
        <time>2012-09-02T14:14:39Z</time>
      </trkpt>
      <trkpt lat="42.89537" lon="0.19837">
        <ele>2046.303711</ele>
        <time>2012-09-02T14:15:18Z</time>
      </trkpt>
      <trkpt lat="42.89544" lon="0.19845">
        <ele>2046.78418</ele>
        <time>2012-09-02T14:16:26Z</time>
      </trkpt>
      <trkpt lat="42.89556" lon="0.19853">
        <ele>2046.303711</ele>
        <time>2012-09-02T14:16:41Z</time>
      </trkpt>
      <trkpt lat="42.89562" lon="0.19856">
        <ele>2046.78418</ele>
        <time>2012-09-02T14:16:49Z</time>
      </trkpt>
      <trkpt lat="42.89564" lon="0.19856">
        <ele>2048.226074</ele>
        <time>2012-09-02T14:16:51Z</time>
      </trkpt>
      <trkpt lat="42.89565" lon="0.19857">
        <ele>2046.78418</ele>
        <time>2012-09-02T14:16:53Z</time>
      </trkpt>
      <trkpt lat="42.89575" lon="0.19856">
        <ele>2046.78418</ele>
        <time>2012-09-02T14:17:07Z</time>
      </trkpt>
      <trkpt lat="42.89584" lon="0.19858">
        <ele>2046.78418</ele>
        <time>2012-09-02T14:17:23Z</time>
      </trkpt>
      <trkpt lat="42.89588" lon="0.19862">
        <ele>2045.822998</ele>
        <time>2012-09-02T14:17:32Z</time>
      </trkpt>
      <trkpt lat="42.89594" lon="0.19866">
        <ele>2046.303711</ele>
        <time>2012-09-02T14:17:47Z</time>
      </trkpt>
      <trkpt lat="42.896" lon="0.19871">
        <ele>2046.303711</ele>
        <time>2012-09-02T14:18:03Z</time>
      </trkpt>
      <trkpt lat="42.89607" lon="0.19881">
        <ele>2045.342285</ele>
        <time>2012-09-02T14:18:18Z</time>
      </trkpt>
      <trkpt lat="42.8961" lon="0.19884">
        <ele>2045.822998</ele>
        <time>2012-09-02T14:18:28Z</time>
      </trkpt>
      <trkpt lat="42.89619" lon="0.19894">
        <ele>2046.78418</ele>
        <time>2012-09-02T14:18:46Z</time>
      </trkpt>
      <trkpt lat="42.89622" lon="0.199">
        <ele>2047.745605</ele>
        <time>2012-09-02T14:18:55Z</time>
      </trkpt>
      <trkpt lat="42.89623" lon="0.19903">
        <ele>2046.78418</ele>
        <time>2012-09-02T14:18:57Z</time>
      </trkpt>
      <trkpt lat="42.89625" lon="0.19914">
        <ele>2047.264893</ele>
        <time>2012-09-02T14:19:13Z</time>
      </trkpt>
      <trkpt lat="42.89627" lon="0.1992">
        <ele>2046.303711</ele>
        <time>2012-09-02T14:19:19Z</time>
      </trkpt>
      <trkpt lat="42.89634" lon="0.19938">
        <ele>2046.78418</ele>
        <time>2012-09-02T14:19:33Z</time>
      </trkpt>
      <trkpt lat="42.89642" lon="0.1995">
        <ele>2048.226074</ele>
        <time>2012-09-02T14:19:49Z</time>
      </trkpt>
      <trkpt lat="42.89642" lon="0.19958">
        <ele>2046.78418</ele>
        <time>2012-09-02T14:19:55Z</time>
      </trkpt>
      <trkpt lat="42.89643" lon="0.19966">
        <ele>2047.264893</ele>
        <time>2012-09-02T14:20:01Z</time>
      </trkpt>
      <trkpt lat="42.89649" lon="0.19978">
        <ele>2046.78418</ele>
        <time>2012-09-02T14:20:10Z</time>
      </trkpt>
      <trkpt lat="42.89657" lon="0.19997">
        <ele>2046.303711</ele>
        <time>2012-09-02T14:20:28Z</time>
      </trkpt>
      <trkpt lat="42.89656" lon="0.20001">
        <ele>2044.380859</ele>
        <time>2012-09-02T14:20:37Z</time>
      </trkpt>
      <trkpt lat="42.89654" lon="0.20008">
        <ele>2043.419434</ele>
        <time>2012-09-02T14:20:45Z</time>
      </trkpt>
      <trkpt lat="42.89656" lon="0.20015">
        <ele>2041.977539</ele>
        <time>2012-09-02T14:20:49Z</time>
      </trkpt>
      <trkpt lat="42.89661" lon="0.20024">
        <ele>2040.5354</ele>
        <time>2012-09-02T14:20:56Z</time>
      </trkpt>
      <trkpt lat="42.89664" lon="0.20037">
        <ele>2037.651611</ele>
        <time>2012-09-02T14:21:11Z</time>
      </trkpt>
      <trkpt lat="42.89663" lon="0.20041">
        <ele>2036.209717</ele>
        <time>2012-09-02T14:21:15Z</time>
      </trkpt>
      <trkpt lat="42.89665" lon="0.20046">
        <ele>2035.248291</ele>
        <time>2012-09-02T14:21:20Z</time>
      </trkpt>
      <trkpt lat="42.89679" lon="0.20038">
        <ele>2034.767822</ele>
        <time>2012-09-02T14:21:34Z</time>
      </trkpt>
      <trkpt lat="42.8968" lon="0.20037">
        <ele>2034.767822</ele>
        <time>2012-09-02T14:21:35Z</time>
      </trkpt>
      <trkpt lat="42.89683" lon="0.20035">
        <ele>2035.248291</ele>
        <time>2012-09-02T14:21:42Z</time>
      </trkpt>
      <trkpt lat="42.89698" lon="0.20032">
        <ele>2032.844971</ele>
        <time>2012-09-02T14:21:55Z</time>
      </trkpt>
      <trkpt lat="42.89712" lon="0.20024">
        <ele>2031.403076</ele>
        <time>2012-09-02T14:22:11Z</time>
      </trkpt>
      <trkpt lat="42.89719" lon="0.20022">
        <ele>2029.480469</ele>
        <time>2012-09-02T14:22:18Z</time>
      </trkpt>
      <trkpt lat="42.89737" lon="0.20014">
        <ele>2029.480469</ele>
        <time>2012-09-02T14:22:33Z</time>
      </trkpt>
      <trkpt lat="42.89752" lon="0.20015">
        <ele>2028.038574</ele>
        <time>2012-09-02T14:22:47Z</time>
      </trkpt>
      <trkpt lat="42.89759" lon="0.20021">
        <ele>2025.63501</ele>
        <time>2012-09-02T14:23:03Z</time>
      </trkpt>
      <trkpt lat="42.89764" lon="0.20024">
        <ele>2022.270508</ele>
        <time>2012-09-02T14:23:12Z</time>
      </trkpt>
      <trkpt lat="42.89764" lon="0.20025">
        <ele>2022.270508</ele>
        <time>2012-09-02T14:23:13Z</time>
      </trkpt>
      <trkpt lat="42.89766" lon="0.20026">
        <ele>2021.789795</ele>
        <time>2012-09-02T14:23:16Z</time>
      </trkpt>
      <trkpt lat="42.89769" lon="0.20028">
        <ele>2019.867188</ele>
        <time>2012-09-02T14:23:27Z</time>
      </trkpt>
      <trkpt lat="42.89782" lon="0.20035">
        <ele>2015.541504</ele>
        <time>2012-09-02T14:23:41Z</time>
      </trkpt>
      <trkpt lat="42.89788" lon="0.20037">
        <ele>2014.099365</ele>
        <time>2012-09-02T14:23:55Z</time>
      </trkpt>
      <trkpt lat="42.89803" lon="0.20046">
        <ele>2011.215332</ele>
        <time>2012-09-02T14:24:17Z</time>
      </trkpt>
      <trkpt lat="42.89818" lon="0.20052">
        <ele>2007.370117</ele>
        <time>2012-09-02T14:24:30Z</time>
      </trkpt>
      <trkpt lat="42.89825" lon="0.20052">
        <ele>2005.927979</ele>
        <time>2012-09-02T14:24:36Z</time>
      </trkpt>
      <trkpt lat="42.89829" lon="0.20055">
        <ele>2004.966797</ele>
        <time>2012-09-02T14:24:41Z</time>
      </trkpt>
      <trkpt lat="42.8984" lon="0.2006">
        <ele>2001.121582</ele>
        <time>2012-09-02T14:24:53Z</time>
      </trkpt>
      <trkpt lat="42.8985" lon="0.20064">
        <ele>1998.237549</ele>
        <time>2012-09-02T14:25:05Z</time>
      </trkpt>
      <trkpt lat="42.89862" lon="0.20067">
        <ele>1996.315186</ele>
        <time>2012-09-02T14:25:15Z</time>
      </trkpt>
      <trkpt lat="42.89873" lon="0.20063">
        <ele>1995.353516</ele>
        <time>2012-09-02T14:25:32Z</time>
      </trkpt>
      <trkpt lat="42.89873" lon="0.20062">
        <ele>1994.872803</ele>
        <time>2012-09-02T14:25:50Z</time>
      </trkpt>
      <trkpt lat="42.89879" lon="0.20067">
        <ele>1991.508301</ele>
        <time>2012-09-02T14:26:08Z</time>
      </trkpt>
      <trkpt lat="42.89884" lon="0.20073">
        <ele>1988.143799</ele>
        <time>2012-09-02T14:26:17Z</time>
      </trkpt>
      <trkpt lat="42.89882" lon="0.20079">
        <ele>1986.70166</ele>
        <time>2012-09-02T14:26:24Z</time>
      </trkpt>
      <trkpt lat="42.89881" lon="0.20081">
        <ele>1986.221191</ele>
        <time>2012-09-02T14:26:26Z</time>
      </trkpt>
      <trkpt lat="42.89876" lon="0.20092">
        <ele>1982.856445</ele>
        <time>2012-09-02T14:26:40Z</time>
      </trkpt>
      <trkpt lat="42.89872" lon="0.20104">
        <ele>1979.972412</ele>
        <time>2012-09-02T14:26:51Z</time>
      </trkpt>
      <trkpt lat="42.89871" lon="0.20107">
        <ele>1978.530518</ele>
        <time>2012-09-02T14:27:24Z</time>
      </trkpt>
      <trkpt lat="42.8987" lon="0.20113">
        <ele>1976.60791</ele>
        <time>2012-09-02T14:28:43Z</time>
      </trkpt>
      <trkpt lat="42.89869" lon="0.20121">
        <ele>1974.685303</ele>
        <time>2012-09-02T14:28:49Z</time>
      </trkpt>
      <trkpt lat="42.89869" lon="0.20129">
        <ele>1973.243408</ele>
        <time>2012-09-02T14:28:54Z</time>
      </trkpt>
      <trkpt lat="42.8986" lon="0.20141">
        <ele>1970.359375</ele>
        <time>2012-09-02T14:29:05Z</time>
      </trkpt>
      <trkpt lat="42.8986" lon="0.20155">
        <ele>1968.436768</ele>
        <time>2012-09-02T14:29:15Z</time>
      </trkpt>
      <trkpt lat="42.8986" lon="0.20161">
        <ele>1966.51416</ele>
        <time>2012-09-02T14:29:19Z</time>
      </trkpt>
      <trkpt lat="42.89861" lon="0.20167">
        <ele>1966.033447</ele>
        <time>2012-09-02T14:29:23Z</time>
      </trkpt>
      <trkpt lat="42.89866" lon="0.20189">
        <ele>1965.072266</ele>
        <time>2012-09-02T14:29:37Z</time>
      </trkpt>
      <trkpt lat="42.8987" lon="0.20192">
        <ele>1965.552979</ele>
        <time>2012-09-02T14:29:41Z</time>
      </trkpt>
      <trkpt lat="42.89882" lon="0.20209">
        <ele>1962.668701</ele>
        <time>2012-09-02T14:29:56Z</time>
      </trkpt>
      <trkpt lat="42.89894" lon="0.20225">
        <ele>1961.226807</ele>
        <time>2012-09-02T14:30:11Z</time>
      </trkpt>
      <trkpt lat="42.89895" lon="0.20228">
        <ele>1960.746094</ele>
        <time>2012-09-02T14:30:13Z</time>
      </trkpt>
      <trkpt lat="42.89908" lon="0.20239">
        <ele>1960.746094</ele>
        <time>2012-09-02T14:30:27Z</time>
      </trkpt>
      <trkpt lat="42.8992" lon="0.20259">
        <ele>1960.265381</ele>
        <time>2012-09-02T14:30:42Z</time>
      </trkpt>
      <trkpt lat="42.89921" lon="0.20261">
        <ele>1959.304199</ele>
        <time>2012-09-02T14:30:44Z</time>
      </trkpt>
      <trkpt lat="42.89942" lon="0.20276">
        <ele>1957.862305</ele>
        <time>2012-09-02T14:31:03Z</time>
      </trkpt>
      <trkpt lat="42.89943" lon="0.20277">
        <ele>1957.381592</ele>
        <time>2012-09-02T14:31:04Z</time>
      </trkpt>
      <trkpt lat="42.89948" lon="0.20284">
        <ele>1957.381592</ele>
        <time>2012-09-02T14:31:10Z</time>
      </trkpt>
      <trkpt lat="42.89951" lon="0.20292">
        <ele>1956.420166</ele>
        <time>2012-09-02T14:31:16Z</time>
      </trkpt>
      <trkpt lat="42.89952" lon="0.20303">
        <ele>1954.978271</ele>
        <time>2012-09-02T14:31:23Z</time>
      </trkpt>
      <trkpt lat="42.89959" lon="0.20322">
        <ele>1952.574951</ele>
        <time>2012-09-02T14:31:37Z</time>
      </trkpt>
      <trkpt lat="42.89961" lon="0.20334">
        <ele>1950.171875</ele>
        <time>2012-09-02T14:31:49Z</time>
      </trkpt>
      <trkpt lat="42.89966" lon="0.20355">
        <ele>1947.287598</ele>
        <time>2012-09-02T14:32:02Z</time>
      </trkpt>
      <trkpt lat="42.89969" lon="0.20365">
        <ele>1944.884277</ele>
        <time>2012-09-02T14:32:09Z</time>
      </trkpt>
      <trkpt lat="42.89976" lon="0.20386">
        <ele>1941.519775</ele>
        <time>2012-09-02T14:32:22Z</time>
      </trkpt>
      <trkpt lat="42.89978" lon="0.20389">
        <ele>1941.519775</ele>
        <time>2012-09-02T14:32:24Z</time>
      </trkpt>
      <trkpt lat="42.89983" lon="0.20407">
        <ele>1937.674561</ele>
        <time>2012-09-02T14:32:39Z</time>
      </trkpt>
      <trkpt lat="42.89988" lon="0.20413">
        <ele>1936.232666</ele>
        <time>2012-09-02T14:32:45Z</time>
      </trkpt>
      <trkpt lat="42.89988" lon="0.20413">
        <ele>1935.751953</ele>
        <time>2012-09-02T14:32:46Z</time>
      </trkpt>
      <trkpt lat="42.8999" lon="0.20415">
        <ele>1935.751953</ele>
        <time>2012-09-02T14:32:48Z</time>
      </trkpt>
      <trkpt lat="42.89996" lon="0.20421">
        <ele>1934.790771</ele>
        <time>2012-09-02T14:32:54Z</time>
      </trkpt>
      <trkpt lat="42.89999" lon="0.20424">
        <ele>1934.310059</ele>
        <time>2012-09-02T14:32:57Z</time>
      </trkpt>
      <trkpt lat="42.90006" lon="0.20432">
        <ele>1932.86792</ele>
        <time>2012-09-02T14:33:06Z</time>
      </trkpt>
      <trkpt lat="42.90006" lon="0.20435">
        <ele>1931.425781</ele>
        <time>2012-09-02T14:33:08Z</time>
      </trkpt>
      <trkpt lat="42.90008" lon="0.20437">
        <ele>1931.425781</ele>
        <time>2012-09-02T14:33:10Z</time>
      </trkpt>
      <trkpt lat="42.90016" lon="0.20436">
        <ele>1927.100098</ele>
        <time>2012-09-02T14:33:20Z</time>
      </trkpt>
      <trkpt lat="42.90018" lon="0.20435">
        <ele>1927.100098</ele>
        <time>2012-09-02T14:33:22Z</time>
      </trkpt>
      <trkpt lat="42.90028" lon="0.20436">
        <ele>1923.735352</ele>
        <time>2012-09-02T14:33:35Z</time>
      </trkpt>
      <trkpt lat="42.90033" lon="0.20437">
        <ele>1921.812744</ele>
        <time>2012-09-02T14:34:06Z</time>
      </trkpt>
      <trkpt lat="42.9004" lon="0.20449">
        <ele>1918.448242</ele>
        <time>2012-09-02T14:34:21Z</time>
      </trkpt>
      <trkpt lat="42.90041" lon="0.20453">
        <ele>1917.486816</ele>
        <time>2012-09-02T14:34:25Z</time>
      </trkpt>
      <trkpt lat="42.90049" lon="0.20463">
        <ele>1914.602783</ele>
        <time>2012-09-02T14:34:36Z</time>
      </trkpt>
      <trkpt lat="42.90052" lon="0.20469">
        <ele>1913.641357</ele>
        <time>2012-09-02T14:34:43Z</time>
      </trkpt>
      <trkpt lat="42.90054" lon="0.20471">
        <ele>1913.641357</ele>
        <time>2012-09-02T14:34:45Z</time>
      </trkpt>
      <trkpt lat="42.90055" lon="0.20474">
        <ele>1912.199463</ele>
        <time>2012-09-02T14:34:47Z</time>
      </trkpt>
      <trkpt lat="42.90055" lon="0.20474">
        <ele>1911.718994</ele>
        <time>2012-09-02T14:34:48Z</time>
      </trkpt>
      <trkpt lat="42.90061" lon="0.20485">
        <ele>1910.276855</ele>
        <time>2012-09-02T14:34:58Z</time>
      </trkpt>
      <trkpt lat="42.90064" lon="0.20487">
        <ele>1909.315674</ele>
        <time>2012-09-02T14:35:01Z</time>
      </trkpt>
      <trkpt lat="42.90065" lon="0.20489">
        <ele>1908.834961</ele>
        <time>2012-09-02T14:35:20Z</time>
      </trkpt>
      <trkpt lat="42.90071" lon="0.20497">
        <ele>1905.470459</ele>
        <time>2012-09-02T14:36:58Z</time>
      </trkpt>
      <trkpt lat="42.90078" lon="0.20511">
        <ele>1902.105713</ele>
        <time>2012-09-02T14:37:10Z</time>
      </trkpt>
      <trkpt lat="42.90082" lon="0.20518">
        <ele>1900.663818</ele>
        <time>2012-09-02T14:37:16Z</time>
      </trkpt>
      <trkpt lat="42.90085" lon="0.20528">
        <ele>1898.260254</ele>
        <time>2012-09-02T14:37:23Z</time>
      </trkpt>
      <trkpt lat="42.90086" lon="0.2053">
        <ele>1897.299072</ele>
        <time>2012-09-02T14:37:25Z</time>
      </trkpt>
      <trkpt lat="42.90087" lon="0.20536">
        <ele>1896.337891</ele>
        <time>2012-09-02T14:37:29Z</time>
      </trkpt>
      <trkpt lat="42.90094" lon="0.20542">
        <ele>1893.453857</ele>
        <time>2012-09-02T14:37:36Z</time>
      </trkpt>
      <trkpt lat="42.90095" lon="0.20543">
        <ele>1892.973145</ele>
        <time>2012-09-02T14:37:37Z</time>
      </trkpt>
      <trkpt lat="42.90101" lon="0.20554">
        <ele>1891.050537</ele>
        <time>2012-09-02T14:37:51Z</time>
      </trkpt>
      <trkpt lat="42.90105" lon="0.20565">
        <ele>1888.166748</ele>
        <time>2012-09-02T14:38:00Z</time>
      </trkpt>
      <trkpt lat="42.9011" lon="0.20576">
        <ele>1885.282715</ele>
        <time>2012-09-02T14:38:09Z</time>
      </trkpt>
      <trkpt lat="42.90111" lon="0.20579">
        <ele>1883.840576</ele>
        <time>2012-09-02T14:38:11Z</time>
      </trkpt>
      <trkpt lat="42.90117" lon="0.20592">
        <ele>1881.917969</ele>
        <time>2012-09-02T14:38:20Z</time>
      </trkpt>
      <trkpt lat="42.90121" lon="0.20605">
        <ele>1879.514648</ele>
        <time>2012-09-02T14:38:29Z</time>
      </trkpt>
      <trkpt lat="42.90127" lon="0.20616">
        <ele>1876.630859</ele>
        <time>2012-09-02T14:38:37Z</time>
      </trkpt>
      <trkpt lat="42.90134" lon="0.20625">
        <ele>1873.746826</ele>
        <time>2012-09-02T14:38:46Z</time>
      </trkpt>
      <trkpt lat="42.90137" lon="0.20633">
        <ele>1870.863037</ele>
        <time>2012-09-02T14:38:53Z</time>
      </trkpt>
      <trkpt lat="42.90138" lon="0.20639">
        <ele>1869.901611</ele>
        <time>2012-09-02T14:38:57Z</time>
      </trkpt>
      <trkpt lat="42.90138" lon="0.20641">
        <ele>1869.421143</ele>
        <time>2012-09-02T14:38:59Z</time>
      </trkpt>
      <trkpt lat="42.90143" lon="0.2065">
        <ele>1867.017578</ele>
        <time>2012-09-02T14:39:07Z</time>
      </trkpt>
      <trkpt lat="42.9015" lon="0.2066">
        <ele>1864.614258</ele>
        <time>2012-09-02T14:39:16Z</time>
      </trkpt>
      <trkpt lat="42.90152" lon="0.20668">
        <ele>1863.172363</ele>
        <time>2012-09-02T14:39:21Z</time>
      </trkpt>
      <trkpt lat="42.90159" lon="0.20682">
        <ele>1859.327148</ele>
        <time>2012-09-02T14:39:31Z</time>
      </trkpt>
      <trkpt lat="42.90159" lon="0.20686">
        <ele>1859.327148</ele>
        <time>2012-09-02T14:39:33Z</time>
      </trkpt>
      <trkpt lat="42.90161" lon="0.20693">
        <ele>1857.885254</ele>
        <time>2012-09-02T14:39:37Z</time>
      </trkpt>
      <trkpt lat="42.90168" lon="0.20705">
        <ele>1855.001221</ele>
        <time>2012-09-02T14:39:46Z</time>
      </trkpt>
      <trkpt lat="42.90174" lon="0.20719">
        <ele>1851.636475</ele>
        <time>2012-09-02T14:39:59Z</time>
      </trkpt>
      <trkpt lat="42.9018" lon="0.20728">
        <ele>1848.271729</ele>
        <time>2012-09-02T14:40:12Z</time>
      </trkpt>
      <trkpt lat="42.90181" lon="0.20729">
        <ele>1847.79126</ele>
        <time>2012-09-02T14:40:14Z</time>
      </trkpt>
      <trkpt lat="42.90184" lon="0.20736">
        <ele>1845.868652</ele>
        <time>2012-09-02T14:40:37Z</time>
      </trkpt>
      <trkpt lat="42.90189" lon="0.20738">
        <ele>1842.50415</ele>
        <time>2012-09-02T14:40:47Z</time>
      </trkpt>
      <trkpt lat="42.90187" lon="0.20748">
        <ele>1839.620117</ele>
        <time>2012-09-02T14:40:59Z</time>
      </trkpt>
      <trkpt lat="42.90186" lon="0.2075">
        <ele>1838.658936</ele>
        <time>2012-09-02T14:41:01Z</time>
      </trkpt>
      <trkpt lat="42.90175" lon="0.20758">
        <ele>1836.736084</ele>
        <time>2012-09-02T14:41:10Z</time>
      </trkpt>
      <trkpt lat="42.90163" lon="0.20768">
        <ele>1834.332764</ele>
        <time>2012-09-02T14:41:21Z</time>
      </trkpt>
      <trkpt lat="42.90153" lon="0.20778">
        <ele>1831.44873</ele>
        <time>2012-09-02T14:41:36Z</time>
      </trkpt>
      <trkpt lat="42.90164" lon="0.20788">
        <ele>1830.006836</ele>
        <time>2012-09-02T14:41:47Z</time>
      </trkpt>
      <trkpt lat="42.90166" lon="0.2079">
        <ele>1829.04541</ele>
        <time>2012-09-02T14:41:49Z</time>
      </trkpt>
      <trkpt lat="42.9017" lon="0.20796">
        <ele>1826.642334</ele>
        <time>2012-09-02T14:41:55Z</time>
      </trkpt>
      <trkpt lat="42.90179" lon="0.20795">
        <ele>1824.239014</ele>
        <time>2012-09-02T14:42:06Z</time>
      </trkpt>
      <trkpt lat="42.90186" lon="0.208">
        <ele>1822.316406</ele>
        <time>2012-09-02T14:42:19Z</time>
      </trkpt>
      <trkpt lat="42.90191" lon="0.20803">
        <ele>1819.432373</ele>
        <time>2012-09-02T14:42:26Z</time>
      </trkpt>
      <trkpt lat="42.90198" lon="0.20801">
        <ele>1817.509521</ele>
        <time>2012-09-02T14:42:38Z</time>
      </trkpt>
      <trkpt lat="42.90204" lon="0.208">
        <ele>1814.14502</ele>
        <time>2012-09-02T14:42:45Z</time>
      </trkpt>
      <trkpt lat="42.90214" lon="0.208">
        <ele>1811.26123</ele>
        <time>2012-09-02T14:42:58Z</time>
      </trkpt>
      <trkpt lat="42.90213" lon="0.20801">
        <ele>1809.819092</ele>
        <time>2012-09-02T14:43:19Z</time>
      </trkpt>
      <trkpt lat="42.90219" lon="0.20808">
        <ele>1806.935303</ele>
        <time>2012-09-02T14:43:34Z</time>
      </trkpt>
      <trkpt lat="42.90219" lon="0.20812">
        <ele>1806.45459</ele>
        <time>2012-09-02T14:43:36Z</time>
      </trkpt>
      <trkpt lat="42.9022" lon="0.20822">
        <ele>1803.570557</ele>
        <time>2012-09-02T14:43:44Z</time>
      </trkpt>
      <trkpt lat="42.90222" lon="0.20834">
        <ele>1799.725342</ele>
        <time>2012-09-02T14:43:57Z</time>
      </trkpt>
      <trkpt lat="42.90224" lon="0.20836">
        <ele>1798.283203</ele>
        <time>2012-09-02T14:44:01Z</time>
      </trkpt>
      <trkpt lat="42.90228" lon="0.20838">
        <ele>1795.880127</ele>
        <time>2012-09-02T14:44:08Z</time>
      </trkpt>
      <trkpt lat="42.90229" lon="0.20841">
        <ele>1794.437988</ele>
        <time>2012-09-02T14:44:14Z</time>
      </trkpt>
      <trkpt lat="42.90233" lon="0.20841">
        <ele>1792.996094</ele>
        <time>2012-09-02T14:44:17Z</time>
      </trkpt>
      <trkpt lat="42.90242" lon="0.20841">
        <ele>1789.631592</ele>
        <time>2012-09-02T14:44:28Z</time>
      </trkpt>
      <trkpt lat="42.90254" lon="0.20836">
        <ele>1788.189697</ele>
        <time>2012-09-02T14:44:41Z</time>
      </trkpt>
      <trkpt lat="42.90257" lon="0.20835">
        <ele>1785.30542</ele>
        <time>2012-09-02T14:44:53Z</time>
      </trkpt>
      <trkpt lat="42.90259" lon="0.20835">
        <ele>1783.382813</ele>
        <time>2012-09-02T14:45:17Z</time>
      </trkpt>
      <trkpt lat="42.90259" lon="0.20836">
        <ele>1780.018311</ele>
        <time>2012-09-02T14:45:32Z</time>
      </trkpt>
      <trkpt lat="42.90269" lon="0.20835">
        <ele>1777.61499</ele>
        <time>2012-09-02T14:45:48Z</time>
      </trkpt>
      <trkpt lat="42.90274" lon="0.20839">
        <ele>1774.731201</ele>
        <time>2012-09-02T14:46:07Z</time>
      </trkpt>
      <trkpt lat="42.90276" lon="0.20839">
        <ele>1774.250488</ele>
        <time>2012-09-02T14:46:09Z</time>
      </trkpt>
      <trkpt lat="42.9028" lon="0.20841">
        <ele>1772.808594</ele>
        <time>2012-09-02T14:46:13Z</time>
      </trkpt>
      <trkpt lat="42.9028" lon="0.20851">
        <ele>1770.885742</ele>
        <time>2012-09-02T14:46:25Z</time>
      </trkpt>
      <trkpt lat="42.90281" lon="0.20852">
        <ele>1769.924316</ele>
        <time>2012-09-02T14:46:38Z</time>
      </trkpt>
      <trkpt lat="42.90285" lon="0.2085">
        <ele>1766.559814</ele>
        <time>2012-09-02T14:46:58Z</time>
      </trkpt>
      <trkpt lat="42.90285" lon="0.2086">
        <ele>1765.11792</ele>
        <time>2012-09-02T14:47:08Z</time>
      </trkpt>
      <trkpt lat="42.90288" lon="0.20862">
        <ele>1763.675781</ele>
        <time>2012-09-02T14:47:11Z</time>
      </trkpt>
      <trkpt lat="42.9029" lon="0.20859">
        <ele>1763.195313</ele>
        <time>2012-09-02T14:47:15Z</time>
      </trkpt>
      <trkpt lat="42.90307" lon="0.20863">
        <ele>1761.272705</ele>
        <time>2012-09-02T14:47:28Z</time>
      </trkpt>
      <trkpt lat="42.90312" lon="0.20869">
        <ele>1761.272705</ele>
        <time>2012-09-02T14:47:33Z</time>
      </trkpt>
      <trkpt lat="42.90316" lon="0.2087">
        <ele>1761.753418</ele>
        <time>2012-09-02T14:47:38Z</time>
      </trkpt>
      <trkpt lat="42.90325" lon="0.20883">
        <ele>1763.675781</ele>
        <time>2012-09-02T14:47:54Z</time>
      </trkpt>
      <trkpt lat="42.90335" lon="0.20885">
        <ele>1762.233887</ele>
        <time>2012-09-02T14:48:45Z</time>
      </trkpt>
      <trkpt lat="42.90338" lon="0.20887">
        <ele>1761.272705</ele>
        <time>2012-09-02T14:49:01Z</time>
      </trkpt>
      <trkpt lat="42.90349" lon="0.2089">
        <ele>1758.388672</ele>
        <time>2012-09-02T14:49:15Z</time>
      </trkpt>
      <trkpt lat="42.90356" lon="0.20895">
        <ele>1756.946777</ele>
        <time>2012-09-02T14:49:26Z</time>
      </trkpt>
      <trkpt lat="42.90359" lon="0.20898">
        <ele>1755.504639</ele>
        <time>2012-09-02T14:49:30Z</time>
      </trkpt>
      <trkpt lat="42.90364" lon="0.20899">
        <ele>1755.023926</ele>
        <time>2012-09-02T14:49:36Z</time>
      </trkpt>
      <trkpt lat="42.9037" lon="0.20902">
        <ele>1753.582031</ele>
        <time>2012-09-02T14:49:44Z</time>
      </trkpt>
      <trkpt lat="42.90373" lon="0.20907">
        <ele>1751.178711</ele>
        <time>2012-09-02T14:49:53Z</time>
      </trkpt>
      <trkpt lat="42.90379" lon="0.20912">
        <ele>1748.775391</ele>
        <time>2012-09-02T14:50:21Z</time>
      </trkpt>
      <trkpt lat="42.90387" lon="0.20914">
        <ele>1746.852783</ele>
        <time>2012-09-02T14:50:35Z</time>
      </trkpt>
      <trkpt lat="42.90397" lon="0.20925">
        <ele>1743.968994</ele>
        <time>2012-09-02T14:51:25Z</time>
      </trkpt>
      <trkpt lat="42.90399" lon="0.20928">
        <ele>1743.007568</ele>
        <time>2012-09-02T14:51:29Z</time>
      </trkpt>
      <trkpt lat="42.90404" lon="0.20933">
        <ele>1741.565674</ele>
        <time>2012-09-02T14:51:36Z</time>
      </trkpt>
      <trkpt lat="42.90412" lon="0.2094">
        <ele>1740.123779</ele>
        <time>2012-09-02T14:51:45Z</time>
      </trkpt>
      <trkpt lat="42.90419" lon="0.20945">
        <ele>1738.681641</ele>
        <time>2012-09-02T14:51:55Z</time>
      </trkpt>
      <trkpt lat="42.90428" lon="0.20946">
        <ele>1735.797607</ele>
        <time>2012-09-02T14:52:06Z</time>
      </trkpt>
      <trkpt lat="42.90429" lon="0.20945">
        <ele>1735.797607</ele>
        <time>2012-09-02T14:52:07Z</time>
      </trkpt>
      <trkpt lat="42.90432" lon="0.20945">
        <ele>1734.355713</ele>
        <time>2012-09-02T14:52:12Z</time>
      </trkpt>
      <trkpt lat="42.90445" lon="0.20948">
        <ele>1732.433105</ele>
        <time>2012-09-02T14:52:26Z</time>
      </trkpt>
      <trkpt lat="42.90453" lon="0.20954">
        <ele>1729.068359</ele>
        <time>2012-09-02T14:52:40Z</time>
      </trkpt>
      <trkpt lat="42.90452" lon="0.20958">
        <ele>1728.587891</ele>
        <time>2012-09-02T14:52:56Z</time>
      </trkpt>
      <trkpt lat="42.90455" lon="0.20965">
        <ele>1725.703857</ele>
        <time>2012-09-02T14:53:25Z</time>
      </trkpt>
      <trkpt lat="42.90458" lon="0.20964">
        <ele>1725.223145</ele>
        <time>2012-09-02T14:53:30Z</time>
      </trkpt>
      <trkpt lat="42.90456" lon="0.20955">
        <ele>1722.819824</ele>
        <time>2012-09-02T14:53:38Z</time>
      </trkpt>
      <trkpt lat="42.90463" lon="0.20953">
        <ele>1722.339111</ele>
        <time>2012-09-02T14:53:42Z</time>
      </trkpt>
      <trkpt lat="42.90471" lon="0.2095">
        <ele>1720.897217</ele>
        <time>2012-09-02T14:53:54Z</time>
      </trkpt>
      <trkpt lat="42.90476" lon="0.20953">
        <ele>1718.493896</ele>
        <time>2012-09-02T14:54:03Z</time>
      </trkpt>
      <trkpt lat="42.9048" lon="0.20962">
        <ele>1715.129395</ele>
        <time>2012-09-02T14:54:16Z</time>
      </trkpt>
      <trkpt lat="42.90478" lon="0.20961">
        <ele>1713.687256</ele>
        <time>2012-09-02T14:54:23Z</time>
      </trkpt>
      <trkpt lat="42.90484" lon="0.20965">
        <ele>1710.803467</ele>
        <time>2012-09-02T14:54:53Z</time>
      </trkpt>
      <trkpt lat="42.90485" lon="0.20962">
        <ele>1708.400146</ele>
        <time>2012-09-02T14:55:01Z</time>
      </trkpt>
      <trkpt lat="42.90489" lon="0.20953">
        <ele>1705.516113</ele>
        <time>2012-09-02T14:55:25Z</time>
      </trkpt>
      <trkpt lat="42.9049" lon="0.20953">
        <ele>1705.516113</ele>
        <time>2012-09-02T14:55:26Z</time>
      </trkpt>
      <trkpt lat="42.90495" lon="0.20944">
        <ele>1703.593506</ele>
        <time>2012-09-02T14:55:34Z</time>
      </trkpt>
      <trkpt lat="42.90501" lon="0.20941">
        <ele>1702.63208</ele>
        <time>2012-09-02T14:55:39Z</time>
      </trkpt>
      <trkpt lat="42.90506" lon="0.20935">
        <ele>1701.190186</ele>
        <time>2012-09-02T14:55:49Z</time>
      </trkpt>
      <trkpt lat="42.90511" lon="0.20931">
        <ele>1700.709473</ele>
        <time>2012-09-02T14:55:56Z</time>
      </trkpt>
      <trkpt lat="42.90514" lon="0.20922">
        <ele>1700.709473</ele>
        <time>2012-09-02T14:56:11Z</time>
      </trkpt>
      <trkpt lat="42.90519" lon="0.20916">
        <ele>1699.748291</ele>
        <time>2012-09-02T14:56:23Z</time>
      </trkpt>
      <trkpt lat="42.90522" lon="0.20912">
        <ele>1697.825684</ele>
        <time>2012-09-02T14:56:53Z</time>
      </trkpt>
      <trkpt lat="42.90523" lon="0.20915">
        <ele>1695.422363</ele>
        <time>2012-09-02T14:57:05Z</time>
      </trkpt>
      <trkpt lat="42.90524" lon="0.20911">
        <ele>1693.980469</ele>
        <time>2012-09-02T14:57:20Z</time>
      </trkpt>
      <trkpt lat="42.90528" lon="0.20902">
        <ele>1692.057861</ele>
        <time>2012-09-02T14:57:29Z</time>
      </trkpt>
      <trkpt lat="42.90536" lon="0.20903">
        <ele>1689.654297</ele>
        <time>2012-09-02T14:57:41Z</time>
      </trkpt>
      <trkpt lat="42.90542" lon="0.20907">
        <ele>1686.289795</ele>
        <time>2012-09-02T14:57:51Z</time>
      </trkpt>
      <trkpt lat="42.90545" lon="0.20907">
        <ele>1684.367188</ele>
        <time>2012-09-02T14:57:59Z</time>
      </trkpt>
      <trkpt lat="42.90549" lon="0.20905">
        <ele>1681.483154</ele>
        <time>2012-09-02T14:58:09Z</time>
      </trkpt>
      <trkpt lat="42.90557" lon="0.20912">
        <ele>1678.118652</ele>
        <time>2012-09-02T14:58:21Z</time>
      </trkpt>
      <trkpt lat="42.90564" lon="0.20914">
        <ele>1677.157471</ele>
        <time>2012-09-02T14:58:34Z</time>
      </trkpt>
      <trkpt lat="42.90568" lon="0.20922">
        <ele>1673.312012</ele>
        <time>2012-09-02T14:59:16Z</time>
      </trkpt>
      <trkpt lat="42.90565" lon="0.20932">
        <ele>1670.427979</ele>
        <time>2012-09-02T14:59:28Z</time>
      </trkpt>
      <trkpt lat="42.90565" lon="0.20932">
        <ele>1670.427979</ele>
        <time>2012-09-02T14:59:29Z</time>
      </trkpt>
      <trkpt lat="42.90561" lon="0.20945">
        <ele>1667.063477</ele>
        <time>2012-09-02T14:59:42Z</time>
      </trkpt>
      <trkpt lat="42.90559" lon="0.20953">
        <ele>1666.102051</ele>
        <time>2012-09-02T14:59:58Z</time>
      </trkpt>
      <trkpt lat="42.90555" lon="0.2096">
        <ele>1666.102051</ele>
        <time>2012-09-02T15:00:04Z</time>
      </trkpt>
      <trkpt lat="42.90556" lon="0.20975">
        <ele>1661.776367</ele>
        <time>2012-09-02T15:00:19Z</time>
      </trkpt>
      <trkpt lat="42.90554" lon="0.20992">
        <ele>1658.411377</ele>
        <time>2012-09-02T15:00:31Z</time>
      </trkpt>
      <trkpt lat="42.9055" lon="0.2101">
        <ele>1655.046875</ele>
        <time>2012-09-02T15:00:45Z</time>
      </trkpt>
      <trkpt lat="42.90547" lon="0.21021">
        <ele>1653.124268</ele>
        <time>2012-09-02T15:00:53Z</time>
      </trkpt>
      <trkpt lat="42.90546" lon="0.21025">
        <ele>1652.162842</ele>
        <time>2012-09-02T15:00:58Z</time>
      </trkpt>
      <trkpt lat="42.90546" lon="0.21028">
        <ele>1651.20166</ele>
        <time>2012-09-02T15:01:00Z</time>
      </trkpt>
      <trkpt lat="42.90543" lon="0.21034">
        <ele>1649.759766</ele>
        <time>2012-09-02T15:01:07Z</time>
      </trkpt>
      <trkpt lat="42.9054" lon="0.21036">
        <ele>1649.279053</ele>
        <time>2012-09-02T15:01:09Z</time>
      </trkpt>
      <trkpt lat="42.90537" lon="0.21055">
        <ele>1646.395264</ele>
        <time>2012-09-02T15:01:24Z</time>
      </trkpt>
      <trkpt lat="42.90534" lon="0.2107">
        <ele>1643.030273</ele>
        <time>2012-09-02T15:01:36Z</time>
      </trkpt>
      <trkpt lat="42.90534" lon="0.21071">
        <ele>1643.030273</ele>
        <time>2012-09-02T15:01:37Z</time>
      </trkpt>
      <trkpt lat="42.90534" lon="0.21078">
        <ele>1641.588379</ele>
        <time>2012-09-02T15:01:42Z</time>
      </trkpt>
      <trkpt lat="42.90535" lon="0.21083">
        <ele>1640.146484</ele>
        <time>2012-09-02T15:01:46Z</time>
      </trkpt>
      <trkpt lat="42.90538" lon="0.21088">
        <ele>1638.70459</ele>
        <time>2012-09-02T15:01:50Z</time>
      </trkpt>
      <trkpt lat="42.90542" lon="0.21089">
        <ele>1638.70459</ele>
        <time>2012-09-02T15:02:09Z</time>
      </trkpt>
      <trkpt lat="42.9055" lon="0.21089">
        <ele>1636.781738</ele>
        <time>2012-09-02T15:02:42Z</time>
      </trkpt>
      <trkpt lat="42.90552" lon="0.21088">
        <ele>1636.30127</ele>
        <time>2012-09-02T15:02:44Z</time>
      </trkpt>
      <trkpt lat="42.90555" lon="0.21083">
        <ele>1635.820557</ele>
        <time>2012-09-02T15:02:49Z</time>
      </trkpt>
      <trkpt lat="42.90561" lon="0.21085">
        <ele>1634.859375</ele>
        <time>2012-09-02T15:02:54Z</time>
      </trkpt>
      <trkpt lat="42.90563" lon="0.21087">
        <ele>1634.859375</ele>
        <time>2012-09-02T15:02:56Z</time>
      </trkpt>
      <trkpt lat="42.90567" lon="0.21091">
        <ele>1634.859375</ele>
        <time>2012-09-02T15:03:00Z</time>
      </trkpt>
      <trkpt lat="42.90577" lon="0.21096">
        <ele>1633.417236</ele>
        <time>2012-09-02T15:03:14Z</time>
      </trkpt>
      <trkpt lat="42.90578" lon="0.21095">
        <ele>1632.936523</ele>
        <time>2012-09-02T15:03:17Z</time>
      </trkpt>
      <trkpt lat="42.90586" lon="0.21097">
        <ele>1632.456055</ele>
        <time>2012-09-02T15:03:23Z</time>
      </trkpt>
      <trkpt lat="42.90589" lon="0.21099">
        <ele>1630.533447</ele>
        <time>2012-09-02T15:03:26Z</time>
      </trkpt>
      <trkpt lat="42.90592" lon="0.21101">
        <ele>1630.533447</ele>
        <time>2012-09-02T15:03:29Z</time>
      </trkpt>
      <trkpt lat="42.90597" lon="0.21103">
        <ele>1629.091309</ele>
        <time>2012-09-02T15:03:34Z</time>
      </trkpt>
      <trkpt lat="42.90606" lon="0.21108">
        <ele>1625.24585</ele>
        <time>2012-09-02T15:03:46Z</time>
      </trkpt>
      <trkpt lat="42.90608" lon="0.21111">
        <ele>1625.24585</ele>
        <time>2012-09-02T15:03:49Z</time>
      </trkpt>
      <trkpt lat="42.90611" lon="0.21109">
        <ele>1623.803955</ele>
        <time>2012-09-02T15:03:52Z</time>
      </trkpt>
      <trkpt lat="42.90616" lon="0.21115">
        <ele>1622.362061</ele>
        <time>2012-09-02T15:03:58Z</time>
      </trkpt>
      <trkpt lat="42.90616" lon="0.21117">
        <ele>1621.881348</ele>
        <time>2012-09-02T15:04:00Z</time>
      </trkpt>
      <trkpt lat="42.90621" lon="0.21122">
        <ele>1620.439453</ele>
        <time>2012-09-02T15:04:14Z</time>
      </trkpt>
      <trkpt lat="42.90625" lon="0.2112">
        <ele>1619.95874</ele>
        <time>2012-09-02T15:04:39Z</time>
      </trkpt>
      <trkpt lat="42.90638" lon="0.21124">
        <ele>1618.516846</ele>
        <time>2012-09-02T15:04:57Z</time>
      </trkpt>
      <trkpt lat="42.9064" lon="0.21125">
        <ele>1618.516846</ele>
        <time>2012-09-02T15:04:58Z</time>
      </trkpt>
      <trkpt lat="42.9065" lon="0.21125">
        <ele>1617.074951</ele>
        <time>2012-09-02T15:05:07Z</time>
      </trkpt>
      <trkpt lat="42.90657" lon="0.21128">
        <ele>1616.594238</ele>
        <time>2012-09-02T15:05:12Z</time>
      </trkpt>
      <trkpt lat="42.90672" lon="0.21131">
        <ele>1613.229736</ele>
        <time>2012-09-02T15:05:25Z</time>
      </trkpt>
      <trkpt lat="42.90686" lon="0.21129">
        <ele>1611.306885</ele>
        <time>2012-09-02T15:05:37Z</time>
      </trkpt>
      <trkpt lat="42.90689" lon="0.2113">
        <ele>1611.306885</ele>
        <time>2012-09-02T15:05:40Z</time>
      </trkpt>
      <trkpt lat="42.90699" lon="0.2113">
        <ele>1609.384277</ele>
        <time>2012-09-02T15:05:49Z</time>
      </trkpt>
      <trkpt lat="42.90702" lon="0.21132">
        <ele>1607.942383</ele>
        <time>2012-09-02T15:05:52Z</time>
      </trkpt>
      <trkpt lat="42.90703" lon="0.21135">
        <ele>1607.46167</ele>
        <time>2012-09-02T15:05:54Z</time>
      </trkpt>
      <trkpt lat="42.90704" lon="0.21137">
        <ele>1606.980957</ele>
        <time>2012-09-02T15:05:56Z</time>
      </trkpt>
      <trkpt lat="42.90715" lon="0.21147">
        <ele>1605.05835</ele>
        <time>2012-09-02T15:06:05Z</time>
      </trkpt>
      <trkpt lat="42.90718" lon="0.21159">
        <ele>1601.693848</ele>
        <time>2012-09-02T15:06:18Z</time>
      </trkpt>
      <trkpt lat="42.90723" lon="0.21177">
        <ele>1599.77124</ele>
        <time>2012-09-02T15:06:32Z</time>
      </trkpt>
      <trkpt lat="42.90722" lon="0.21181">
        <ele>1600.251953</ele>
        <time>2012-09-02T15:06:36Z</time>
      </trkpt>
      <trkpt lat="42.90723" lon="0.21186">
        <ele>1599.77124</ele>
        <time>2012-09-02T15:06:40Z</time>
      </trkpt>
      <trkpt lat="42.90726" lon="0.2119">
        <ele>1600.251953</ele>
        <time>2012-09-02T15:06:45Z</time>
      </trkpt>
      <trkpt lat="42.90729" lon="0.21195">
        <ele>1600.251953</ele>
        <time>2012-09-02T15:06:48Z</time>
      </trkpt>
      <trkpt lat="42.90731" lon="0.212">
        <ele>1599.77124</ele>
        <time>2012-09-02T15:06:51Z</time>
      </trkpt>
      <trkpt lat="42.90737" lon="0.21207">
        <ele>1599.290527</ele>
        <time>2012-09-02T15:06:59Z</time>
      </trkpt>
      <trkpt lat="42.90747" lon="0.21226">
        <ele>1597.848633</ele>
        <time>2012-09-02T15:07:16Z</time>
      </trkpt>
      <trkpt lat="42.90748" lon="0.21231">
        <ele>1597.36792</ele>
        <time>2012-09-02T15:07:19Z</time>
      </trkpt>
      <trkpt lat="42.90751" lon="0.21238">
        <ele>1596.406738</ele>
        <time>2012-09-02T15:07:25Z</time>
      </trkpt>
      <trkpt lat="42.90751" lon="0.21242">
        <ele>1595.445068</ele>
        <time>2012-09-02T15:07:27Z</time>
      </trkpt>
      <trkpt lat="42.90756" lon="0.21244">
        <ele>1595.925781</ele>
        <time>2012-09-02T15:07:46Z</time>
      </trkpt>
      <trkpt lat="42.90754" lon="0.21242">
        <ele>1595.925781</ele>
        <time>2012-09-02T15:08:40Z</time>
      </trkpt>
      <trkpt lat="42.90756" lon="0.21242">
        <ele>1594.964355</ele>
        <time>2012-09-02T15:10:56Z</time>
      </trkpt>
      <trkpt lat="42.90758" lon="0.21253">
        <ele>1594.003174</ele>
        <time>2012-09-02T15:11:49Z</time>
      </trkpt>
      <trkpt lat="42.90758" lon="0.21269">
        <ele>1594.483643</ele>
        <time>2012-09-02T15:12:01Z</time>
      </trkpt>
      <trkpt lat="42.90759" lon="0.21273">
        <ele>1594.483643</ele>
        <time>2012-09-02T15:12:07Z</time>
      </trkpt>
      <trkpt lat="42.90767" lon="0.21281">
        <ele>1594.003174</ele>
        <time>2012-09-02T15:12:18Z</time>
      </trkpt>
      <trkpt lat="42.90776" lon="0.21283">
        <ele>1592.561279</ele>
        <time>2012-09-02T15:12:29Z</time>
      </trkpt>
      <trkpt lat="42.9078" lon="0.21287">
        <ele>1591.599854</ele>
        <time>2012-09-02T15:12:34Z</time>
      </trkpt>
      <trkpt lat="42.90792" lon="0.21295">
        <ele>1591.599854</ele>
        <time>2012-09-02T15:12:46Z</time>
      </trkpt>
      <trkpt lat="42.90805" lon="0.21304">
        <ele>1592.561279</ele>
        <time>2012-09-02T15:13:01Z</time>
      </trkpt>
      <trkpt lat="42.90814" lon="0.21312">
        <ele>1592.080566</ele>
        <time>2012-09-02T15:13:14Z</time>
      </trkpt>
      <trkpt lat="42.90816" lon="0.21313">
        <ele>1591.599854</ele>
        <time>2012-09-02T15:13:44Z</time>
      </trkpt>
      <trkpt lat="42.90826" lon="0.21326">
        <ele>1590.157959</ele>
        <time>2012-09-02T15:13:56Z</time>
      </trkpt>
      <trkpt lat="42.90827" lon="0.21333">
        <ele>1589.677246</ele>
        <time>2012-09-02T15:14:05Z</time>
      </trkpt>
      <trkpt lat="42.90843" lon="0.21349">
        <ele>1587.754639</ele>
        <time>2012-09-02T15:14:23Z</time>
      </trkpt>
      <trkpt lat="42.90848" lon="0.21353">
        <ele>1587.754639</ele>
        <time>2012-09-02T15:14:28Z</time>
      </trkpt>
      <trkpt lat="42.90857" lon="0.21363">
        <ele>1585.832031</ele>
        <time>2012-09-02T15:14:40Z</time>
      </trkpt>
      <trkpt lat="42.90862" lon="0.21374">
        <ele>1584.87085</ele>
        <time>2012-09-02T15:14:50Z</time>
      </trkpt>
      <trkpt lat="42.90866" lon="0.21379">
        <ele>1584.87085</ele>
        <time>2012-09-02T15:14:55Z</time>
      </trkpt>
      <trkpt lat="42.90877" lon="0.21385">
        <ele>1583.428711</ele>
        <time>2012-09-02T15:15:04Z</time>
      </trkpt>
      <trkpt lat="42.90878" lon="0.21387">
        <ele>1583.909424</ele>
        <time>2012-09-02T15:15:06Z</time>
      </trkpt>
      <trkpt lat="42.90881" lon="0.21389">
        <ele>1583.428711</ele>
        <time>2012-09-02T15:15:10Z</time>
      </trkpt>
      <trkpt lat="42.90884" lon="0.21391">
        <ele>1582.947998</ele>
        <time>2012-09-02T15:15:13Z</time>
      </trkpt>
      <trkpt lat="42.90885" lon="0.21393">
        <ele>1582.467529</ele>
        <time>2012-09-02T15:15:15Z</time>
      </trkpt>
      <trkpt lat="42.9089" lon="0.21395">
        <ele>1581.986816</ele>
        <time>2012-09-02T15:15:19Z</time>
      </trkpt>
      <trkpt lat="42.90894" lon="0.2141">
        <ele>1581.025635</ele>
        <time>2012-09-02T15:15:30Z</time>
      </trkpt>
      <trkpt lat="42.909" lon="0.21415">
        <ele>1580.544922</ele>
        <time>2012-09-02T15:15:35Z</time>
      </trkpt>
      <trkpt lat="42.90903" lon="0.21422">
        <ele>1580.544922</ele>
        <time>2012-09-02T15:15:42Z</time>
      </trkpt>
      <trkpt lat="42.90909" lon="0.21425">
        <ele>1580.544922</ele>
        <time>2012-09-02T15:15:48Z</time>
      </trkpt>
      <trkpt lat="42.90911" lon="0.21426">
        <ele>1580.064209</ele>
        <time>2012-09-02T15:15:50Z</time>
      </trkpt>
      <trkpt lat="42.90915" lon="0.21431">
        <ele>1580.544922</ele>
        <time>2012-09-02T15:15:55Z</time>
      </trkpt>
      <trkpt lat="42.90918" lon="0.21434">
        <ele>1581.025635</ele>
        <time>2012-09-02T15:15:59Z</time>
      </trkpt>
      <trkpt lat="42.90923" lon="0.21436">
        <ele>1581.025635</ele>
        <time>2012-09-02T15:16:04Z</time>
      </trkpt>
      <trkpt lat="42.90926" lon="0.21439">
        <ele>1580.544922</ele>
        <time>2012-09-02T15:16:07Z</time>
      </trkpt>
      <trkpt lat="42.90945" lon="0.21448">
        <ele>1579.102539</ele>
        <time>2012-09-02T15:16:24Z</time>
      </trkpt>
      <trkpt lat="42.90951" lon="0.21453">
        <ele>1576.21875</ele>
        <time>2012-09-02T15:16:33Z</time>
      </trkpt>
      <trkpt lat="42.90958" lon="0.2146">
        <ele>1576.21875</ele>
        <time>2012-09-02T15:16:40Z</time>
      </trkpt>
      <trkpt lat="42.90962" lon="0.21464">
        <ele>1575.738037</ele>
        <time>2012-09-02T15:16:44Z</time>
      </trkpt>
      <trkpt lat="42.90966" lon="0.21468">
        <ele>1575.257324</ele>
        <time>2012-09-02T15:16:48Z</time>
      </trkpt>
      <trkpt lat="42.90969" lon="0.21472">
        <ele>1574.776855</ele>
        <time>2012-09-02T15:16:52Z</time>
      </trkpt>
      <trkpt lat="42.90974" lon="0.21474">
        <ele>1573.334961</ele>
        <time>2012-09-02T15:16:57Z</time>
      </trkpt>
      <trkpt lat="42.90982" lon="0.21477">
        <ele>1572.373535</ele>
        <time>2012-09-02T15:17:04Z</time>
      </trkpt>
      <trkpt lat="42.91001" lon="0.21491">
        <ele>1571.412109</ele>
        <time>2012-09-02T15:17:22Z</time>
      </trkpt>
      <trkpt lat="42.91003" lon="0.21497">
        <ele>1570.931641</ele>
        <time>2012-09-02T15:17:26Z</time>
      </trkpt>
      <trkpt lat="42.91005" lon="0.21507">
        <ele>1570.931641</ele>
        <time>2012-09-02T15:17:31Z</time>
      </trkpt>
      <trkpt lat="42.91012" lon="0.21508">
        <ele>1569.970215</ele>
        <time>2012-09-02T15:17:36Z</time>
      </trkpt>
      <trkpt lat="42.91027" lon="0.21513">
        <ele>1567.566895</ele>
        <time>2012-09-02T15:17:49Z</time>
      </trkpt>
      <trkpt lat="42.9103" lon="0.21526">
        <ele>1566.125</ele>
        <time>2012-09-02T15:17:59Z</time>
      </trkpt>
      <trkpt lat="42.91034" lon="0.21527">
        <ele>1566.125</ele>
        <time>2012-09-02T15:18:03Z</time>
      </trkpt>
      <trkpt lat="42.9104" lon="0.21527">
        <ele>1564.683105</ele>
        <time>2012-09-02T15:18:07Z</time>
      </trkpt>
      <trkpt lat="42.91044" lon="0.21527">
        <ele>1564.683105</ele>
        <time>2012-09-02T15:18:10Z</time>
      </trkpt>
      <trkpt lat="42.91052" lon="0.21531">
        <ele>1564.202393</ele>
        <time>2012-09-02T15:18:24Z</time>
      </trkpt>
      <trkpt lat="42.91056" lon="0.21536">
        <ele>1562.279541</ele>
        <time>2012-09-02T15:18:38Z</time>
      </trkpt>
      <trkpt lat="42.91068" lon="0.21536">
        <ele>1559.395752</ele>
        <time>2012-09-02T15:18:52Z</time>
      </trkpt>
      <trkpt lat="42.91072" lon="0.21533">
        <ele>1558.915039</ele>
        <time>2012-09-02T15:18:58Z</time>
      </trkpt>
      <trkpt lat="42.91077" lon="0.21529">
        <ele>1558.915039</ele>
        <time>2012-09-02T15:19:03Z</time>
      </trkpt>
      <trkpt lat="42.9108" lon="0.21523">
        <ele>1559.395752</ele>
        <time>2012-09-02T15:19:08Z</time>
      </trkpt>
      <trkpt lat="42.9108" lon="0.21521">
        <ele>1559.395752</ele>
        <time>2012-09-02T15:19:10Z</time>
      </trkpt>
      <trkpt lat="42.91085" lon="0.21513">
        <ele>1560.837646</ele>
        <time>2012-09-02T15:19:17Z</time>
      </trkpt>
      <trkpt lat="42.91086" lon="0.21508">
        <ele>1561.799072</ele>
        <time>2012-09-02T15:19:22Z</time>
      </trkpt>
      <trkpt lat="42.91092" lon="0.21502">
        <ele>1564.202393</ele>
        <time>2012-09-02T15:19:33Z</time>
      </trkpt>
      <trkpt lat="42.91095" lon="0.21498">
        <ele>1566.125</ele>
        <time>2012-09-02T15:19:37Z</time>
      </trkpt>
      <trkpt lat="42.91099" lon="0.21495">
        <ele>1566.605713</ele>
        <time>2012-09-02T15:19:41Z</time>
      </trkpt>
      <trkpt lat="42.91116" lon="0.21483">
        <ele>1566.125</ele>
        <time>2012-09-02T15:20:02Z</time>
      </trkpt>
      <trkpt lat="42.91126" lon="0.21477">
        <ele>1568.047607</ele>
        <time>2012-09-02T15:20:13Z</time>
      </trkpt>
      <trkpt lat="42.91129" lon="0.21474">
        <ele>1568.047607</ele>
        <time>2012-09-02T15:20:29Z</time>
      </trkpt>
      <trkpt lat="42.91134" lon="0.21478">
        <ele>1567.086426</ele>
        <time>2012-09-02T15:20:40Z</time>
      </trkpt>
      <trkpt lat="42.91141" lon="0.21489">
        <ele>1563.240967</ele>
        <time>2012-09-02T15:20:53Z</time>
      </trkpt>
      <trkpt lat="42.91142" lon="0.21493">
        <ele>1562.760254</ele>
        <time>2012-09-02T15:20:56Z</time>
      </trkpt>
      <trkpt lat="42.91145" lon="0.21497">
        <ele>1561.799072</ele>
        <time>2012-09-02T15:20:59Z</time>
      </trkpt>
      <trkpt lat="42.91156" lon="0.21507">
        <ele>1560.837646</ele>
        <time>2012-09-02T15:21:10Z</time>
      </trkpt>
      <trkpt lat="42.9117" lon="0.21516">
        <ele>1560.837646</ele>
        <time>2012-09-02T15:21:22Z</time>
      </trkpt>
      <trkpt lat="42.91175" lon="0.21533">
        <ele>1560.837646</ele>
        <time>2012-09-02T15:21:38Z</time>
      </trkpt>
      <trkpt lat="42.91174" lon="0.21536">
        <ele>1561.318359</ele>
        <time>2012-09-02T15:21:43Z</time>
      </trkpt>
      <trkpt lat="42.9119" lon="0.21552">
        <ele>1557.953857</ele>
        <time>2012-09-02T15:21:58Z</time>
      </trkpt>
      <trkpt lat="42.91192" lon="0.21556">
        <ele>1557.953857</ele>
        <time>2012-09-02T15:22:01Z</time>
      </trkpt>
      <trkpt lat="42.91195" lon="0.2156">
        <ele>1557.473145</ele>
        <time>2012-09-02T15:22:04Z</time>
      </trkpt>
      <trkpt lat="42.91213" lon="0.21579">
        <ele>1557.473145</ele>
        <time>2012-09-02T15:22:19Z</time>
      </trkpt>
      <trkpt lat="42.91225" lon="0.21587">
        <ele>1558.915039</ele>
        <time>2012-09-02T15:22:30Z</time>
      </trkpt>
      <trkpt lat="42.91229" lon="0.21589">
        <ele>1558.915039</ele>
        <time>2012-09-02T15:22:34Z</time>
      </trkpt>
      <trkpt lat="42.91237" lon="0.21592">
        <ele>1559.395752</ele>
        <time>2012-09-02T15:22:41Z</time>
      </trkpt>
      <trkpt lat="42.91249" lon="0.21597">
        <ele>1559.876221</ele>
        <time>2012-09-02T15:22:49Z</time>
      </trkpt>
      <trkpt lat="42.91258" lon="0.21603">
        <ele>1559.876221</ele>
        <time>2012-09-02T15:22:58Z</time>
      </trkpt>
      <trkpt lat="42.91268" lon="0.21609">
        <ele>1560.356934</ele>
        <time>2012-09-02T15:23:06Z</time>
      </trkpt>
      <trkpt lat="42.91278" lon="0.21614">
        <ele>1560.837646</ele>
        <time>2012-09-02T15:23:14Z</time>
      </trkpt>
      <trkpt lat="42.91288" lon="0.21617">
        <ele>1560.837646</ele>
        <time>2012-09-02T15:23:22Z</time>
      </trkpt>
      <trkpt lat="42.91295" lon="0.21622">
        <ele>1560.837646</ele>
        <time>2012-09-02T15:23:30Z</time>
      </trkpt>
      <trkpt lat="42.91303" lon="0.21625">
        <ele>1561.318359</ele>
        <time>2012-09-02T15:23:36Z</time>
      </trkpt>
      <trkpt lat="42.91309" lon="0.21626">
        <ele>1560.837646</ele>
        <time>2012-09-02T15:23:42Z</time>
      </trkpt>
      <trkpt lat="42.91313" lon="0.21628">
        <ele>1560.837646</ele>
        <time>2012-09-02T15:23:46Z</time>
      </trkpt>
      <trkpt lat="42.91332" lon="0.21638">
        <ele>1560.837646</ele>
        <time>2012-09-02T15:24:02Z</time>
      </trkpt>
      <trkpt lat="42.91334" lon="0.2164">
        <ele>1560.837646</ele>
        <time>2012-09-02T15:24:04Z</time>
      </trkpt>
      <trkpt lat="42.91347" lon="0.21645">
        <ele>1561.799072</ele>
        <time>2012-09-02T15:24:14Z</time>
      </trkpt>
      <trkpt lat="42.91357" lon="0.21651">
        <ele>1562.760254</ele>
        <time>2012-09-02T15:24:22Z</time>
      </trkpt>
      <trkpt lat="42.9137" lon="0.21661">
        <ele>1562.760254</ele>
        <time>2012-09-02T15:24:35Z</time>
      </trkpt>
      <trkpt lat="42.91387" lon="0.21667">
        <ele>1562.279541</ele>
        <time>2012-09-02T15:24:50Z</time>
      </trkpt>
      <trkpt lat="42.91393" lon="0.21672">
        <ele>1561.318359</ele>
        <time>2012-09-02T15:24:54Z</time>
      </trkpt>
      <trkpt lat="42.91411" lon="0.21679">
        <ele>1560.837646</ele>
        <time>2012-09-02T15:25:08Z</time>
      </trkpt>
      <trkpt lat="42.91423" lon="0.21682">
        <ele>1559.876221</ele>
        <time>2012-09-02T15:25:23Z</time>
      </trkpt>
      <trkpt lat="42.91423" lon="0.21682">
        <ele>1559.395752</ele>
        <time>2012-09-02T15:25:27Z</time>
      </trkpt>
      <trkpt lat="42.91431" lon="0.21683">
        <ele>1560.356934</ele>
        <time>2012-09-02T15:25:34Z</time>
      </trkpt>
      <trkpt lat="42.91434" lon="0.21683">
        <ele>1560.356934</ele>
        <time>2012-09-02T15:25:37Z</time>
      </trkpt>
      <trkpt lat="42.91451" lon="0.21679">
        <ele>1559.395752</ele>
        <time>2012-09-02T15:25:52Z</time>
      </trkpt>
      <trkpt lat="42.91464" lon="0.21677">
        <ele>1559.876221</ele>
        <time>2012-09-02T15:26:04Z</time>
      </trkpt>
      <trkpt lat="42.91482" lon="0.21663">
        <ele>1559.876221</ele>
        <time>2012-09-02T15:26:20Z</time>
      </trkpt>
      <trkpt lat="42.91488" lon="0.21655">
        <ele>1559.876221</ele>
        <time>2012-09-02T15:26:35Z</time>
      </trkpt>
      <trkpt lat="42.91495" lon="0.21647">
        <ele>1558.434326</ele>
        <time>2012-09-02T15:26:45Z</time>
      </trkpt>
      <trkpt lat="42.91519" lon="0.2162">
        <ele>1556.992432</ele>
        <time>2012-09-02T15:27:09Z</time>
      </trkpt>
      <trkpt lat="42.9153" lon="0.21604">
        <ele>1557.473145</ele>
        <time>2012-09-02T15:27:22Z</time>
      </trkpt>
      <trkpt lat="42.91531" lon="0.21599">
        <ele>1556.992432</ele>
        <time>2012-09-02T15:27:25Z</time>
      </trkpt>
      <trkpt lat="42.91545" lon="0.21573">
        <ele>1556.992432</ele>
        <time>2012-09-02T15:27:45Z</time>
      </trkpt>
      <trkpt lat="42.9155" lon="0.21557">
        <ele>1556.511719</ele>
        <time>2012-09-02T15:27:58Z</time>
      </trkpt>
      <trkpt lat="42.91551" lon="0.21553">
        <ele>1556.511719</ele>
        <time>2012-09-02T15:28:01Z</time>
      </trkpt>
      <trkpt lat="42.91557" lon="0.21535">
        <ele>1555.069824</ele>
        <time>2012-09-02T15:28:13Z</time>
      </trkpt>
      <trkpt lat="42.91557" lon="0.21528">
        <ele>1555.069824</ele>
        <time>2012-09-02T15:28:17Z</time>
      </trkpt>
      <trkpt lat="42.91562" lon="0.21503">
        <ele>1553.147217</ele>
        <time>2012-09-02T15:28:33Z</time>
      </trkpt>
      <trkpt lat="42.91566" lon="0.21495">
        <ele>1552.666504</ele>
        <time>2012-09-02T15:28:39Z</time>
      </trkpt>
      <trkpt lat="42.91573" lon="0.21469">
        <ele>1551.224609</ele>
        <time>2012-09-02T15:28:55Z</time>
      </trkpt>
      <trkpt lat="42.91575" lon="0.21463">
        <ele>1551.224609</ele>
        <time>2012-09-02T15:28:59Z</time>
      </trkpt>
      <trkpt lat="42.91578" lon="0.21453">
        <ele>1550.263428</ele>
        <time>2012-09-02T15:29:05Z</time>
      </trkpt>
      <trkpt lat="42.91579" lon="0.21445">
        <ele>1549.782715</ele>
        <time>2012-09-02T15:29:11Z</time>
      </trkpt>
      <trkpt lat="42.91579" lon="0.2144">
        <ele>1548.340576</ele>
        <time>2012-09-02T15:29:16Z</time>
      </trkpt>
      <trkpt lat="42.9158" lon="0.21433">
        <ele>1547.37915</ele>
        <time>2012-09-02T15:29:26Z</time>
      </trkpt>
      <trkpt lat="42.91581" lon="0.21427">
        <ele>1546.898438</ele>
        <time>2012-09-02T15:29:31Z</time>
      </trkpt>
      <trkpt lat="42.91583" lon="0.21421">
        <ele>1545.937256</ele>
        <time>2012-09-02T15:29:36Z</time>
      </trkpt>
      <trkpt lat="42.91586" lon="0.21413">
        <ele>1544.014648</ele>
        <time>2012-09-02T15:29:43Z</time>
      </trkpt>
      <trkpt lat="42.9159" lon="0.21403">
        <ele>1541.130615</ele>
        <time>2012-09-02T15:29:53Z</time>
      </trkpt>
      <trkpt lat="42.91592" lon="0.21397">
        <ele>1540.169434</ele>
        <time>2012-09-02T15:30:05Z</time>
      </trkpt>
      <trkpt lat="42.91591" lon="0.21395">
        <ele>1538.727539</ele>
        <time>2012-09-02T15:30:07Z</time>
      </trkpt>
      <trkpt lat="42.91591" lon="0.21394">
        <ele>1538.727539</ele>
        <time>2012-09-02T15:30:08Z</time>
      </trkpt>
      <trkpt lat="42.91594" lon="0.21389">
        <ele>1537.766113</ele>
        <time>2012-09-02T15:30:13Z</time>
      </trkpt>
      <trkpt lat="42.91595" lon="0.21387">
        <ele>1536.804688</ele>
        <time>2012-09-02T15:30:15Z</time>
      </trkpt>
      <trkpt lat="42.91596" lon="0.21379">
        <ele>1533.440186</ele>
        <time>2012-09-02T15:30:25Z</time>
      </trkpt>
      <trkpt lat="42.91598" lon="0.2137">
        <ele>1530.075439</ele>
        <time>2012-09-02T15:30:37Z</time>
      </trkpt>
      <trkpt lat="42.91598" lon="0.21365">
        <ele>1528.633545</ele>
        <time>2012-09-02T15:30:52Z</time>
      </trkpt>
      <trkpt lat="42.91593" lon="0.21361">
        <ele>1526.710938</ele>
        <time>2012-09-02T15:31:09Z</time>
      </trkpt>
      <trkpt lat="42.91591" lon="0.21353">
        <ele>1525.749512</ele>
        <time>2012-09-02T15:31:21Z</time>
      </trkpt>
      <trkpt lat="42.91588" lon="0.21346">
        <ele>1521.904297</ele>
        <time>2012-09-02T15:31:32Z</time>
      </trkpt>
      <trkpt lat="42.91587" lon="0.21345">
        <ele>1521.423584</ele>
        <time>2012-09-02T15:31:34Z</time>
      </trkpt>
      <trkpt lat="42.91593" lon="0.21339">
        <ele>1519.501221</ele>
        <time>2012-09-02T15:31:45Z</time>
      </trkpt>
      <trkpt lat="42.91592" lon="0.2133">
        <ele>1516.136475</ele>
        <time>2012-09-02T15:31:56Z</time>
      </trkpt>
      <trkpt lat="42.9159" lon="0.21327">
        <ele>1514.213623</ele>
        <time>2012-09-02T15:32:08Z</time>
      </trkpt>
      <trkpt lat="42.91591" lon="0.21319">
        <ele>1511.810547</ele>
        <time>2012-09-02T15:32:20Z</time>
      </trkpt>
      <trkpt lat="42.91592" lon="0.21318">
        <ele>1510.849121</ele>
        <time>2012-09-02T15:32:21Z</time>
      </trkpt>
      <trkpt lat="42.91589" lon="0.2131">
        <ele>1507.965332</ele>
        <time>2012-09-02T15:32:31Z</time>
      </trkpt>
      <trkpt lat="42.91584" lon="0.21304">
        <ele>1505.081299</ele>
        <time>2012-09-02T15:32:42Z</time>
      </trkpt>
      <trkpt lat="42.91582" lon="0.21301">
        <ele>1505.081299</ele>
        <time>2012-09-02T15:32:45Z</time>
      </trkpt>
      <trkpt lat="42.91581" lon="0.21299">
        <ele>1504.120117</ele>
        <time>2012-09-02T15:32:47Z</time>
      </trkpt>
      <trkpt lat="42.91579" lon="0.21296">
        <ele>1504.120117</ele>
        <time>2012-09-02T15:32:50Z</time>
      </trkpt>
      <trkpt lat="42.91571" lon="0.21283">
        <ele>1500.274902</ele>
        <time>2012-09-02T15:33:03Z</time>
      </trkpt>
      <trkpt lat="42.91566" lon="0.21277">
        <ele>1498.351807</ele>
        <time>2012-09-02T15:33:12Z</time>
      </trkpt>
      <trkpt lat="42.91565" lon="0.21275">
        <ele>1496.909912</ele>
        <time>2012-09-02T15:33:17Z</time>
      </trkpt>
      <trkpt lat="42.91567" lon="0.21265">
        <ele>1493.54541</ele>
        <time>2012-09-02T15:33:28Z</time>
      </trkpt>
      <trkpt lat="42.91565" lon="0.21253">
        <ele>1492.103516</ele>
        <time>2012-09-02T15:33:36Z</time>
      </trkpt>
      <trkpt lat="42.91562" lon="0.21248">
        <ele>1491.14209</ele>
        <time>2012-09-02T15:33:41Z</time>
      </trkpt>
      <trkpt lat="42.91563" lon="0.21239">
        <ele>1490.180908</ele>
        <time>2012-09-02T15:33:52Z</time>
      </trkpt>
      <trkpt lat="42.91564" lon="0.21235">
        <ele>1488.739014</ele>
        <time>2012-09-02T15:34:00Z</time>
      </trkpt>
      <trkpt lat="42.91564" lon="0.21235">
        <ele>1487.777588</ele>
        <time>2012-09-02T15:34:02Z</time>
      </trkpt>
      <trkpt lat="42.91568" lon="0.21232">
        <ele>1485.85498</ele>
        <time>2012-09-02T15:34:08Z</time>
      </trkpt>
      <trkpt lat="42.91573" lon="0.21232">
        <ele>1485.374268</ele>
        <time>2012-09-02T15:34:14Z</time>
      </trkpt>
      <trkpt lat="42.91574" lon="0.2123">
        <ele>1484.413086</ele>
        <time>2012-09-02T15:34:16Z</time>
      </trkpt>
      <trkpt lat="42.91575" lon="0.21217">
        <ele>1481.04834</ele>
        <time>2012-09-02T15:34:28Z</time>
      </trkpt>
      <trkpt lat="42.91575" lon="0.21215">
        <ele>1479.125488</ele>
        <time>2012-09-02T15:34:33Z</time>
      </trkpt>
      <trkpt lat="42.91571" lon="0.21206">
        <ele>1477.683594</ele>
        <time>2012-09-02T15:34:43Z</time>
      </trkpt>
      <trkpt lat="42.91567" lon="0.21196">
        <ele>1475.280273</ele>
        <time>2012-09-02T15:34:53Z</time>
      </trkpt>
      <trkpt lat="42.91568" lon="0.21196">
        <ele>1474.799805</ele>
        <time>2012-09-02T15:34:54Z</time>
      </trkpt>
      <trkpt lat="42.91572" lon="0.21195">
        <ele>1472.877197</ele>
        <time>2012-09-02T15:34:59Z</time>
      </trkpt>
      <trkpt lat="42.91569" lon="0.21185">
        <ele>1469.993164</ele>
        <time>2012-09-02T15:35:12Z</time>
      </trkpt>
      <trkpt lat="42.91568" lon="0.2118">
        <ele>1469.031982</ele>
        <time>2012-09-02T15:35:17Z</time>
      </trkpt>
      <trkpt lat="42.91575" lon="0.21177">
        <ele>1466.628418</ele>
        <time>2012-09-02T15:35:25Z</time>
      </trkpt>
      <trkpt lat="42.91577" lon="0.21171">
        <ele>1464.705811</ele>
        <time>2012-09-02T15:35:33Z</time>
      </trkpt>
      <trkpt lat="42.91582" lon="0.21167">
        <ele>1461.341309</ele>
        <time>2012-09-02T15:35:45Z</time>
      </trkpt>
      <trkpt lat="42.91586" lon="0.21162">
        <ele>1460.860596</ele>
        <time>2012-09-02T15:35:55Z</time>
      </trkpt>
      <trkpt lat="42.91586" lon="0.21159">
        <ele>1458.937988</ele>
        <time>2012-09-02T15:35:59Z</time>
      </trkpt>
      <trkpt lat="42.91587" lon="0.21156">
        <ele>1457.976807</ele>
        <time>2012-09-02T15:36:03Z</time>
      </trkpt>
      <trkpt lat="42.91585" lon="0.21145">
        <ele>1455.092773</ele>
        <time>2012-09-02T15:36:16Z</time>
      </trkpt>
      <trkpt lat="42.91587" lon="0.2114">
        <ele>1452.689453</ele>
        <time>2012-09-02T15:36:27Z</time>
      </trkpt>
      <trkpt lat="42.91594" lon="0.2114">
        <ele>1450.286133</ele>
        <time>2012-09-02T15:36:41Z</time>
      </trkpt>
      <trkpt lat="42.91595" lon="0.21134">
        <ele>1446.440918</ele>
        <time>2012-09-02T15:36:57Z</time>
      </trkpt>
      <trkpt lat="42.91596" lon="0.21131">
        <ele>1445.960205</ele>
        <time>2012-09-02T15:37:00Z</time>
      </trkpt>
      <trkpt lat="42.91597" lon="0.21126">
        <ele>1445.479492</ele>
        <time>2012-09-02T15:37:03Z</time>
      </trkpt>
      <trkpt lat="42.91598" lon="0.21123">
        <ele>1444.518066</ele>
        <time>2012-09-02T15:37:05Z</time>
      </trkpt>
      <trkpt lat="42.91601" lon="0.21116">
        <ele>1443.556885</ele>
        <time>2012-09-02T15:37:09Z</time>
      </trkpt>
      <trkpt lat="42.91603" lon="0.21112">
        <ele>1442.595703</ele>
        <time>2012-09-02T15:37:12Z</time>
      </trkpt>
      <trkpt lat="42.91606" lon="0.21106">
        <ele>1441.153564</ele>
        <time>2012-09-02T15:37:17Z</time>
      </trkpt>
      <trkpt lat="42.91607" lon="0.2108">
        <ele>1436.827637</ele>
        <time>2012-09-02T15:37:31Z</time>
      </trkpt>
      <trkpt lat="42.91607" lon="0.21073">
        <ele>1435.385498</ele>
        <time>2012-09-02T15:37:35Z</time>
      </trkpt>
      <trkpt lat="42.91606" lon="0.2107">
        <ele>1435.866211</ele>
        <time>2012-09-02T15:37:37Z</time>
      </trkpt>
      <trkpt lat="42.91607" lon="0.21067">
        <ele>1435.385498</ele>
        <time>2012-09-02T15:37:39Z</time>
      </trkpt>
      <trkpt lat="42.91611" lon="0.21057">
        <ele>1434.424316</ele>
        <time>2012-09-02T15:37:44Z</time>
      </trkpt>
      <trkpt lat="42.91614" lon="0.21051">
        <ele>1432.982178</ele>
        <time>2012-09-02T15:37:48Z</time>
      </trkpt>
      <trkpt lat="42.91615" lon="0.21046">
        <ele>1432.020996</ele>
        <time>2012-09-02T15:37:51Z</time>
      </trkpt>
      <trkpt lat="42.91616" lon="0.21041">
        <ele>1431.540283</ele>
        <time>2012-09-02T15:37:55Z</time>
      </trkpt>
      <trkpt lat="42.91617" lon="0.21028">
        <ele>1430.098389</ele>
        <time>2012-09-02T15:38:02Z</time>
      </trkpt>
      <trkpt lat="42.9162" lon="0.21023">
        <ele>1429.136963</ele>
        <time>2012-09-02T15:38:06Z</time>
      </trkpt>
      <trkpt lat="42.91622" lon="0.21015">
        <ele>1429.136963</ele>
        <time>2012-09-02T15:38:11Z</time>
      </trkpt>
      <trkpt lat="42.9163" lon="0.21012">
        <ele>1429.617676</ele>
        <time>2012-09-02T15:38:19Z</time>
      </trkpt>
      <trkpt lat="42.91634" lon="0.21003">
        <ele>1429.617676</ele>
        <time>2012-09-02T15:38:28Z</time>
      </trkpt>
      <trkpt lat="42.9164" lon="0.20992">
        <ele>1426.733887</ele>
        <time>2012-09-02T15:38:42Z</time>
      </trkpt>
      <trkpt lat="42.91644" lon="0.20987">
        <ele>1425.291748</ele>
        <time>2012-09-02T15:38:50Z</time>
      </trkpt>
      <trkpt lat="42.91654" lon="0.20974">
        <ele>1422.407959</ele>
        <time>2012-09-02T15:39:04Z</time>
      </trkpt>
      <trkpt lat="42.91654" lon="0.20971">
        <ele>1421.927246</ele>
        <time>2012-09-02T15:39:07Z</time>
      </trkpt>
      <trkpt lat="42.91659" lon="0.20961">
        <ele>1419.523926</ele>
        <time>2012-09-02T15:39:20Z</time>
      </trkpt>
      <trkpt lat="42.91662" lon="0.20959">
        <ele>1418.5625</ele>
        <time>2012-09-02T15:39:26Z</time>
      </trkpt>
      <trkpt lat="42.91669" lon="0.20949">
        <ele>1419.523926</ele>
        <time>2012-09-02T15:39:39Z</time>
      </trkpt>
      <trkpt lat="42.91668" lon="0.20946">
        <ele>1420.485352</ele>
        <time>2012-09-02T15:39:42Z</time>
      </trkpt>
      <trkpt lat="42.91665" lon="0.20923">
        <ele>1423.369385</ele>
        <time>2012-09-02T15:39:59Z</time>
      </trkpt>
      <trkpt lat="42.91669" lon="0.20922">
        <ele>1426.733887</ele>
        <time>2012-09-02T15:40:09Z</time>
      </trkpt>
      <trkpt lat="42.91668" lon="0.20939">
        <ele>1429.136963</ele>
        <time>2012-09-02T15:40:21Z</time>
      </trkpt>
      <trkpt lat="42.91678" lon="0.20945">
        <ele>1430.098389</ele>
        <time>2012-09-02T15:40:32Z</time>
      </trkpt>
      <trkpt lat="42.9169" lon="0.20947">
        <ele>1429.617676</ele>
        <time>2012-09-02T15:40:42Z</time>
      </trkpt>
      <trkpt lat="42.91705" lon="0.20942">
        <ele>1428.175781</ele>
        <time>2012-09-02T15:40:57Z</time>
      </trkpt>
      <trkpt lat="42.91707" lon="0.20941">
        <ele>1428.175781</ele>
        <time>2012-09-02T15:41:13Z</time>
      </trkpt>
      <trkpt lat="42.91704" lon="0.20943">
        <ele>1427.695068</ele>
        <time>2012-09-02T15:41:40Z</time>
      </trkpt>
      <trkpt lat="42.91704" lon="0.20944">
        <ele>1428.656494</ele>
        <time>2012-09-02T15:41:52Z</time>
      </trkpt>
      <trkpt lat="42.91704" lon="0.20944">
        <ele>1428.656494</ele>
        <time>2012-09-02T15:42:14Z</time>
      </trkpt>
    </trkseg>
  </trk>
</gpx>